     2.11           OBSERVATION DATA    G (GPS)             RINEX VERSION / TYPE
teqc 2010Oct21 OPUS Account 20111026 16:33:07UTC            PGM / RUN BY / DATE
B 1523                                                      MARKER NAME
1181                                                        MARKER NUMBER
CSMIDDLETON NGS                                             OBSERVER / AGENCY
0440103897 TRIMBLE 5700 NP 1.04 / SP 0.00                   REC # / TYPE / VERS
12299603 TRM41249.00 NONE                                   ANT # / TYPE
  -745654.4522 -5506333.9236  3121015.3639                  APPROX POSITION XYZ
        1.9990        0.0000        0.0000                  ANTENNA: DELTA H/E/N
     1     1                                                WAVELENGTH FACT L1/2
     5    L1    L2    C1    P1    P2                        # / TYPES OF OBSERV
  2011     8     2     0     0   30.0000000     GPS         TIME OF FIRST OBS
                                                            END OF HEADER
 11  8  2  0  0 30.0000000  0  8G17G10G04G12G28G27G09G02
 -67639687.55558 -52691206.47556  21581252.3134                   21581250.2424
 -19046746.26657 -14826530.28554  22713787.1644                   22713786.7624
 -56110883.20258 -43684032.62456  19817261.2664                   19817259.4884
  -2695474.00356  -2086229.33554  24328855.8834                   24328855.6804
 -81825311.60757 -63745526.03755  22159402.8984                   22159400.5634
 -39662504.73057 -30891302.08955  22334246.5314                   22334245.2384
 -28383542.10557 -22101804.32955  22000724.7974                   22000723.2974
 -31656142.69158 -24651784.86156  21675200.4844                   21675196.8014
 11  8  2  0  1  0.0000000  0  8G17G10G04G12G28G27G09G02
 -67690183.70948 -52730554.12946  21571643.4384                   21571641.4304
 -19219632.32947 -14961246.60544  22680887.6724                   22680887.5744
 -56185667.10648 -43742305.79447  19803030.2344                   19803028.3204
  -2876962.80847  -2227649.12344  24294320.3134                   24294318.2234
 -81845393.87447 -63761174.61245  22155581.0314                   22155579.3324
 -39738848.53447 -30950790.77945  22319718.4844                   22319717.1484
 -28470934.61347 -22169902.38345  21984095.1254                   21984093.6294
 -31806745.67348 -24769137.78746  21646541.2584                   21646537.4494
 11  8  2  0  1 30.0000000  0  8G17G10G04G12G28G27G09G02
 -67740500.46047 -52769762.00646  21562068.5554                   21562066.3954
 -19392236.10247 -15095742.98944  22648041.8524                   22648041.4804
 -56259812.37248 -43800081.30746  19788920.8754                   19788918.5044
  -3058353.25146  -2368992.26544  24259803.1884                   24259801.4884
 -81865011.81147 -63776461.35345  22151848.0864                   22151846.6644
 -39814620.48747 -31009833.88045  22305299.3284                   22305298.1214
 -28557593.80147 -22237429.00745  21967603.9224                   21967602.4144
 -31956910.36648 -24886149.18746  21617965.9844                   21617962.1764
 11  8  2  0  2  0.0000000  0  8G17G10G04G12G28G27G09G02
 -67790641.02747 -52808832.59246  21552527.2814                   21552524.9844
 -19564557.81347 -15230019.52845  22615250.8674                   22615249.4264
 -56333323.92748 -43857363.03946  19774932.2114                   19774929.9064
  -3239647.01346  -2510260.05644  24225303.3444                   24225301.9104
 -81884169.47247 -63791389.44045  22148202.5474                   22148200.8324
 -39889825.00347 -31068434.80745  22290988.6334                   22290987.5274
 -28643523.81247 -22304387.46345  21951252.5004                   21951250.7734
 -32106639.38948 -25002821.11446  21589473.6414                   21589469.8714
 11  8  2  0  2 30.0000000  0  8G17G10G04G12G28G27G09G02
 -67840603.18847 -52847764.16246  21543019.6254                   21543017.1764
 -19736591.74947 -15364071.89744  22582513.9454                   22582512.2664
 -56406200.81648 -43914150.20846  19761064.1954                   19761062.1094
  -3420840.05446  -2651449.36544  24190823.5944                   24190821.4734
 -81902865.56547 -63805957.88845  22144644.3984                   22144642.8874
 -39964460.77047 -31126592.56345  22276785.9224                   22276784.7774
 -28728722.90447 -22370776.38745  21935039.3594                   21935037.7384
 -32255929.66548 -25119151.15246  21561064.6954                   21561061.0234
 11  8  2  0  3  0.0000000  0  8G17G10G04G12G28G27G09G02
 -66314975.21747 -51658963.18046  21833336.9924                   21833334.7114
 -18332918.96947 -14270300.80344  22849623.9224                   22849622.2624
 -54903031.50848 -42742849.45246  20047107.6414                   20047105.3094
  -2026514.49846  -1564961.82544  24456154.5784                   24456152.8674
 -80345689.31347 -62592573.83245  22440965.2894                   22440963.4804
 -38463116.27147 -29956713.74945  22562481.8444                   22562481.1174
 -27237778.56347 -21209001.58045  22218756.7734                   22218755.5004
 -30829365.21848 -24007542.45846  21832530.4454                   21832527.0204
 11  8  2  0  3 30.0000000  0  8G17G10G04G12G28G27G09G02
 -66364603.11147 -51697634.28046  21823893.2584                   21823890.9654
 -18504390.16847 -14403914.66944  22816993.5474                   22816992.7894
 -54974664.80248 -42798667.59546  20033476.1954                   20033474.2074
  -2207522.86046  -1706007.23843  24421708.6724                   24421707.8874
 -80363485.02447 -62606440.67445  22437579.3834                   22437577.4924
 -38536639.62647 -30014004.70645  22548491.1954                   22548490.1374
 -27321539.63047 -21274269.95845  22202817.6644                   22202816.2624
 -30977797.40848 -24123203.87846  21804284.7584                   21804280.8204
 11  8  2  0  4  0.0000000  0  8G17G10G04G12G28G27G09G02
 -66414059.33747 -51736171.63046  21814481.8204                   21814479.5744
 -18675570.05247 -14537301.55144  22784419.7424                   22784417.4494
 -55045673.84348 -42853999.31446  20019964.1414                   20019961.3984
  -2388431.24546  -1846974.74544  24387283.9144                   24387282.2704
 -80380827.01247 -62619953.92245  22434279.0314                   22434277.2504
 -38609603.49547 -30070859.68145  22534606.8444                   22534605.0864
 -27404578.51747 -21338975.58445  22187015.6724                   22187014.6454
 -31125794.86248 -24238526.51846  21776121.7194                   21776118.4694
 11  8  2  0  4 30.0000000  0  8G17G10G04G12G28G27G09G02
 -66463339.30848 -51774571.62346  21805104.4224                   21805102.2384
 -18846451.10246 -14670455.57244  22751902.0084                   22751900.8594
 -55116055.85848 -42908842.43446  20006570.2504                   20006568.1954
  -2569234.23046  -1987860.09343  24352877.7814                   24352876.8364
 -80397711.68047 -62633110.83745  22431066.1414                   22431063.6994
 -38682004.58347 -30127276.13445  22520829.2424                   22520827.7504
 -27486891.40747 -21403115.52445  22171351.9144                   22171350.5474
 -31273352.43648 -24353506.40246  21748042.2034                   21748038.5394
 11  8  2  0  5  0.0000000  0  8G17G10G04G12G28G27G09G02
 -66512451.96047 -51812841.24746  21795758.5944                   21795756.5824
 -19017039.12047 -14803381.24244  22719440.4384                   22719438.7854
 -55185820.60748 -42963204.57847  19993294.7114                   19993292.4924
  -2749938.49146  -2128668.58043  24318490.7664                   24318489.3014
 -80414148.29847 -62645918.62645  22427938.1884                   22427936.9224
 -38753852.63347 -30183261.65245  22507157.0864                   22507156.0594
 -27568487.82947 -21466697.17545  22155824.4144                   22155823.5314
 -31420478.21648 -24468149.82946  21720045.5234                   21720041.8324
 11  8  2  0  5 30.0000000  0  8G17G10G04G12G28G27G09G02
 -66561392.52547 -51850976.76446  21786445.3594                   21786443.1764
 -19187325.95747 -14936072.22944  22687035.0394                   22687034.1024
 -55254965.28048 -43017083.53946  19980136.8204                   19980134.8834
  -2930537.34047  -2269394.88343  24284124.7274                   24284122.5514
 -80430133.12847 -62658374.36245  22424897.1094                   22424894.6254
 -38825144.19247 -30238813.54945  22493590.7664                   22493589.3754
 -27649363.90147 -21529717.51145  22140434.8284                   22140433.1994
 -31567166.43148 -24582452.29246  21692131.3284                   21692127.8674
 11  8  2  0  6  0.0000000  0  8G17G10G04G12G28G27G09G02
 -66610166.76147 -51888982.68246  21777164.3834                   21777161.9534
 -19357313.59447 -15068530.06645  22654688.1094                   22654686.5434
 -55323496.39048 -43070484.40446  19967095.8444                   19967093.7664
  -3111034.48447  -2410041.95043  24249776.4144                   24249775.3244
 -80445672.07747 -62670482.68245  22421939.8594                   22421937.5514
 -38895885.44847 -30293936.62545  22480128.6724                   22480127.9694
 -27729525.93947 -21592181.42845  22125180.0394                   22125179.2464
 -31713422.03648 -24696417.66246  21664300.1254                   21664296.3364
 11  8  2  0  6 30.0000000  0  8G17G10G04G12G28G27G09G02
 -66658769.24947 -51926854.76646  21767915.2664                   21767913.3364
 -19526993.70547 -15200748.28744  22622398.1174                   22622397.9454
 -55391410.37148 -43123404.38646  19954172.4614                   19954170.4384
  -3291422.92447  -2550604.28243  24215450.8754                   24215447.3204
 -80460760.76947 -62682240.13245  22419068.9844                   22419067.1804
 -38966072.47547 -30348627.85445  22466773.1024                   22466772.0554
 -27808969.64447 -21654085.63645  22110062.2034                   22110061.5234
 -31859239.13948 -24810041.33946  21636551.8364                   21636548.6254
 11  8  2  0  7  0.0000000  0  8G17G10G04G12G28G27G09G02
 -66707198.36447 -51964591.75246  21758699.5944                   21758697.5704
 -19696361.02047 -15332722.78045  22590168.7734                   22590168.6994
 -55458706.90348 -43175843.24646  19941365.9844                   19941364.4264
  -3471699.08747  -2691079.21743  24181144.9384                   24181142.4844
 -80475398.19347 -62693645.96345  22416283.5314                   22416281.2274
 -39035704.68847 -30402886.74545  22453522.4224                   22453521.3754
 -27887694.06447 -21715429.35045  22095082.2034                   22095079.6334
 -32004615.32548 -24923321.44846  21608887.7424                   21608884.0664
 11  8  2  0  7 30.0000000  0  8G17G10G04G12G28G27G09G02
 -66755461.77147 -52002199.60846  21749515.3134                   21749513.3484
 -19865420.38847 -15464457.30844  22557997.8754                   22557997.3674
 -55525395.51048 -43227808.39547  19928675.7734                   19928673.7664
  -3651868.86747  -2831471.21744  24146859.3134                   24146858.5784
 -80489592.63147 -62704706.60845  22413581.8754                   22413580.6414
 -39104791.30448 -30456720.50845  22440375.8524                   22440374.3954
 -27965707.93747 -21776219.40145  22080236.2114                   22080235.0784
 -32149557.36547 -25036263.26346  21581306.3524                   21581302.3554
 11  8  2  0  8  0.0000000  0  8G17G10G04G12G28G27G09G02
 -66803551.14247 -52039671.86146  21740364.4384                   21740362.2704
 -20034159.67047 -15595942.40244  22525887.6174                   22525886.3524
 -55591469.16048 -43279294.35946  19916102.3914                   19916100.3484
  -3831922.08647  -2971772.40844  24112596.5704                   24112594.4654
 -80503336.67147 -62715416.29044  22410966.8444                   22410964.4574
 -39173324.92447 -30510123.35645  22427334.3444                   22427332.9304
 -28043003.81947 -21836449.96945  22065527.8134                   22065526.4884
 -32294056.48547 -25148859.94946  21553808.7974                   21553804.8594
 11  8  2  0  8 30.0000000  0  8G17G10G04G12G28G27G09G02
 -66851463.23247 -52077005.97646  21731246.8594                   21731244.6684
 -20202572.31947 -15727172.99345  22493839.6724                   22493839.1054
 -55656925.99948 -43330299.68346  19903646.2194                   19903644.5124
  -4011853.23947  -3111978.47944  24078357.2504                   24078354.9804
 -80516627.92747 -62725773.15145  22408437.2814                   22408435.3284
 -39241303.25747 -30563093.52345  22414398.2584                   22414397.5314
 -28119579.18947 -21896119.10145  22050955.6804                   22050954.2734
 -32438108.70948 -25261108.40446  21526396.3754                   21526392.9184
 11  8  2  0  9  0.0000000  0  8G17G10G04G12G28G27G09G02
 -66899211.09648 -52114212.09646  21722160.9614                   21722158.8834
 -20370668.90647 -15858157.29345  22461851.7584                   22461851.3404
 -55721781.00048 -43380836.05446  19891304.4614                   19891302.7974
  -4191674.48647  -3252098.86944  24044138.2114                   24044135.4414
 -80529480.47147 -62735788.18344  22405991.9694                   22405989.8554
 -39308741.00147 -30615642.44845  22401565.7734                   22401564.6764
 -28195449.04347 -21955238.49645  22036518.2584                   22036516.4454
 -32581726.58948 -25373018.41646  21499066.9844                   21499063.0004
 11  8  2  0  9 30.0000000  0  8G17G10G04G12G28G27G09G02
 -66946799.56347 -52151294.02446  21713105.0164                   21713102.5274
 -20538450.83447 -15988896.38645  22429923.7734                   22429923.2704
 -55786040.80148 -43430908.61547  19879076.9224                   19879074.6094
  -4371388.63847  -3392135.82344  24009939.7504                   24009936.7624
 -80541899.91747 -62745465.71444  22403628.5944                   22403626.5594
 -39375644.15147 -30667774.81145  22388834.4144                   22388833.6094
 -28270618.91947 -22013812.42045  22022213.7194                   22022212.8594
 -32724914.41448 -25484593.30146  21471818.8284                   21471815.8284
 11  8  2  0 10  0.0000000  0  8G17G10G04G12G28G27G09G02
 -66994219.30647 -52188244.46546  21704081.4844                   21704078.9924
 -20705905.03847 -16119380.13945  22398058.3284                   22398057.5314
 -55849697.18648 -43480510.99246  19866963.3134                   19866961.1884
  -4550983.64247  -3532079.90944  23975763.8204                   23975762.0274
 -80553877.49847 -62754798.95044  22401349.5474                   22401347.6024
 -39442004.37147 -30719484.09745  22376206.2814                   22376205.3634
 -28345080.37647 -22071834.36745  22008044.6724                   22008042.7734
 -32867662.06148 -25595825.22146  21444655.0704                   21444651.3834
 11  8  2  0 10 30.0000000  0  8G17G10G04G12G28G27G09G02
 -67041478.42748 -52225069.76146  21695088.5164                   21695085.6844
 -20873036.47547 -16249612.36145  22366254.5944                   22366253.9774
 -55912760.06648 -43529650.89146  19854962.7344                   19854960.7814
  -4730466.38746  -3671936.52644  23941609.4224                   23941606.9694
 -80565422.16447 -62763794.84845  22399152.6884                   22399150.6134
 -39507831.18147 -30770777.75545  22363680.5864                   22363678.2664
 -28418842.50847 -22129311.36845  21994007.6954                   21994006.7154
 -33009976.95148 -25706719.90646  21417573.2814                   21417569.6214
 11  8  2  0 11  0.0000000  0  8G17G10G04G12G28G27G09G02
 -67088569.52347 -52261764.14046  21686127.0234                   21686125.1054
 -21039834.44547 -16379584.77545  22334514.1724                   22334513.0784
 -55975223.72348 -43578323.86946  19843076.1334                   19843074.3244
  -4909827.49946  -3811698.38244  23907477.1174                   23907476.2424
 -80576527.48447 -62772448.38444  22397039.7034                   22397037.2234
 -39573118.56447 -30821651.07245  22351256.0004                   22351254.9144
 -28491899.41947 -22186238.85645  21980105.6414                   21980104.0744
 -33151851.28747 -25817271.30946  21390575.7734                   21390572.4614
 11  8  2  0 11 30.0000000  0  8G17G10G04G12G28G27G09G02
 -67135495.24147 -52298329.64546  21677197.3754                   21677195.0704
 -21206298.86547 -16509297.26445  22302836.8444                   22302836.6954
 -56037093.07348 -43626533.74947  19831302.5554                   19831300.5664
  -5089067.89247  -3951366.17344  23873369.1484                   23873367.4144
 -80587197.38347 -62780762.65044  22395008.9454                   22395006.9104
 -39637870.87647 -30872107.43345  22338934.0554                   22338933.0704
 -28564255.02147 -22242619.83845  21966337.1484                   21966335.4574
 -33293287.29748 -25927481.15746  21363661.1024                   21363657.1684
 11  8  2  0 12  0.0000000  0  8G17G10G04G12G28G27G09G02
 -67182258.95347 -52334768.88746  21668298.5634                   21668296.4344
 -21372429.80847 -16638749.88545  22271223.6644                   22271222.9024
 -56098372.81048 -43674284.18346  19819641.6484                   19819639.9654
  -5268189.17446  -4090941.13744  23839283.1884                   23839282.8794
 -80597436.16447 -62788740.95844  22393061.2194                   22393058.6604
 -39702092.66347 -30922150.41245  22326713.4144                   22326712.4694
 -28635913.78347 -22298457.86045  21952700.1254                   21952699.3914
 -33434287.91447 -26037351.71946  21336829.6414                   21336825.5554
 11  8  2  0 12 30.0000000  0  8G17G10G04G12G28G27G09G02
 -65653436.64047 -51143478.78646  21959223.6564                   21959221.8674
 -19962795.78247 -15540333.71645  22539467.4144                   22539466.6294
 -54583640.05948 -42493972.94546  20107885.5164                   20107883.5984
  -3871760.58746  -3002814.89344  24105014.9304                   24105013.6804
 -79031821.60147 -61568781.63244  22690987.4144                   22690986.0044
 -38190360.36947 -29744177.24845  22614386.5704                   22614385.2854
 -27131452.37747 -21126150.29945  22238990.1334                   22238988.7194
 -31999425.10748 -24919276.78146  21609874.9694                   21609871.2704
 11  8  2  0 13  0.0000000  0  8G17G10G04G12G28G27G09G02
 -65699877.61847 -51179666.55946  21950386.3204                   21950384.3834
 -20128250.83147 -15669259.66145  22507982.6564                   22507981.7464
 -54643746.93448 -42540809.46546  20096447.5554                   20096445.5314
  -4050638.52346  -3142200.21744  24070975.8984                   24070973.8164
 -79041201.66647 -61576090.79844  22689202.0084                   22689199.9574
 -38253526.35347 -29793397.50745  22602366.1484                   22602365.1644
 -27201722.95347 -21180906.60145  22225617.9694                   22225616.3204
 -32139554.10048 -25028468.16346  21583209.5784                   21583206.1564
 11  8  2  0 13 30.0000000  0  8G17G10G04G12G28G27G09G02
 -65746155.73747 -51215727.45346  21941580.2274                   21941577.9344
 -20293361.83747 -15797917.52745  22476563.2034                   22476561.8204
 -54703268.49348 -42587189.90047  20085121.0004                   20085119.0234
  -4229390.69546  -3281487.57644  24036959.8134                   24036957.7934
 -79050152.44547 -61583065.50244  22687499.2734                   22687496.5634
 -38316165.03847 -29842206.90045  22590446.8674                   22590445.2974
 -27271299.97347 -21235122.48045  22212377.7734                   22212376.5204
 -32279245.12148 -25137318.26346  21556626.8984                   21556623.7114
 11  8  2  0 14  0.0000000  0  8G17G10G04G12G28G27G09G02
 -65792270.28947 -51251660.90946  21932804.6094                   21932802.9614
 -20458125.13247 -15926304.46545  22445209.6414                   22445207.8324
 -54762206.30848 -42633115.47546  20073905.8444                   20073903.6094
  -4408014.38246  -3420674.81944  24002969.3524                   24002968.0354
 -79058674.19647 -61589705.88644  22685877.1024                   22685875.0744
 -38378277.65447 -29890606.36845  22578626.9924                   22578625.7774
 -27340184.72947 -21288798.92445  22199269.7664                   22199268.3404
 -32418497.77348 -25245826.77546  21530128.1724                   21530124.7544
 11  8  2  0 14 30.0000000  0  8G17G10G04G12G28G27G09G02
 -65838228.38247 -51287472.43546  21924058.9774                   21924057.3244
 -20622544.25447 -16054423.19245  22413921.4924                   22413920.7234
 -54820569.08748 -42678592.96746  20062799.5864                   20062797.6334
  -4586514.98546  -3559766.14344  23969001.7344                   23968998.8364
 -79066775.44047 -61596018.59644  22684336.0554                   22684334.1804
 -38439872.37447 -29938602.27845  22566905.5474                   22566904.5904
 -27408385.24847 -21341942.21745  22186291.5944                   22186290.2384
 -32557317.88948 -25353998.26946  21503711.3594                   21503707.2504
 11  8  2  0 15  0.0000000  0  8G17G10G04G12G28G27G09G02
 -65884025.18447 -51323158.26846  21915344.8914                   21915342.4574
 -20786611.39247 -16182267.65145  22382700.5864                   22382699.5554
 -54878353.55848 -42723619.82247  20051803.3444                   20051801.2974
  -4764886.01846  -3698756.52944  23935059.3204                   23935056.8444
 -79074452.47247 -61602000.74744  22682874.9304                   22682872.5744
 -38500945.90547 -29986192.05445  22555284.4614                   22555283.0594
 -27475898.10247 -21394549.64745  22173444.6334                   22173443.2584
 -32695700.40448 -25461828.75446  21477378.0004                   21477374.3014
 11  8  2  0 15 30.0000000  0  8G17G10G04G12G28G27G09G02
 -65929661.29747 -51358718.91246  21906660.0634                   21906658.2274
 -20950323.91247 -16309835.78545  22351546.9144                   22351545.8324
 -54935562.65248 -42768198.34846  20040917.0394                   20040914.9384
  -4943126.10347  -3837644.79744  23901141.1724                   23901139.1484
 -79081706.67847 -61607653.42344  22681494.5864                   22681492.2114
 -38561500.58147 -30033377.55545  22543761.1174                   22543760.0634
 -27542725.31647 -21446622.82445  22160727.8204                   22160726.1294
 -32833645.58548 -25569318.45446  21451127.9924                   21451124.2774
 11  8  2  0 16  0.0000000  0  8G17G10G04G12G28G27G09G02
 -65975133.79047 -51394152.04246  21898006.9144                   21898004.8014
 -21113675.88147 -16437122.99845  22320461.9774                   22320460.4694
 -54992195.12348 -42812327.54546  20030140.4454                   20030138.3524
  -5121229.90847  -3976426.97244  23867249.5394                   23867246.2344
 -79088536.06647 -61612975.08344  22680194.6334                   22680192.5864
 -38621534.97847 -30080157.61945  22532336.9144                   22532335.6884
 -27608865.54647 -21498160.67545  22148141.1334                   22148140.4614
 -32971150.39048 -25676465.02346  21424961.5634                   21424957.5904
 11  8  2  0 16 30.0000000  0  8G17G10G04G12G28G27G09G02
 -66020444.24347 -51429458.92146  21889384.6644                   21889382.8014
 -21276665.73647 -16564127.98745  22289446.1174                   22289444.7934
 -55048254.69048 -42856010.34146  20019472.3674                   20019470.3054
  -5299197.66547  -4115103.08544  23833383.0084                   23833380.5354
 -79094943.80647 -61617968.16544  22678975.7894                   22678974.5044
 -38681052.59447 -30126534.99245  22521011.4614                   22521010.2234
 -27674322.20447 -21549165.89445  22135685.1094                   22135684.2274
 -33108215.94748 -25783269.31346  21398879.0554                   21398874.9064
 11  8  2  0 17  0.0000000  0  8G17G10G04G12G28G27G09G02
 -66065593.50447 -51464640.18846  21880792.9304                   21880791.5314
 -21439291.12847 -16690849.01745  22258499.4924                   22258498.5234
 -55103744.02748 -42899248.77346  20008913.1024                   20008911.2504
  -5477028.29247  -4253672.38344  23799542.7974                   23799540.1174
 -79100931.49947 -61622633.95644  22677836.1884                   22677834.9184
 -38740055.82547 -30172511.55545  22509783.0864                   22509781.9304
 -27739097.79947 -21599640.40445  22123358.7814                   22123357.7854
 -33244842.51548 -25889731.53846  21372879.8594                   21372875.9964
 11  8  2  0 17 30.0000000  0  8G17G10G04G12G28G27G09G02
 -66110580.57447 -51499695.08646  21872232.4454                   21872230.4884
 -21601548.20347 -16817283.06045  22227623.0704                   22227621.6994
 -55158664.28548 -42942043.78746  19998462.3444                   19998460.4064
  -5654718.72847  -4392132.38444  23765728.8594                   23765726.6844
 -79106499.71447 -61626972.87344  22676777.1024                   22676775.7584
 -38798545.47347 -30218087.92245  22498653.0084                   22498651.6484
 -27803192.99747 -21649584.74345  22111162.4774                   22111161.3874
 -33381029.19347 -25995850.99046  21346964.5234                   21346960.2154
 11  8  2  0 18  0.0000000  0  8G17G10G04G12G28G27G09G02
 -66155406.76247 -51534624.60046  21863701.9304                   21863700.3914
 -21763434.72247 -16943428.31145  22196816.9454                   22196816.3754
 -55213018.78648 -42984397.94846  19988119.1094                   19988117.0744
  -5832268.35947  -4530482.74344  23731942.1804                   23731939.6094
 -79111650.92747 -61630986.89144  22675796.6254                   22675795.4804
 -38856524.36047 -30263266.30445  22487619.8754                   22487618.4884
 -27866610.57647 -21699001.07145  22099094.3364                   22099093.4804
 -33516777.01848 -26101628.47646  21321132.1564                   21321127.9654
 11  8  2  0 18 30.0000000  0  8G17G10G04G12G28G27G09G02
 -66200071.53647 -51569428.34846  21855202.4844                   21855200.9654
 -21924947.17947 -17069282.10945  22166081.9534                   22166081.2074
 -55266808.85148 -43026312.28846  19977883.4064                   19977881.0904
  -6009675.09547  -4668721.69144  23698183.0164                   23698181.3204
 -79116385.79547 -61634676.46044  22674895.9534                   22674894.0704
 -38913993.46447 -30308047.46045  22476684.0704                   22476682.9654
 -27929351.71847 -21747890.29445  22087154.7194                   22087153.8874
 -33652085.00848 -26207063.24146  21295384.3914                   21295379.9454
 11  8  2  0 19  0.0000000  0  8G17G10G04G12G28G27G09G02
 -66244570.53147 -51604102.89146  21846735.3054                   21846732.9884
 -22086078.06347 -17194838.60545  22135420.1334                   22135418.6844
 -55320032.04748 -43067784.92146  19967755.0474                   19967752.7664
  -6186932.17747  -4806844.01244  23664451.9064                   23664450.3754
 -79120700.78847 -61638038.87845  22674074.8524                   22674072.9024
 -38970950.15447 -30352429.30445  22465845.5234                   22465844.0784
 -27991413.81047 -21796250.37945  22075344.8284                   22075343.6564
 -33786948.39248 -26312151.56246  21269720.2974                   21269716.6914
 11  8  2  0 19 30.0000000  0  8G17G10G04G12G28G27G09G02
 -66288906.45747 -51638650.37146  21838298.4384                   21838296.9264
 -22246827.67747 -17320097.99045  22104830.3524                   22104828.8984
 -55372693.53948 -43108819.84746  19957734.0704                   19957732.0704
  -6364041.16647  -4944850.97944  23630749.0474                   23630747.7584
 -79124600.55847 -61641077.73144  22673333.1254                   22673331.8324
 -39027399.55847 -30396415.88445  22455103.1024                   22455102.4844
 -28052801.83447 -21844085.23845  22063663.5704                   22063662.3054
 -33921370.33348 -26416895.89746  21244140.4844                   21244136.8134
 11  8  2  0 20  0.0000000  0  8G17G10G04G12G28G27G09G02
 -66333081.95047 -51673072.85046  21829891.8984                   21829889.9494
 -22407194.86347 -17445059.43845  22074312.9844                   22074312.2424
 -55424797.65748 -43149420.46246  19947819.0004                   19947816.6254
  -6541002.08547  -5082742.55944  23597074.4064                   23597073.5864
 -79128088.57747 -61643795.75944  22672669.1334                   22672667.5944
 -39083345.51947 -30440010.18645  22444457.1484                   22444456.5784
 -28113519.91947 -21891398.04945  22052108.9694                   22052107.1954
 -34055352.45748 -26521297.51946  21218645.1644                   21218641.2074
 11  8  2  0 20 30.0000000  0  8G17G10G04G12G28G27G09G02
 -66377092.57647 -51707366.86446  21821517.2194                   21821514.9304
 -22567172.39747 -17569717.16645  22043870.6804                   22043869.6644
 -55476342.03848 -43189584.90446  19938010.0634                   19938008.1024
  -6717808.60647  -5220513.81844  23563429.9774                   23563427.4224
 -79131161.71447 -61646190.46244  22672084.1804                   22672082.1914
 -39138785.46947 -30483210.16045  22433907.6724                   22433906.2384
 -28173565.26247 -21938186.64845  22040683.0234                   22040681.9024
 -34188890.35248 -26625352.97546  21193233.0164                   21193229.1914
 11  8  2  0 21  0.0000000  0  8G17G10G04G12G28G27G09G02
 -66420936.88147 -51741531.25546  21813173.4304                   21813172.1374
 -22726755.77347 -17694067.80645  22013502.6334                   22013501.0594
 -55527327.64348 -43229313.95546  19928307.9924                   19928306.3134
  -6894457.68647  -5358162.37744  23529814.1414                   23529813.3204
 -79133820.05947 -61648261.94944  22671579.0704                   22671576.3204
 -39193720.00847 -30526016.32245  22423453.6024                   22423452.8014
 -28232938.80547 -21984451.76145  22029384.0704                   22029382.8204
 -34321982.68948 -26729061.26946  21167906.9534                   21167902.5944
 11  8  2  0 21 30.0000000  0  8G17G10G04G12G28G27G09G02
 -66464620.74947 -51775570.63846  21804860.9454                   21804858.8714
 -22885947.67847 -17818113.38645  21983209.6094                   21983207.9024
 -55577762.29048 -43268613.69046  19918710.7584                   19918708.2624
  -7070952.93647  -5495691.08344  23496228.2274                   23496226.7424
 -79136070.58947 -61650015.63844  22671150.2274                   22671148.6844
 -39248156.59447 -30568434.47345  22413095.2664                   22413093.9304
 -28291647.70747 -22030198.97045  22018212.3674                   22018211.0204
 -34454635.18248 -26832426.79646  21142663.0944                   21142659.6524
 11  8  2  0 22  0.0000000  0  8G17G10G04G12G28G27G09G02
 -64932717.52047 -50581879.82046  22096372.1724                   22096370.4654
 -21469314.85847 -16714243.61445  22252785.7274                   22252784.5744
 -54052221.35548 -42079880.48346  20209011.7504                   20209009.9924
  -5671861.63447  -4405490.02144  23762466.4064                   23762465.3554
 -77562489.43847 -60423848.57144  22970593.2664                   22970590.7664
 -37726670.19547 -29382860.70345  22702623.8984                   22702623.2344
 -26774267.04147 -20847824.44545  22306960.0704                   22306958.9734
 -33011418.03948 -25707841.97246  21417298.8284                   21417294.6484
 11  8  2  0 22 30.0000000  0  8G17G10G04G12G28G27G09G02
 -64976069.15947 -50615660.32946  22088122.6094                   22088120.4024
 -21627704.05747 -16837663.72445  22222644.9924                   22222644.4384
 -54101549.34448 -42118317.89246  20199624.6024                   20199622.5784
  -5848032.77647  -4542766.17944  23728942.1884                   23728940.1414
 -77563916.88247 -60424960.89444  22970321.4384                   22970319.5044
 -37780105.56947 -29424498.69145  22692455.4614                   22692454.3674
 -26831642.06247 -20892532.27745  22296042.8364                   22296040.7464
 -33143178.85848 -25810512.71246  21392225.3834                   21392221.5204
 11  8  2  0 23  0.0000000  0  8G17G10G04G12G28G27G09G02
 -65019257.32647 -50649313.45746  22079904.6724                   22079902.5314
 -21785690.14347 -16960769.72545  22192581.2114                   22192579.9414
 -54150330.22848 -42156328.97646  20190342.1724                   20190340.3404
  -6024041.92847  -4679916.12944  23695449.5084                   23695447.3834
 -77564938.32447 -60425756.87844  22970126.6414                   22970124.1604
 -37833046.11547 -29465751.09845  22682381.6414                   22682380.4804
 -26888355.81247 -20936724.82145  22285250.5784                   22285249.2074
 -33274496.54048 -25912838.14846  21367236.2664                   21367232.4344
 11  8  2  0 23 30.0000000  0  8G17G10G04G12G28G27G09G02
 -65062279.06847 -50682836.90446  22071717.3754                   22071715.3674
 -21943267.07147 -17083556.90345  22162595.5164                   22162593.9184
 -54198563.08448 -42193913.02046  20181163.6564                   20181161.7624
  -6199883.81347  -4816935.71044  23661987.4144                   23661985.5044
 -77565552.03747 -60426235.11444  22970009.7114                   22970008.7234
 -37885490.65747 -29506617.01145  22672401.6334                   22672400.4414
 -26944407.24247 -20980401.27045  22274583.9064                   22274582.2704
 -33405367.77048 -26014815.69146  21342332.4774                   21342328.4924
 11  8  2  0 24  0.0000000  0  8G17G10G04G12G28G27G09G02
 -65105139.13948 -50716234.38346  22063561.7344                   22063559.3444
 -22100436.50547 -17206026.55645  22132687.1644                   22132685.6914
 -54246254.86248 -42231075.43746  20172088.3834                   20172086.2424
  -6375561.08447  -4953827.04844  23628556.9844                   23628554.7854
 -77565763.38147 -60426399.84644  22969969.9224                   22969967.8164
 -37937445.83447 -29547101.61245  22662514.8754                   22662513.3164
 -26999803.27747 -21023567.01845  22264042.1414                   22264040.8204
 -33535797.53848 -26116449.24646  21317512.5004                   21317508.3134
 11  8  2  0 24 30.0000000  0  8G17G10G04G12G28G27G09G02
 -65147837.42248 -50749505.78745  22055436.5554                   22055434.4414
 -22257195.14247 -17328176.11645  22102856.7974                   22102855.7774
 -54293407.51948 -42267817.76846  20163115.2504                   20163112.9184
  -6551071.66647  -5090588.50044  23595158.3594                   23595156.4184
 -77565574.29547 -60426252.57444  22970005.4144                   22970003.6254
 -37988913.42747 -29587206.26045  22652720.9144                   22652720.4344
 -27054545.73747 -21066223.49745  22253625.0864                   22253623.4384
 -33665785.54048 -26217738.56346  21292776.8364                   21292772.1914
 11  8  2  0 25  0.0000000  0  8G17G10G04G12G28G27G09G02
 -65190373.05848 -50782650.46745  22047342.4534                   22047339.5434
 -22413539.36347 -17450002.73145  22073105.3754                   22073103.4264
 -54340022.53948 -42304141.17546  20154244.4224                   20154242.6764
  -6726413.22047  -5227218.26044  23561791.8914                   23561789.6094
 -77564985.14247 -60425793.56944  22970117.9534                   22970116.3324
 -38039894.64447 -29626931.92145  22643019.2274                   22643018.4654
 -27108636.19747 -21108371.92945  22243331.9614                   22243331.2774
 -33795330.84148 -26318682.92746  21268124.7274                   21268121.0084
 11  8  2  0 25 30.0000000  0  8G17G10G04G12G28G27G09G02
 -65232747.00548 -50815669.15746  22039278.8054                   22039276.5434
 -22569467.03147 -17571504.78345  22043433.8054                   22043431.8484
 -54386103.30348 -42340048.26046  20145476.1254                   20145473.8754
  -6901584.74247  -5363715.51544  23528457.3834                   23528456.0594
 -77563998.63947 -60425024.91944  22970306.1254                   22970304.4264
 -38090392.48447 -29666280.94345  22633410.5084                   22633409.6804
 -27162077.44547 -21150014.47345  22233162.8674                   22233161.6604
 -33924434.49448 -26419283.15446  21243557.1254                   21243553.0984
 11  8  2  0 26  0.0000000  0  8G17G10G04G12G28G27G09G02
 -65274956.55048 -50848559.74045  22031247.1564                   22031244.4924
 -22724973.39047 -17692678.53945  22013841.7034                   22013840.2504
 -54431649.82248 -42375539.05146  20136808.8754                   20136806.4964
  -7076581.95147  -5500076.93544  23495156.4144                   23495155.1054
 -77562613.99447 -60423946.02644  22970569.4304                   22970568.1644
 -38140406.75447 -29705253.11645  22623892.8284                   22623892.0824
 -27214869.59447 -21191151.22645  22223117.2424                   22223115.4804
 -34053094.23148 -26519537.46846  21219074.2814                   21219069.8954
 11  8  2  0 26 30.0000000  0  9G17G10G04G12G28G27G05G09G02
 -65317007.91447 -50881327.06245  22023244.1254                   22023241.8554
 -22880060.94447 -17813525.93145  21984329.5004                   21984327.6414
 -54476669.86348 -42410619.60846  20128241.4924                   20128239.7234
  -7251408.19347  -5636305.14544  23461888.7114                   23461886.7894
 -77560838.02047 -60422562.22344  22970907.6644                   22970906.0204
 -38189944.99447 -29743854.38445  22614466.3284                   22614465.5784
   4455290.66956   3487800.49753  24683463.7034                   24683466.5204
 -27267020.65647 -21231788.43245  22213192.3914                   22213191.2504
 -34181315.64948 -26619450.24046  21194674.4924                   21194670.4694
 11  8  2  0 27  0.0000000  0  9G17G10G04G12G28G27G05G09G02
 -65358910.58947 -50913978.51545  22015270.8754                   22015269.0084
 -23034736.23947 -17934052.10445  21954895.4384                   21954893.8834
 -54521175.47548 -42445299.31346  20119772.3444                   20119770.1254
  -7426071.59747  -5772406.46444  23428651.5394                   23428649.2424
 -77558682.21447 -60420882.42944  22971318.2034                   22971316.6884
 -38239019.28847 -29782094.15545  22605127.4384                   22605126.6564
   4270647.23446   3343922.80044  24648327.4614                   24648330.6604
 -27318542.79447 -21271935.57045  22203388.4224                   22203387.0984
 -34309108.47048 -26719029.03746  21170355.7424                   21170352.3554
 11  8  2  0 27 30.0000000  0  9G17G10G04G12G28G27G05G09G02
 -65400673.64948 -50946521.18545  22007323.8134                   22007321.5554
 -23189005.83047 -18054262.13145  21925538.7114                   21925537.8874
 -54565178.37148 -42479587.27546  20111398.8284                   20111396.6564
  -7600578.92947  -5908386.17444  23395443.1024                   23395440.9144
 -77556157.21247 -60418914.97044  22971798.8134                   22971797.3324
 -38287640.72447 -29819981.00545  22595875.4304                   22595874.4534
   4085966.57846   3200016.07144  24613184.4844                   24613187.3244
 -27369446.94947 -21311601.16745  22193701.7424                   22193700.0864
 -34436482.09348 -26818281.18446  21146117.8914                   21146113.5944
 11  8  2  0 28  0.0000000  0  9G17G10G04G12G28G27G05G09G02
 -65442293.80948 -50978952.49345  21999403.6954                   21999401.3594
 -23342863.35747 -18174151.05645  21896260.7274                   21896259.5004
 -54608677.44648 -42513482.66046  20103121.3204                   20103119.3134
  -7774925.40947  -6044240.54144  23362266.3204                   23362264.6644
 -77553261.43447 -60416658.59144  22972349.4534                   22972348.1214
 -38335808.34347 -29857514.24145  22586709.2584                   22586708.5434
   3901253.53447   3056084.09244  24578034.0554                   24578037.5314
 -27419732.35547 -21350784.62045  22184132.4224                   22184131.1954
 -34563433.41648 -26917204.27846  21121959.6644                   21121956.0554
 11  8  2  0 28 30.0000000  0  9G17G10G04G12G28G27G05G09G02
 -65483765.92647 -51011268.46045  21991511.5474                   21991509.2774
 -23496300.97447 -18293712.79545  21867062.7114                   21867061.6954
 -54651670.01448 -42546983.36246  20094939.8914                   20094937.5354
  -7949103.84347  -6179963.96944  23329121.6254                   23329119.1684
 -77549991.81547 -60414110.90944  22972971.5944                   22972969.6054
 -38383518.95447 -29894691.37645  22577630.3364                   22577629.4614
   3716515.63747   2912132.73145  24542879.9534                   24542882.5314
 -27469396.05447 -21389483.64145  22174681.7034                   22174680.3364
 -34689957.27748 -27015794.28346  21097882.8674                   21097879.0234
 11  8  2  0 29  0.0000000  0  9G17G10G04G12G28G27G05G09G02
 -65525090.34948 -51043469.33245  21983647.6644                   21983645.7624
 -23649316.07847 -18412945.29845  21837944.8284                   21837943.5904
 -54694158.59548 -42580091.34146  20086854.6564                   20086852.6294
  -8123112.26747  -6315554.89044  23296008.6024                   23296006.3714
 -77546349.33047 -60411272.67144  22973664.3444                   22973663.2734
 -38430775.02447 -29931514.30045  22568637.1484                   22568636.6604
   3531755.30347   2768163.88545  24507720.7344                   24507723.6804
 -27518440.90447 -21427700.43245  22165348.6024                   22165347.4414
 -34816054.08548 -27114051.50846  21073887.6564                   21073883.9654
 11  8  2  0 29 30.0000000  0  9G17G10G04G12G28G27G05G09G02
 -65566256.84648 -51075547.14845  21975814.0944                   21975811.9224
 -23801895.67648 -18531838.44245  21808909.8914                   21808908.6684
 -54736135.75348 -42612800.80746  20078866.9304                   20078864.6804
  -8296938.88247  -6451004.17344  23262930.6334                   23262928.1844
 -77542325.86847 -60408137.60144  22974430.1644                   22974428.8054
 -38477568.68847 -29967976.92045  22559733.0004                   22559732.0314
   3346984.67646   2624186.98844  24472559.4384                   24472562.7544
 -27566859.01047 -21465428.86045  22156135.4064                   22156134.3054
 -34941713.64048 -27211968.01346  21049975.4844                   21049971.6374
 11  8  2  0 30  0.0000000  0  9G17G10G04G12G28G27G05G09G02
 -65607269.87848 -51107505.36545  21968009.8134                   21968007.1214
 -23954041.48847 -18650393.59245  21779957.3134                   21779955.9804
 -54777608.12048 -42645116.94646  20070975.0474                   20070972.7814
  -8470586.11347  -6586313.64244  23229886.1644                   23229884.1644
 -77537927.43447 -60404710.32143  22975267.3204                   22975265.8244
 -38523906.94547 -30004084.69545  22550915.3594                   22550914.4264
   3162201.28646   2480200.18244  24437396.4924                   24437399.6094
 -27614657.30047 -21502674.31245  22147040.4694                   22147038.2974
 -35066940.63248 -27309547.47446  21026145.4924                   21026141.6644
 11  8  2  0 30 30.0000000  0  9G17G10G04G12G28G27G05G09G02
 -65648124.70348 -51139340.31145  21960234.8284                   21960233.8094
 -24105745.71847 -18768604.64045  21751089.0234                   21751088.0084
 -54818573.52648 -42677038.04946  20063179.3984                   20063177.3714
  -8644047.18147  -6721478.08044  23196877.9304                   23196875.9494
 -77533151.08847 -60400988.55243  22976176.5004                   22976175.7154
 -38569787.04547 -30039835.44945  22542184.7974                   22542184.4304
   2977412.58846   2336209.24844  24402232.3754                   24402235.5594
 -27661833.56347 -21539435.05345  22138062.8524                   22138061.2774
 -35191730.73748 -27406786.49346  21002398.4614                   21002394.8324
 11  8  2  0 31  0.0000000  0  9G17G10G04G12G28G27G05G09G02
 -65688822.76247 -51171053.10545  21952490.4534                   21952488.5434
 -24257007.10247 -18886470.59045  21722304.5084                   21722303.8874
 -54859036.02448 -42708567.26446  20055479.5234                   20055477.6564
  -8817321.61147  -6856497.07544  23163904.7274                   23163903.5084
 -77528000.13947 -60396974.89444  22977156.7274                   22977155.6024
 -38615212.95547 -30075232.28045  22533540.6804                   22533539.8914
   2792619.14846   2192214.62043  24367066.9224                   24367068.5984
 -27708391.62447 -21575714.08645  22129202.5864                   22129201.3054
 -35316085.68148 -27503686.42946  20978735.0784                   20978730.6764
 11  8  2  0 31 30.0000000  0  9G17G10G04G12G28G27G05G09G02
 -65729361.27648 -51202641.58145  21944776.5634                   21944774.4414
 -24407820.45547 -19003987.44945  21693606.1174                   21693604.7624
 -54898994.83148 -42739704.01046  20047876.1644                   20047873.8054
  -8990404.53447  -6991366.82944  23130967.6954                   23130965.2034
 -77522473.26247 -60392668.34844  22978208.7974                   22978206.9804
 -38660183.89347 -30110274.58845  22524982.8754                   22524981.9654
   2607825.96646   2048220.20643  24331901.2814                   24331902.2584
 -27754331.51347 -21611511.44345  22120460.4614                   22120459.5784
 -35440002.82148 -27600245.21646  20955154.5164                   20955150.0314
 11  8  2  0 32  0.0000000  0  9G17G10G04G12G28G27G05G09G02
 -64194315.83947 -50006502.29345  22236886.0864                   22236883.5274
 -22982754.58447 -17893546.45345  21964786.7584                   21964785.7934
 -53363028.35648 -41542847.02046  20340160.4384                   20340158.3794
  -7587865.50547  -5898479.22244  23397862.4774                   23397859.4224
 -75941149.40347 -59160468.02144  23279124.2034                   23279123.8014
 -37129277.70247 -28917360.67845  22816304.3594                   22816303.4734
   3998464.62146   3131834.93442  24596531.1644                   24596530.8204
 -26224230.96547 -20419225.33145  22411629.3134                   22411628.1254
 -33988055.25948 -26468857.48646  21231450.3984                   21231446.6644
 11  8  2  0 32 30.0000000  0  9G17G10G04G12G28G27G05G09G02
 -64234527.50147 -50037836.06645  22229233.7344                   22229230.9884
 -23132655.28347 -18010352.14345  21936261.3134                   21936260.0434
 -53401980.19448 -41573199.10446  20332748.0234                   20332745.9024
  -7760552.53247  -6033040.52845  23365001.1644                   23364999.2034
 -75934868.37447 -59155573.76644  23280319.9224                   23280318.1134
 -37173338.00347 -28951693.40245  22807920.2894                   22807919.0514
   3813686.51246   2987852.33443  24561369.9534                   24561368.2304
 -26268934.08047 -20454058.96045  22403122.4144                   22403120.7704
 -34111089.54648 -26564728.34946  21208037.6954                   21208033.6294
 11  8  2  0 33  0.0000000  0  9G17G10G04G12G28G27G05G09G02
 -64274575.76048 -50069042.52545  22221612.9064                   22221611.2424
 -23282095.67947 -18126799.16245  21907824.3524                   21907822.4454
 -53440432.39548 -41603161.85946  20325431.2114                   20325428.8554
  -7933038.46047  -6167445.06445  23332178.2424                   23332176.3014
 -75928213.07047 -59150387.91944  23281586.2814                   23281585.5354
 -37216946.56147 -28985674.13045  22799621.3284                   22799620.9884
   3628919.39546   2843878.13943  24526209.7344                   24526207.8874
 -26313023.05447 -20488414.02745  22394732.1484                   22394731.4264
 -34233682.98848 -26660255.69546  21184708.4774                   21184705.0354
 11  8  2  0 33 30.0000000  0  9G17G10G04G12G28G27G05G09G02
 -64314458.47847 -50100119.97245  22214023.3914                   22214021.3094
 -23431070.78847 -18242883.61545  21879475.0864                   21879473.3164
 -53478385.28148 -41632735.55646  20318208.7114                   20318206.6374
  -8105318.95847  -6301689.57645  23299394.3204                   23299391.8134
 -75921182.96647 -59144909.98044  23282923.9454                   23282923.7624
 -37260103.53047 -29019302.96045  22791409.2034                   22791408.9414
   3444167.63047   2699915.86443  24491052.0004                   24491051.7384
 -26356497.96747 -20522290.62045  22386459.4384                   22386458.8484
 -34355833.53248 -26755437.91546  21161464.5234                   21161459.8834
 11  8  2  0 34  0.0000000  0  9G17G10G04G12G28G27G05G09G02
 -64354177.57547 -50131069.91545  22206465.1644                   22206462.9924
 -23579579.87148 -18358604.92845  21851214.8134                   21851212.7704
 -53515843.26648 -41661923.60646  20311080.8134                   20311078.7664
  -8277393.98447  -6435773.96644  23266649.4384                   23266647.0204
 -75913781.64147 -59139142.82344  23284332.5704                   23284331.9384
 -37302813.12647 -29052583.18445  22783281.7114                   22783281.3404
   3259431.61047   2555965.94144  24455897.4384                   24455898.7384
 -26399363.50047 -20555692.34245  22378302.7274                   22378301.3364
 -34477543.54848 -26850276.87246  21138303.8594                   21138299.9454
 11  8  2  0 34 30.0000000  0  9G17G10G04G12G28G27G05G09G02
 -64393731.37247 -50161891.08545  22198938.6724                   22198936.3954
 -23727618.74547 -18473959.84645  21823044.2664                   21823042.5274
 -53552807.35448 -41690726.80146  20304047.1564                   20304045.1134
  -8449260.57747  -6569695.93645  23233944.2424                   23233942.0044
 -75906009.68547 -59133086.81644  23285812.1094                   23285810.3244
 -37345076.41447 -29085515.65445  22775239.2194                   22775238.7664
   3074714.90547   2412031.06044  24420746.8594                   24420747.7584
 -26441620.95447 -20588620.27045  22370261.3834                   22370260.3364
 -34598811.99148 -26944771.74246  21115227.4064                   21115222.9844
 11  8  2  0 35  0.0000000  0  9G17G10G04G12G28G27G05G09G02
 -64433117.00047 -50192581.17645  22191443.6414                   22191441.5044
 -23875181.56747 -18588943.82145  21794963.5634                   21794962.5824
 -53589277.03648 -41719144.73746  20297107.0474                   20297104.8914
  -8620913.44947  -6703451.37045  23201279.8054                   23201277.5234
 -75897865.62047 -59126740.89544  23287361.2504                   23287360.2854
 -37386892.68947 -29118099.79045  22767281.9384                   22767281.1024
   2890023.09446   2268115.61044  24385601.7034                   24385602.0274
 -26483270.07747 -20621074.15945  22362335.7974                   22362333.8364
 -34719635.89148 -27038920.20546  21092234.9064                   21092231.4184
 11  8  2  0 35 30.0000000  0  9G17G10G04G12G28G27G05G09G02
 -64472336.42447 -50223141.78145  22183980.4614                   22183978.5594
 -24022267.48447 -18703556.18145  21766973.8444                   21766972.7814
 -53625256.94748 -41747181.04046  20290260.1414                   20290257.8634
  -8792352.30747  -6837040.04745  23168656.5704                   23168654.7584
 -75889353.33747 -59120108.04943  23288980.4384                   23288980.0824
 -37428266.24247 -29150338.95844  22759409.1884                   22759408.2704
   2705356.31346   2124219.63844  24350459.9694                   24350461.1294
 -26524315.47446 -20653057.59145  22354525.3674                   22354523.9534
 -34840017.75748 -27132724.23546  21069327.4384                   21069323.2234
 11  8  2  0 36  0.0000000  0  9G17G10G04G12G28G27G05G09G02
 -64511386.12747 -50253570.13045  22176549.4064                   22176548.0164
 -24168870.87347 -18817792.56745  21739076.0784                   21739074.5204
 -53660746.39448 -41774835.16246  20283506.4384                   20283504.9654
  -8963572.10647  -6970458.05345  23136073.9304                   23136071.6374
 -75880471.22947 -59113187.01644  23290671.6644                   23290670.3284
 -37469196.49147 -29182232.66945  22751620.2974                   22751619.7154
   2520720.62846   1980347.84144  24315324.9534                   24315325.6644
 -26564756.47446 -20684570.10445  22346828.8984                   22346828.6374
 -34959954.61148 -27226181.50646  21046504.2814                   21046500.5204
 11  8  2  0 36 30.0000000  0  9G17G10G04G12G28G27G05G09G02
 -64550270.58447 -50283869.73245  22169150.1644                   22169147.4924
 -24314993.39447 -18931654.23045  21711270.7504                   21711268.4224
 -53695752.33848 -41802112.52046  20276845.3674                   20276843.3134
  -9134575.19547  -7103707.18845  23103533.0004                   23103530.8204
 -75871226.05247 -59105983.06843  23292431.0944                   23292429.6374
 -37509690.16947 -29213786.23445  22743915.1174                   22743913.8834
   2336113.06746   1836497.99344  24280195.1254                   24280195.5554
 -26604600.19347 -20715617.18045  22339247.2974                   22339245.7274
 -35079451.18148 -27319295.68946  21023764.6024                   21023760.4494
 11  8  2  0 37  0.0000000  0  9G17G10G04G12G28G27G05G09G02
 -64588987.88147 -50314039.06345  22161782.4774                   22161780.4774
 -24460630.61348 -19045137.75345  21683556.1094                   21683554.6724
 -53730275.62948 -41829013.79746  20270275.6024                   20270273.4144
  -9305357.93947  -7236784.61345  23071034.2584                   23071031.6174
 -75861617.71047 -59098496.09444  23294259.8984                   23294257.2624
 -37549748.11347 -29245000.24345  22736291.4064                   22736291.3594
   2151538.12546   1692673.56743  24245070.9304                   24245071.5784
 -26643847.84547 -20746199.78145  22331779.0944                   22331777.8874
 -35198506.07648 -27412065.71046  21001109.0554                   21001104.9774
 11  8  2  0 37 30.0000000  0  9G17G10G04G12G28G27G05G09G02
 -64627531.79347 -50344073.29145  22154447.6644                   22154445.7234
 -24605773.46148 -19158236.04645  21655936.5704                   21655934.9574
 -53764312.39748 -41855535.95546  20263798.8984                   20263796.6214
  -9475911.79347  -7369683.70945  23038578.9844                   23038576.0864
 -75851641.53847 -59090722.52643  23296158.3914                   23296155.4534
 -37589366.48747 -29275871.76745  22728752.5084                   22728751.5004
   1967004.97246   1548881.70144  24209955.0634                   24209955.8094
 -26682495.86647 -20776315.15545  22324424.4304                   22324422.7384
 -35317113.58648 -27504487.10646  20978539.2974                   20978534.3954
 11  8  2  0 38  0.0000000  0  9G17G10G04G12G28G27G05G09G02
 -64665900.19447 -50373970.77045  22147146.1414                   22147144.4304
 -24750417.23447 -19270945.45045  21628411.7424                   21628410.2384
 -53797863.00648 -41881679.28746  20257414.3204                   20257412.2814
  -9646232.20047  -7502400.87145  23006168.4304                   23006166.3134
 -75841297.20846 -59082662.06443  23298126.9694                   23298123.8834
 -37628545.40347 -29306400.79745  22721297.4844                   22721296.2034
   1782517.53146   1405125.44143  24174848.6884                   24174849.3164
 -26720544.89447 -20805963.76445  22317183.6954                   22317183.0434
 -35435271.57348 -27596558.24946  20956053.9924                   20956050.0824
 11  8  2  0 38 30.0000000  0  9G17G10G04G12G28G27G05G09G02
 -64704098.87547 -50403735.99745  22139877.3444                   22139875.4144
 -24894565.52347 -19383268.75945  21600981.4304                   21600979.5434
 -53830936.42948 -41907450.79446  20251120.6024                   20251118.7894
  -9816323.83447  -7634939.80745  22973801.0704                   22973798.7704
 -75830593.17246 -59074321.31643  23300162.8204                   23300161.2814
 -37667293.54647 -29336594.20045  22713924.1254                   22713923.2274
   1598071.82746   1261401.65744  24139750.4144                   24139749.8054
 -26758003.68647 -20835152.47245  22310056.2034                   22310055.1524
 -35552986.79548 -27688284.36546  20933653.7504                   20933649.4924
 11  8  2  0 39  0.0000000  0  9G17G10G04G12G28G27G05G09G02
 -64742126.97847 -50433368.30645  22132640.9694                   22132639.1804
 -25038214.54747 -19495203.02945  21573645.5394                   21573643.7304
 -53863534.08648 -41932851.57246  20244917.8674                   20244915.8674
  -9986183.60747  -7767298.03845  22941477.3674                   22941475.3954
 -75819529.94846 -59065700.68643  23302268.6804                   23302267.0904
 -37705612.39447 -29366453.09545  22706632.1174                   22706631.7774
   1413671.44146   1117713.21543  24104659.4224                   24104660.1334
 -26794874.29446 -20863882.83145  22303039.7034                   22303038.2304
 -35670258.63748 -27779664.99046  20911337.6884                   20911333.4734
 11  8  2  0 39 30.0000000  0  9G17G10G04G12G28G27G05G09G02
 -64779980.56347 -50462864.64145  22125437.7814                   22125436.2304
 -25181358.34647 -19606743.61445  21546405.9924                   21546404.2304
 -53895655.07048 -41957880.90846  20238804.8054                   20238803.3634
 -10155805.70247  -7899471.07845  22909199.4694                   22909196.9924
 -75808106.16946 -59056799.15743  23304442.7504                   23304441.6684
 -37743501.04847 -29395976.75445  22699422.1334                   22699421.6334
   1229322.64646    974064.97543  24069578.9144                   24069579.6054
 -26831156.06447 -20892154.36745  22296135.2114                   22296133.8404
 -35787084.20148 -27870697.88046  20889106.4384                   20889102.3554
 11  8  2  0 40  0.0000000  0  9G17G10G04G12G28G27G05G09G02
 -64817655.94447 -50492222.10445  22118268.4614                   22118267.0004
 -25323990.48847 -19717885.52245  21519264.5784                   21519262.6524
 -53927298.13648 -41982537.85646  20232783.6094                   20232781.8594
 -10325184.12547  -8031454.24745  22876968.0234                   22876966.0354
 -75796319.68146 -59047614.94744  23306685.7664                   23306684.1414
 -37780958.27747 -29425164.24945  22692294.3674                   22692294.1644
   1045031.47546    830461.65843  24034509.4614                   24034510.1724
 -26866848.06647 -20919966.34745  22289343.5314                   22289342.1914
 -35903459.82648 -27961380.15646  20866960.8984                   20866956.4574
 11  8  2  0 40 30.0000000  0  9G17G10G04G12G28G27G05G09G02
 -64855159.15947 -50521445.39945  22111131.8524                   22111129.8404
 -25466114.00747 -19828631.08645  21492219.0704                   21492217.7234
 -53958471.81548 -42006829.03846  20226851.5004                   20226849.3054
 -10494322.80247  -8163250.59045  22844781.3914                   22844779.3594
 -75784178.40446 -59038154.32543  23308996.5084                   23308994.5554
 -37817992.49446 -29454022.12945  22685246.8594                   22685246.2194
    860794.08847    686900.19444  23999450.1024                   23999450.6134
 -26901959.39047 -20947325.85045  22282661.4924                   22282660.9734
 -36019392.04548 -28051716.92646  20844899.8364                   20844895.6724
 11  8  2  0 41  0.0000000  0  9G17G10G04G12G28G27G05G09G02
 -64892486.72647 -50550531.83345  22104028.7504                   22104026.4614
 -25607723.71447 -19938976.27545  21465271.4694                   21465270.2704
 -53989175.59948 -42030754.06446  20221008.8674                   20221006.9534
 -10663216.64747  -8294856.15145  22812642.2034                   22812640.1174
 -75771680.94846 -59028416.16743  23311374.6644                   23311374.0084
 -37854602.92047 -29482549.77445  22678280.9384                   22678279.9694
    676616.12647    543385.06043  23964401.8834                   23964401.6524
 -26936489.56647 -20974232.51145  22276091.2114                   22276090.2424
 -36134878.20148 -28141706.12346  20822923.1484                   20822919.1334
 11  8  2  0 41 30.0000000  0  9G17G10G04G12G28G27G05G09G02
 -64929631.66047 -50579475.94945  22096960.3204                   22096958.4774
 -25748810.04647 -20048913.65045  21438424.1644                   21438422.1524
 -54019405.24348 -42054309.64246  20215256.2274                   20215253.6294
 -10831856.23747  -8426263.57745  22780551.0634                   22780548.8874
 -75758822.79846 -59018396.89144  23313820.9304                   23313820.7774
 -37890785.36046 -29510743.90545  22671395.0784                   22671394.1844
    492507.15847    399923.66144  23929367.4384                   23929366.9064
 -26970434.44647 -21000683.07645  22269631.6644                   22269631.0354
 -36249911.65848 -28231342.55846  20801033.1644                   20801028.8984
 11  8  2  0 42  0.0000000  0  9G17G10G04G12G28G27G05G09G02
 -63391167.65247 -49380672.83745  22389720.3754                   22389717.9694
 -24313940.38947 -18930833.35545  21711470.1954                   21711468.2734
 -52473737.39848 -40849893.14046  20509387.2034                   20509385.4024
  -9424809.29247  -7329863.33445  23048303.2734                   23048301.3554
 -74170181.27446 -57780494.49243  23616129.2974                   23616128.5124
 -36351116.46547 -28311001.97345  22964384.2584                   22964382.8914
   1883900.36946   1484126.37544  24194140.6884                   24194140.5354
 -25428371.20447 -19799075.36845  22563076.6484                   22563075.4224
 -34789064.31048 -27093019.92646  21079022.9064                   21079019.1214
 11  8  2  0 42 30.0000000  0  9G17G10G04G12G28G27G05G09G02
 -63427944.79748 -49409330.37945  22382722.0004                   22382720.2114
 -24453969.32047 -19039946.78745  21684824.0474                   21684822.3484
 -52503024.16748 -40872714.00946  20503814.1724                   20503812.1884
  -9592932.40347  -7460868.29845  23016310.3594                   23016308.2774
 -74156604.89346 -57769915.61544  23618712.9064                   23618711.9534
 -36386448.42147 -28338533.38545  22957660.6954                   22957660.3164
   1699938.66746   1340779.72944  24159133.2664                   24159133.8094
 -25461152.57447 -19824619.33745  22556838.7734                   22556837.4264
 -34903191.83648 -27181950.44846  21057305.4064                   21057301.4224
 11  8  2  0 43  0.0000000  0  9G17G10G04G12G28G27G05G09G02
 -63464537.84247 -49437844.43845  22375758.3284                   22375756.6484
 -24593466.34347 -19148645.71345  21658277.9304                   21658276.2664
 -52531843.69548 -40895170.80346  20498329.6954                   20498328.1174
  -9760794.39547  -7591669.81745  22984367.3984                   22984365.9964
 -74142672.31146 -57759059.13643  23621364.4924                   23621363.8984
 -36421358.95947 -28365736.46445  22951017.5084                   22951017.2544
   1516054.10546   1197493.25244  24124141.1414                   24124142.2774
 -25493356.81947 -19849713.55745  22550710.6564                   22550709.1024
 -35016867.44448 -27270528.82046  21035673.5634                   21035669.1524
 11  8  2  0 43 30.0000000  0  9G17G10G04G12G28G27G05G09G02
 -63500949.86547 -49466217.46445  22368828.9534                   22368827.2424
 -24732431.58347 -19256930.27745  21631833.9454                   21631832.6484
 -52560201.76548 -40917268.00746  20492933.4534                   20492931.5554
  -9928396.09347  -7722268.51445  22952473.5394                   22952471.9144
 -74128388.89646 -57747929.26643  23624082.5474                   23624081.8094
 -36455853.94747 -28392615.72445  22944453.0474                   22944452.9804
   1332245.72047   1054266.13444  24089163.5554                   24089164.1214
 -25524990.06747 -19874362.88345  22544691.2344                   22544689.6604
 -35130094.74448 -27358757.86046  21014127.4304                   21014122.5984
 11  8  2  0 44  0.0000000  0  9G17G10G04G12G28G27G05G09G02
 -63537179.09347 -49494448.05145  22361935.1094                   22361933.3794
 -24870860.76447 -19364797.13645  21605491.8674                   21605490.4924
 -52588099.07448 -40939006.17546  20487624.7194                   20487622.9144
 -10095733.70047  -7852661.39145  22920630.9614                   22920628.3634
 -74113754.63946 -57736526.03443  23626867.0554                   23626866.6844
 -36489934.07647 -28419171.68845  22937968.9454                   22937967.8914
   1148518.04447    911101.88444  24054200.7734                   24054201.8484
 -25556053.42947 -19898568.12145  22538779.4774                   22538778.8404
 -35242872.19148 -27446636.36346  20992666.0944                   20992661.9844
 11  8  2  0 44 30.0000000  0  9G17G10G04G12G28G27G05G09G02
 -63573222.60947 -49522533.93545  22355076.3204                   22355074.0004
 -25008748.99747 -19472242.47545  21579252.6094                   21579250.4804
 -52615535.40048 -40960385.14446  20482403.8984                   20482401.8444
 -10262802.06747  -7982844.49445  22888838.8364                   22888836.4064
 -74098769.06747 -57724849.04343  23629719.3524                   23629718.5394
 -36523599.35347 -28445404.40644  22931562.1334                   22931561.3324
    964876.23247    768004.55544  24019255.1644                   24019255.6454
 -25586547.40947 -19922329.68645  22532976.9924                   22532976.0864
 -35355197.52648 -27534162.57846  20971291.6254                   20971287.5784
 11  8  2  0 45  0.0000000  0  9G17G10G04G12G28G27G05G09G02
 -63609084.43047 -49550478.22545  22348252.3914                   22348249.7154
 -25146097.93847 -19579267.59845  21553115.6644                   21553114.8204
 -52642517.88848 -40981410.47046  20477269.2114                   20477267.3094
 -10429602.95747  -8112819.17745  22857097.3134                   22857095.1054
 -74083438.12546 -57712902.91743  23632637.3834                   23632635.4494
 -36556856.75347 -28471319.30845  22925233.3754                   22925232.5554
    781318.59647    624972.78744  23984324.3594                   23984325.5864
 -25616479.13347 -19945653.14545  22527280.7194                   22527280.2344
 -35467075.73548 -27621340.38046  20950001.6954                   20949997.5784
 11  8  2  0 45 30.0000000  0  9G17G10G04G12G28G27G05G09G02
 -63644758.53347 -49578276.24945  22341463.5234                   22341461.7304
 -25282899.09547 -19685865.86945  21527083.4844                   21527081.7074
 -52669043.05248 -41002079.44346  20472221.9614                   20472219.2194
 -10596128.99747  -8242579.70545  22825408.4144                   22825405.3524
 -74067757.98346 -57700684.70743  23635620.8054                   23635620.0554
 -36589703.00647 -28496913.84245  22918983.0164                   22918982.2234
    597853.06246    482012.83944  23949412.8524                   23949413.3444
 -25645845.83047 -19968536.31745  22521692.9304                   22521691.3524
 -35578501.51748 -27708165.64746  20928798.2814                   20928794.0204
 11  8  2  0 46  0.0000000  0  9G17G10G04G12G28G27G05G09G02
 -63680247.73647 -49605930.17745  22334710.6414                   22334707.9614
 -25419153.21447 -19792037.89245  21501155.2504                   21501153.4734
 -52695116.74148 -41022396.60646  20467259.8364                   20467257.9414
 -10762380.97747  -8372126.66045  22793771.7424                   22793769.4574
 -74051733.71746 -57688198.39043  23638669.5474                   23638668.9884
 -36622143.55647 -28522192.21644  22912809.1334                   22912809.4694
    414479.29446    339124.36244  23914518.1174                   23914518.6254
 -25674653.32147 -19990983.74645  22516210.9064                   22516210.2624
 -35689478.55148 -27794641.24646  20907680.0084                   20907675.7274
 11  8  2  0 46 30.0000000  0  9G17G10G04G12G28G27G05G09G02
 -63715551.45647 -49633439.58345  22327991.7734                   22327990.0634
 -25554858.11747 -19897781.91445  21475331.1804                   21475329.8284
 -52720741.41148 -41042363.89146  20462383.5394                   20462382.1954
 -10928356.44147  -8501458.12845  22762187.2274                   22762184.8674
 -74035367.37346 -57675445.46843  23641784.0864                   23641784.2894
 -36654181.17747 -28547156.62445  22906712.5704                   22906713.0824
    231199.87147    196309.39244  23879641.2504                   23879641.6764
 -25702905.05347 -20012998.10845  22510834.5314                   22510834.0514
 -35800007.30048 -27880767.53146  20886647.0474                   20886642.9804
 11  8  2  0 47  0.0000000  0  9G17G10G04G12G28G27G05G09G02
 -63750665.68747 -49660801.33145  22321310.1564                   22321307.5514
 -25690006.21847 -20003092.10045  21449613.3914                   21449612.0904
 -52745915.09248 -41061979.76546  20457593.7034                   20457591.9654
 -11094048.55647  -8630568.85545  22730657.1884                   22730654.7114
 -74018656.18246 -57662423.89343  23644964.1094                   23644962.8364
 -36685813.83547 -28571805.50144  22900693.8674                   22900693.5984
     48021.91847     53573.46244  23844782.6564                   23844783.2154
 -25730599.25847 -20034578.04545  22505564.5084                   22505563.5704
 -35910083.42048 -27966541.11246  20865700.1564                   20865696.0904
 11  8  2  0 47 30.0000000  0  9G17G10G04G12G28G27G05G09G02
 -63785592.57547 -49688017.10245  22314663.5084                   22314662.2344
 -25824598.09747 -20107968.84945  21424001.6644                   21423999.6054
 -52770643.39548 -41081248.58346  20452887.8754                   20452886.2464
 -11259458.09047  -8759459.36545  22699181.0864                   22699178.6684
 -74001605.33446 -57649137.60143  23648209.3204                   23648208.5554
 -36717047.04547 -28596143.07744  22894750.6024                   22894750.0784
   -135054.72747    -89083.50444  23809945.3834                   23809944.2894
 -25757741.90047 -20055728.17945  22500399.5394                   22500398.7584
 -36019710.69148 -28051964.95646  20844838.7504                   20844834.5004
 11  8  2  0 48  0.0000000  0  9G17G10G04G12G28G27G05G09G02
 -63820339.16647 -49715092.37645  22308051.6724                   22308050.3914
 -25958638.21647 -20212415.66545  21398494.3594                   21398492.4264
 -52794935.80848 -41100177.74346  20448265.0944                   20448262.8324
 -11424589.82647  -8888133.40545  22667757.5314                   22667755.4654
 -73984223.79046 -57635593.60543  23651517.2814                   23651516.5704
 -36747890.59047 -28620177.06744  22888880.8984                   22888879.9924
   -318034.56447   -231665.03844  23775124.4144                   23775124.6994
 -25784343.36847 -20076456.63745  22495337.2734                   22495336.9574
 -36128896.88448 -28137045.07946  20824061.3054                   20824056.8404
 11  8  2  0 48 30.0000000  0  9G17G10G04G12G28G27G05G09G02
 -63854895.17347 -49742019.15645  22301476.0704                   22301473.4964
 -26092114.55547 -20316423.16745  21373094.4534                   21373093.0784
 -52818785.22048 -41118761.69846  20443726.7504                   20443724.9264
 -11589431.36747  -9016581.32645  22636388.7344                   22636386.4844
 -73966503.67246 -57621785.85343  23654889.0164                   23654888.6884
 -36778337.25347 -28643901.75944  22883087.5554                   22883086.9264
   -500905.49447   -374161.73444  23740324.6564                   23740324.7664
 -25810396.86146 -20096758.09345  22490379.7274                   22490379.4924
 -36237632.37948 -28221774.01546  20803369.8204                   20803365.4454
 11  8  2  0 49  0.0000000  0  9G17G10G04G12G28G27G05G09G02
 -63889261.20247 -49768797.91045  22294936.5864                   22294934.5044
 -26225025.26947 -20419989.92546  21347802.3834                   21347801.1684
 -52842194.80248 -41137002.95746  20439272.2504                   20439269.8594
 -11753981.63447  -9144802.29645  22605076.0784                   22605073.6414
 -73948447.35346 -57607716.12643  23658326.0864                   23658325.0784
 -36808390.40547 -28667319.84344  22877368.5864                   22877367.4574
   -683665.50947   -516571.95644  23705546.8204                   23705546.7384
 -25835905.96747 -20116635.34945  22485525.5314                   22485525.1214
 -36345918.42948 -28306152.73146  20782763.5234                   20782759.1914
 11  8  2  0 49 30.0000000  0  9G17G10G04G12G28G27G05G09G02
 -63923433.55947 -49795425.72845  22288433.1804                   22288431.8014
 -26357364.58047 -20523111.43946  21322619.1484                   21322617.0744
 -52865163.71748 -41154900.80046  20434901.2194                   20434899.1094
 -11918234.92447  -9272791.85545  22573819.8444                   22573817.2624
 -73930053.79846 -57593383.57443  23661825.5004                   23661824.2304
 -36838048.97547 -28690430.48344  22871724.5634                   22871724.1484
   -866308.62147   -658891.10644  23670790.9694                   23670791.2974
 -25860870.55047 -20136088.30945  22480775.2274                   22480773.6294
 -36453751.95848 -28390178.83246  20762243.8914                   20762239.2934
 11  8  2  0 50  0.0000000  0  9G17G10G04G12G28G27G05G09G02
 -63957413.79647 -49821903.84745  22281967.3204                   22281965.4384
 -26489132.22648 -20625787.48545  21297545.2194                   21297543.2194
 -52887696.75848 -41172459.01846  20430613.4384                   20430611.2854
 -12082190.83547  -9400549.65845  22542619.8364                   22542617.3164
 -73911327.06846 -57578791.36743  23665389.1954                   23665388.5704
 -36867317.92947 -28713237.47144  22866155.1174                   22866154.6134
  -1048834.20147   -801118.68644  23636057.6954                   23636056.8284
 -25885295.68947 -20155120.93145  22476127.1564                   22476126.2974
 -36561136.09948 -28473854.77546  20741808.6174                   20741804.2384
 11  8  2  0 50 30.0000000  0  9G17G10G04G12G28G27G05G09G02
 -63991205.57047 -49848235.11745  22275536.9924                   22275534.7504
 -26620329.13748 -20728018.81946  21272578.4304                   21272577.0474
 -52909799.92648 -41189682.27546  20426407.0234                   20426405.5864
 -12245850.63247  -9528076.75245  22511476.7344                   22511474.4774
 -73892272.80346 -57563943.97943  23669015.2584                   23669015.6174
 -36896203.57147 -28735745.79645  22860657.8674                   22860657.7894
  -1231243.42547   -943255.61144  23601345.8524                   23601346.2424
 -25909188.04047 -20173738.36745  22471580.5864                   22471579.7974
 -36668074.98248 -28557183.75146  20721459.0004                   20721454.9454
 11  8  2  0 51  0.0000000  0  9G17G10G04G12G28G27G05G09G02
 -64024805.12447 -49874416.60845  22269143.0634                   22269141.1254
 -26750949.59248 -20829800.96846  21247722.4224                   21247721.0204
 -52931472.48948 -41206569.98646  20422283.1484                   20422281.0514
 -12409208.63747  -9655368.68045  22480390.6024                   22480388.2934
 -73872889.57246 -57548840.27243  23672704.4384                   23672703.2734
 -36924704.99147 -28757954.70844  22855234.4304                   22855233.7304
  -1413529.83747  -1085296.81344  23566657.7034                   23566657.7424
 -25932547.59746 -20191940.66845  22467135.4614                   22467135.2074
 -36774565.63648 -28640163.47846  20701194.4844                   20701190.1524
 11  8  2  0 51 30.0000000  0  9G17G10G04G12G28G27G05G09G02
 -64058210.02547 -49900446.41345  22262786.7424                   22262784.3324
 -26880989.50448 -20931130.72045  21222976.7734                   21222975.1954
 -52952715.02248 -41223122.61746  20418240.6724                   20418238.9064
 -12572260.41247  -9782421.97745  22449362.8914                   22449360.3444
 -73853177.51846 -57533480.29143  23676455.7034                   23676453.9574
 -36952823.04047 -28779864.92644  22849884.0394                   22849883.8014
  -1595689.20747  -1227239.06044  23531993.9064                   23531994.0664
 -25955375.61547 -20209728.74145  22462790.9774                   22462790.4694
 -36880606.80348 -28722792.92646  20681015.5164                   20681011.3794
 11  8  2  0 52  0.0000000  0  9G17G10G04G12G28G27G05G09G02
 -62516003.65547 -48698727.17845  22556258.8834                   22556256.6254
 -25435026.72248 -19804406.45745  21498134.2274                   21498133.0204
 -51398113.87248 -40011745.11846  20714071.5704                   20714070.0864
 -11159583.05547  -8681634.42345  22718186.1484                   22718183.8874
 -72257723.58246 -56290269.47943  23980060.4144                   23980058.9264
 -35405144.01247 -27573881.31544  23144397.2274                   23144396.7544
   -202297.38247   -141479.03444  23797147.5314                   23797147.4884
 -24402258.96447 -18999508.03445  22758339.7034                   22758338.4884
 -35410779.84948 -27577473.21546  20960714.3914                   20960709.7734
 11  8  2  0 52 30.0000000  0  9G17G10G04G12G28G27G05G09G02
 -62549024.82947 -48724458.00445  22549974.9774                   22549972.3364
 -25563904.51347 -19904830.67646  21473609.7424                   21473608.1604
 -51418510.07748 -40027638.28046  20710190.4534                   20710188.8754
 -11322022.01647  -8808210.21145  22687275.3204                   22687273.3204
 -72237365.62446 -56274406.25543  23983934.0634                   23983933.4224
 -35432509.29447 -27595204.94944  23139189.7894                   23139188.8404
   -384200.76347   -283221.79444  23762532.0634                   23762532.7544
 -24424039.25547 -19016479.71545  22754194.7974                   22754194.1524
 -35515929.64148 -27659408.10646  20940705.1094                   20940700.8634
 11  8  2  0 53  0.0000000  0  9G17G10G04G12G28G27G05G09G02
 -62581851.33847 -48750037.13145  22543728.7114                   22543726.2734
 -25692195.37048 -20004797.55345  21449196.7194                   21449195.2814
 -51438485.01648 -40043203.18146  20706389.3054                   20706387.1414
 -11484148.88447  -8934542.82045  22656423.2734                   22656420.7774
 -72216686.00446 -56258292.38443  23987868.6174                   23987867.7274
 -35459500.13447 -27616236.81144  23134053.4454                   23134053.1174
   -565970.03147   -424860.00544  23727942.3134                   23727942.4614
 -24445298.47747 -19033045.38045  22750149.5864                   22750148.4534
 -35620632.67348 -27740994.86546  20920780.7424                   20920776.3834
 11  8  2  0 53 30.0000000  0  9G17G10G04G12G28G27G05G09G02
 -62614489.36147 -48775469.36945  22537517.4844                   22537515.7234
 -25819903.49748 -20104310.34946  21424894.3984                   21424892.7894
 -51458047.15048 -40058446.41446  20702667.1884                   20702665.1374
 -11645967.55447  -9060635.27145  22625630.3054                   22625628.4064
 -72195692.56346 -56241933.96643  23991864.6094                   23991863.1214
 -35486125.39947 -27636983.82544  23128986.6884                   23128986.5904
   -747608.48247   -566396.32745  23693378.5394                   23693377.7734
 -24466046.00747 -19049212.32345  22746201.3444                   22746201.2154
 -35724895.86648 -27822238.89046  20900940.3594                   20900935.6294
 11  8  2  0 54  0.0000000  0  9G17G10G04G12G28G27G05G09G02
 -62646935.24947 -48800751.92645  22531343.0394                   22531341.6094
 -25947023.20248 -20203364.63546  21400704.4144                   21400702.6994
 -51477196.13648 -40073367.70946  20699022.6884                   20699020.8364
 -11807472.34647  -9186483.13845  22594897.0634                   22594894.4384
 -72174384.19046 -56225330.05443  23995919.2194                   23995918.7114
 -35512384.45747 -27657445.45944  23123990.1804                   23123989.9184
   -929110.38247   -707826.23944  23658839.5864                   23658838.9774
 -24486281.66547 -19064980.39545  22742350.5394                   22742349.6024
 -35828716.30748 -27903137.91346  20881183.7664                   20881179.3554
 11  8  2  0 54 30.0000000  0  9G17G10G04G12G28G27G05G09G02
 -62679187.31947 -48825883.43845  22525205.9224                   22525203.7034
 -26073551.14848 -20301957.82246  21376627.1254                   21376624.8324
 -51495933.03748 -40087967.90246  20695457.4614                   20695455.6804
 -11968659.51947  -9312083.50745  22564224.0164                   22564221.5904
 -72152761.90346 -56208481.65143  24000033.1724                   24000033.1054
 -35538278.69047 -27677622.84644  23119062.4614                   23119062.9574
  -1110471.90047   -849146.77745  23624327.2114                   23624327.4844
 -24506007.45046 -19080351.14345  22738597.4224                   22738596.3364
 -35932093.57848 -27983691.61346  20861511.8364                   20861507.1484
 11  8  2  0 55  0.0000000  0  9G17G10G04G12G28G27G05G09G02
 -62711247.24147 -48850865.22545  22519105.0704                   22519103.3634
 -26199487.12448 -20400089.72346  21352661.6564                   21352660.5394
 -51514262.71448 -40102250.77346  20691969.1484                   20691967.6524
 -12129529.03147  -9437436.34645  22533611.6564                   22533609.0274
 -72130829.84346 -56191391.81843  24004207.3134                   24004206.9884
 -35563813.02847 -27697519.77344  23114204.4304                   23114203.1134
  -1291692.48747   -990357.46645  23589842.1254                   23589841.8484
 -24525228.76147 -19095328.82644  22734939.2274                   22734938.9184
 -36035030.36448 -28063902.07246  20841923.6484                   20841918.9064
 11  8  2  0 55 30.0000000  0  9G17G10G04G12G28G27G05G09G02
 -62743114.30447 -48875696.72345  22513040.7894                   22513039.3594
 -26324828.21248 -20497758.08046  21328810.1334                   21328808.9844
 -51532186.88048 -40116217.67146  20688558.2194                   20688556.4654
 -12290077.93347  -9562539.37045  22503060.2274                   22503057.8524
 -72108589.41946 -56174061.69643  24008438.9534                   24008439.1524
 -35588989.63047 -27717137.93444  23109412.6644                   23109412.4884
  -1472768.67047  -1131455.66744  23555383.8984                   23555384.0394
 -24543948.26547 -19109915.48645  22731377.5084                   22731376.6604
 -36137526.93248 -28143769.51546  20822418.8364                   20822414.7114
 11  8  2  0 56  0.0000000  0  9G17G10G04G12G28G27G05G09G02
 -62774785.10547 -48900375.29345  22507014.5164                   22507012.9804
 -26449569.20448 -20594958.81546  21305073.2664                   21305071.3364
 -51549705.26048 -40129868.37246  20685224.6954                   20685222.7664
 -12450300.88847  -9687388.40145  22472570.8914                   22472568.2584
 -72086039.63446 -56156490.47043  24012731.0704                   24012729.3754
 -35613808.06047 -27736477.05144  23104690.3674                   23104690.2154
  -1653694.70047  -1272436.83944  23520954.5314                   23520954.1764
 -24562166.27947 -19124111.35945  22727911.2974                   22727909.7464
 -36239580.72348 -28223291.93946  20802998.5634                   20802993.9774
 11  8  2  0 56 30.0000000  0  9G17G10G04G12G28G27G05G09G02
 -62806263.18347 -48924903.67645  22501024.1024                   22501022.4884
 -26573711.97448 -20691693.40846  21281449.4224                   21281447.6604
 -51566824.36048 -40143207.94346  20681967.2424                   20681965.4304
 -12610199.59647  -9811984.76745  22442143.1414                   22442140.5944
 -72063186.53246 -56138682.97043  24017079.4064                   24017079.2854
 -35638275.07147 -27755542.28044  23100034.0944                   23100033.9614
  -1834472.11547  -1413302.22544  23486554.3134                   23486554.4184
 -24579889.68146 -19137921.81945  22724537.6024                   22724537.6174
 -36341196.59048 -28302473.12346  20783661.9774                   20783657.1644
 11  8  2  0 57  0.0000000  0  9G17G10G04G12G28G27G05G09G02
 -62837550.04647 -48949283.06545  22495070.2584                   22495069.3594
 -26697255.63248 -20787961.15946  21257939.3834                   21257937.9614
 -51583548.35647 -40156239.62646  20678784.6804                   20678782.6764
 -12769773.10747  -9936327.74445  22411776.8674                   22411774.7974
 -72040034.07246 -56120642.15243  24021485.5784                   24021485.0984
 -35662394.93847 -27774337.05144  23095444.5704                   23095444.0204
  -2015099.74547  -1554050.92044  23452181.3444                   23452181.3714
 -24597123.50946 -19151350.82145  22721258.7034                   22721258.0124
 -36442376.82248 -28381314.83146  20764407.8284                   20764403.0944
 11  8  2  0 57 30.0000000  0  9G17G10G04G12G28G27G05G09G02
 -62868642.58147 -48973511.02545  22489154.3984                   22489152.2274
 -26820195.64748 -20883758.55646  21234544.9454                   21234543.6294
 -51599877.20948 -40168963.41746  20675677.2814                   20675675.8914
 -12929016.56347 -10060413.50745  22381474.2584                   22381471.8404
 -72016581.72246 -56102367.69443  24025948.0554                   24025947.5314
 -35686168.06947 -27792861.61744  23090920.7274                   23090920.5664
  -2195572.36047  -1694678.82544  23417839.0554                   23417838.4024
 -24613868.69447 -19164399.04845  22718071.7344                   22718070.9224
 -36543119.41048 -28459815.54446  20745237.4534                   20745232.9654
 11  8  2  0 58  0.0000000  0  9G17G10G04G12G28G27G05G09G02
 -62899541.49247 -48997588.11345  22483274.1024                   22483272.3594
 -26942530.81748 -20979084.63046  21211265.4454                   21211263.3444
 -51615814.56348 -40181382.15046  20672644.7274                   20672642.6094
 -13087928.29447 -10184240.81545  22351234.3674                   22351232.0354
 -71992832.38646 -56083861.86243  24030467.4224                   24030467.3594
 -35709597.97647 -27811118.72844  23086462.3054                   23086462.0044
  -2375888.02547  -1835184.41344  23383525.5864                   23383525.6844
 -24630129.49447 -19177069.84745  22714977.9924                   22714977.0824
 -36643426.05548 -28537976.54146  20726149.5394                   20726145.2774
 11  8  2  0 58 30.0000000  0  9G17G10G04G12G28G27G05G09G02
 -62930249.16347 -49021516.18245  22477430.5234                   22477428.7384
 -27064262.29848 -21073940.29946  21188100.8204                   21188098.8984
 -51631365.71748 -40193499.93746  20669685.4384                   20669683.2464
 -13246509.14447 -10307810.26645  22321056.9774                   22321055.0004
 -71968790.90446 -56065128.31943  24035043.0864                   24035041.9884
 -35732690.57247 -27829113.01144  23082068.0164                   23082068.5084
  -2556047.11347  -1975568.01344  23349242.4694                   23349241.4614
 -24645911.80947 -19189367.79645  22711974.6724                   22711973.9734
 -36743300.52148 -28615800.79346  20707144.2584                   20707139.4304
 11  8  2  0 59  0.0000000  0  9G17G10G04G12G28G27G05G09G02
 -62960764.10347 -49045294.07945  22471623.8284                   22471621.9884
 -27185386.15647 -21168322.50746  21165051.9304                   21165049.2074
 -51646531.61848 -40205317.52546  20666799.3284                   20666797.5944
 -13404755.31247 -10431118.94145  22290943.7584                   22290941.4884
 -71944458.58646 -56046168.13742  24039673.5704                   24039672.1994
 -35755446.88247 -27846845.24944  23077737.7974                   23077737.3914
  -2736045.14147  -2115826.09444  23314989.8524                   23314989.8714
 -24661217.75047 -19201294.51445  22709062.1564                   22709061.3134
 -36842741.71748 -28693287.43046  20688220.6024                   20688216.7584
 11  8  2  0 59 30.0000000  0  9G17G10G04G12G28G27G05G09G02
 -62991085.83347 -49068921.42245  22465853.5474                   22465852.1684
 -27305900.51048 -21262229.78446  21142118.7424                   21142116.2274
 -51661315.35348 -40216837.34546  20663986.0554                   20663984.3444
 -13562664.62347 -10554165.11945  22260895.0084                   22260892.3284
 -71919837.38046 -56026982.82843  24044358.0164                   24044357.5594
 -35777870.12347 -27864317.95644  23073470.9844                   23073470.0554
  -2915879.77947  -2255956.87944  23280768.0634                   23280767.5784
 -24676050.99747 -19212852.93145  22706238.8834                   22706238.1254
 -36941751.16848 -28770437.63646  20669380.4144                   20669375.9924
 11  8  2  1  0  0.0000000  0  9G17G10G04G12G28G27G05G09G02
 -63021215.16847 -49092398.82345  22460120.0784                   22460118.1804
 -27425804.58348 -21355661.49746  21119301.3914                   21119299.3594
 -51675720.52648 -40228062.15246  20661245.1954                   20661243.1524
 -13720235.65847 -10676947.72745  22230910.3984                   22230907.6914
 -71894930.92446 -56007575.28142  24049097.7194                   24049097.7424
 -35799964.12247 -27881534.11244  23069265.8674                   23069265.7114
  -3095549.36047  -2395959.05245  23246578.2894                   23246577.8554
 -24690416.05347 -19224046.52345  22703505.9144                   22703505.6134
 -37040330.48548 -28847252.67046  20650621.3054                   20650616.3954
 11  8  2  1  0 30.0000000  0  9G17G10G04G12G28G27G05G09G02
 -63051150.68347 -49115725.23345  22454424.0474                   22454421.7974
 -27545095.01448 -21448615.05546  21096601.0554                   21096599.5744
 -51689748.45248 -40238993.02346  20658575.6334                   20658573.7734
 -13877464.83247 -10799463.93545  22200990.2584                   22200987.6524
 -71869739.67146 -55987945.83343  24053892.2734                   24053891.0984
 -35821730.48647 -27898494.95144  23065124.1254                   23065124.0514
  -3275050.04047  -2535829.56545  23212420.2504                   23212420.0594
 -24704314.55647 -19234876.52744  22700860.3674                   22700860.4534
 -37138479.11948 -28923732.10746  20631943.9694                   20631939.5824
 11  8  2  1  1  0.0000000  0  9G17G10G04G12G28G27G05G09G02
 -63080892.48947 -49138900.67945  22448764.0474                   22448762.4924
 -27663770.01548 -21541089.06346  21074018.1254                   21074016.0744
 -51703402.06648 -40249632.22546  20655977.1884                   20655975.0314
 -14034350.17847 -10921712.24645  22171135.8444                   22171133.9384
 -71844265.98346 -55968096.19743  24058739.1804                   24058738.9534
 -35843172.03047 -27915202.72744  23061044.4144                   23061043.8594
  -3454379.68347  -2675566.83745  23178294.9694                   23178294.7664
 -24717750.72647 -19245346.35145  22698304.0474                   22698303.1954
 -37236198.24148 -28999876.86646  20613348.6644                   20613344.3404
 11  8  2  1  1 30.0000000  0  9G17G10G04G12G28G27G05G09G02
 -63110441.13347 -49161925.59145  22443141.7274                   22443139.8364
 -27781828.50547 -21633082.66746  21051552.4844                   21051550.5004
 -51716684.89548 -40259982.48746  20653449.6644                   20653447.8674
 -14190890.20747 -11043691.45645  22141347.5554                   22141345.4414
 -71818513.41146 -55948029.41843  24063639.5784                   24063638.9414
 -35864292.62447 -27931660.38844  23057025.5634                   23057024.4804
  -3633536.20847  -2815169.22145  23144202.9454                   23144201.8014
 -24730728.54247 -19255458.95645  22695834.6564                   22695834.2814
 -37333489.87548 -29075688.51646  20594834.8834                   20594830.1844
 11  8  2  1  2  0.0000000  0  9G17G10G04G12G28G27G05G09G02
 -63139791.18947 -49184795.79045  22437556.3284                   22437554.5274
 -27899264.05148 -21724590.85646  21029204.6564                   21029203.4224
 -51729594.67348 -40270042.06946  20650993.0554                   20650991.0084
 -14347077.68647 -11165395.95845  22111625.8284                   22111623.5944
 -71792479.20646 -55927743.08643  24068594.4614                   24068594.3834
 -35885090.34847 -27947866.46044  23053067.8134                   23053066.6914
  -3812512.03247  -2954630.78545  23110144.8834                   23110144.4774
 -24743246.81846 -19265213.51844  22693452.1484                   22693451.7384
 -37430349.45948 -29151163.50746  20576402.8674                   20576398.6524
 11  8  2  1  2 30.0000000  0  9G17G10G04G12G28G27G05G09G02
 -61593521.09747 -47979910.03945  22731802.1804                   22731799.9224
 -26440650.27548 -20588008.66546  21306770.0084                   21306768.4384
 -50166712.95248 -39052212.17146  20948399.2034                   20948397.6454
 -12927484.70247 -10059219.59246  22381765.5634                   22381763.4964
 -70190745.99946 -54679639.39343  24373394.3054                   24373393.9384
 -34330146.79047 -26736222.18244  23348963.4144                   23348962.7664
  -2415877.90347  -1866344.33145  23375915.4304                   23375914.4844
 -23179887.79646 -18047011.72145  22990949.3134                   22990949.4024
 -35951354.50548 -27998699.89746  20857846.0474                   20857841.1374
 11  8  2  1  3  0.0000000  0  9G17G10G04G12G28G27G05G09G02
 -61622472.83147 -48002469.86345  22726292.3594                   22726290.7934
 -26556833.51848 -20678541.04246  21284661.1254                   21284659.1564
 -50178883.51848 -39061695.72546  20946083.5314                   20946081.5274
 -13082959.81647 -10180369.00345  22352179.5634                   22352177.7114
 -70164154.61146 -54658918.92243  24378453.7974                   24378454.2194
 -34350306.63847 -26751931.18944  23345127.3524                   23345126.9574
  -2594483.43547  -2005517.37045  23341927.5084                   23341927.0664
 -23191496.36246 -18056057.39044  22988740.8364                   22988740.2934
 -36047352.67348 -28073503.66446  20839578.4454                   20839574.2154
 11  8  2  1  3 30.0000000  0  9G17G10G04G12G28G27G05G09G02
 -61651229.16047 -48024877.40645  22720820.5704                   22720818.9844
 -26672392.00048 -20768586.58346  21262671.2274                   21262669.7074
 -50190692.93248 -39070897.88346  20943836.0864                   20943834.4774
 -13238079.29548 -10301241.29845  22322661.3984                   22322658.6764
 -70137292.20646 -54637987.23143  24383565.8134                   24383566.0664
 -34370156.53047 -26767398.72244  23341349.9614                   23341350.3834
  -2772904.15947  -2144546.40845  23307975.2974                   23307974.8204
 -23202659.61047 -18064756.07244  22986616.4694                   22986615.9304
 -36142925.72748 -28147976.15646  20821391.5944                   20821386.9144
 11  8  2  1  4  0.0000000  0  9G17G10G04G12G28G27G05G09G02
 -61679784.95847 -48047128.70145  22715386.2274                   22715384.7304
 -26787319.38348 -20858140.35846  21240800.7274                   21240798.9534
 -50202138.93048 -39079816.84846  20941658.1564                   20941657.1884
 -13392836.37947 -10421831.21145  22293211.7814                   22293209.1094
 -70110156.64445 -54616842.70943  24388730.3834                   24388730.4774
 -34389694.53747 -26782623.19544  23337631.9144                   23337632.6374
  -2951132.87847  -2283425.81645  23274059.3984                   23274059.6484
 -23213376.60147 -18073107.01644  22984576.5314                   22984576.4654
 -36238069.85448 -28222114.41646  20803285.9844                   20803282.0314
 11  8  2  1  4 30.0000000  0  9G17G10G04G12G28G27G05G09G02
 -61708147.48447 -48069229.40145  22709988.7344                   22709987.2464
 -26901620.93348 -20947206.48146  21219050.2584                   21219047.9304
 -50213231.70148 -39088460.58046  20939547.5314                   20939545.4304
 -13547235.87848 -10542142.47746  22263830.5164                   22263827.9734
 -70082757.27646 -54595492.65043  24393943.6724                   24393944.3484
 -34408930.75047 -26797612.50444  23333971.1724                   23333970.8984
  -3129173.98047  -2422159.04445  23240179.3524                   23240178.8484
 -23223657.85547 -18081118.40845  22982621.2274                   22982620.3524
 -36332793.29248 -28295924.88346  20785260.7194                   20785256.4614
 11  8  2  1  5  0.0000000  0  9G17G10G04G12G28G27G05G09G02
 -61736310.29447 -48091174.46445  22704629.6724                   22704627.8524
 -27015289.23848 -21035779.15246  21197420.0314                   21197417.8714
 -50223967.56348 -39096826.19646  20937504.3594                   20937502.6484
 -13701269.68847 -10662168.78445  22234518.7584                   22234516.0984
 -70055090.44145 -54573934.07443  24399208.4694                   24399209.0514
 -34427862.01347 -26812364.18344  23330369.6564                   23330369.2934
  -3307019.11947  -2560739.57144  23206336.2114                   23206335.3054
 -23233500.90746 -18088788.37745  22980748.0784                   22980746.6454
 -36427091.14148 -28369403.71646  20767316.7504                   20767311.7664
 11  8  2  1  5 30.0000000  0  8G17G10G04G12G27G05G09G02
 -61764275.15947 -48112965.27645  22699308.3594                   22699306.3054
 -27128324.37848 -21123858.44846  21175909.7034                   21175908.2114
 -50234351.06848 -39104917.24846  20935528.5084                   20935526.8404
 -13854937.60747 -10781909.98745  22205276.8594                   22205274.6844
 -34446493.36247 -26826882.18344  23326823.8284                   23326823.6334
  -3484667.26147  -2699166.60945  23172531.3134                   23172529.8524
 -23242911.32747 -18096121.21044  22978956.6334                   22978956.8984
 -36520966.03848 -28442552.99246  20749452.7974                   20749448.1914
 11  8  2  1  6  0.0000000  0  8G17G10G04G12G27G05G09G02
 -61792044.93247 -48134604.08945  22694023.7814                   22694021.3284
 -27240727.75648 -21211445.48646  21154520.6024                   21154518.6484
 -50244388.07848 -39112738.31646  20933618.5784                   20933616.5554
 -14008239.98147 -10901366.35945  22176104.4144                   22176101.8634
 -34464830.77247 -26841171.14244  23323334.2344                   23323334.5514
  -3662118.92547  -2837440.55645  23138762.9454                   23138761.8364
 -23251895.85947 -18103122.18544  22977247.0234                   22977246.5354
 -36614422.00648 -28515375.82046  20731668.5394                   20731664.2584
 11  8  2  1  6 30.0000000  0  8G17G10G04G12G27G05G09G02
 -61819603.93547 -48156078.65545  22688779.7664                   22688778.1644
 -27352481.88948 -21298526.60046  21133253.7344                   21133251.8094
 -50254065.65248 -39120279.27346  20931777.1724                   20931775.1844
 -14161159.07547 -11020524.06545  22147004.7194                   22147001.8874
 -34482861.66747 -26855221.23844  23319902.3914                   23319902.8164
  -3839355.83447  -2975547.13245  23105035.8754                   23105034.6054
 -23260442.40247 -18109781.86945  22975621.2114                   22975620.6724
 -36707444.94148 -28587861.20747  20713966.4694                   20713962.1844
 11  8  2  1  7  0.0000000  0  8G17G10G04G12G27G05G09G02
 -61846946.66147 -48177384.69545  22683576.3364                   22683574.5434
 -27463580.32948 -21385096.79346  21112112.6334                   21112111.1884
 -50263381.75948 -39127538.59146  20930004.4694                   20930002.4224
 -14313688.04447 -11139377.77045  22117979.6414                   22117977.0314
 -34500584.09847 -26869030.99444  23316531.0864                   23316531.0984
  -4016370.36147  -3113480.44645  23071351.4614                   23071349.9264
 -23268549.58047 -18116099.22144  22974078.2584                   22974077.1214
 -36800030.79148 -28660006.01546  20696348.1254                   20696344.2114
 11  8  2  1  7 30.0000000  0  8G17G10G04G12G27G05G09G02
 -61874073.08847 -48198522.19545  22678414.3834                   22678412.0234
 -27574021.67548 -21471154.96546  21091096.3984                   21091094.4494
 -50272338.96048 -39134518.23846  20928299.7974                   20928297.8874
 -14465824.48647 -11257925.62745  22089028.6094                   22089026.2894
 -34518001.05947 -26882602.71644  23313216.5634                   23313216.1844
  -4193160.16547  -3251238.65145  23037708.6724                   23037707.9614
 -23276221.09747 -18122077.08544  22972618.2504                   22972617.5744
 -36892180.56048 -28731811.02746  20678813.0004                   20678809.0004
 11  8  2  1  8  0.0000000  0  8G17G10G04G12G27G05G09G02
 -61900990.56247 -48219496.88845  22673291.9774                   22673290.6024
 -27683812.28948 -21556706.08246  21070204.2584                   21070201.9104
 -50280947.29048 -39141226.03246  20926661.5704                   20926659.5864
 -14617573.83847 -11376171.84046  22060151.7114                   22060149.6214
 -34535123.15447 -26895944.66944  23309958.7194                   23309958.5904
  -4369730.27647  -3388825.67945  23004108.7274                   23004107.7854
 -23283468.19147 -18127724.23344  22971239.1954                   22971239.3984
 -36983902.65648 -28803282.77946  20661359.0784                   20661354.3484
 11  8  2  1  8 30.0000000  0  8G17G10G04G12G27G05G09G02
 -61927699.58947 -48240309.13945  22668209.2734                   22668208.0554
 -27792950.86148 -21641749.11446  21049436.0944                   21049433.6604
 -50289210.14648 -39147664.63046  20925089.4774                   20925087.2154
 -14768934.32447 -11494115.05846  22031349.1954                   22031346.6134
 -34551954.03346 -26909059.72244  23306755.0084                   23306754.9614
  -4546078.47447  -3526239.76345  22970551.0234                   22970550.0744
 -23290295.14146 -18133043.96945  22969939.7894                   22969939.2544
 -37075198.91448 -28874422.72046  20643985.7584                   20643981.3484
 11  8  2  1  9  0.0000000  0  8G17G10G04G12G27G05G09G02
 -61954199.57347 -48260958.47645  22663167.1724                   22663165.3554
 -27901435.98648 -21726282.95746  21028791.5394                   21028789.2384
 -50297130.17848 -39153836.10946  20923582.4304                   20923580.4104
 -14919903.72547 -11611753.50946  22002620.7034                   22002617.7304
 -34568496.74846 -26921950.19144  23303607.7344                   23303607.3914
  -4722202.04947  -3663478.81545  22937035.6484                   22937034.3754
 -23296705.69547 -18138039.27344  22968720.4534                   22968719.8914
 -37166070.42348 -28945231.67146  20626693.1724                   20626688.4654
 11  8  2  1  9 30.0000000  0  8G17G10G04G12G27G05G09G02
 -61980497.19347 -48281450.14745  22658162.9844                   22658160.8054
 -28009273.07748 -21810311.83846  21008270.4384                   21008268.5704
 -50304716.93548 -39159747.87046  20922138.4224                   20922136.8954
 -15070486.47248 -11729090.68946  21973965.1484                   21973962.4534
 -34584761.24147 -26934623.90244  23300512.4304                   23300512.0474
  -4898105.29247  -3800546.18545  22903561.8054                   22903560.9614
 -23302710.25947 -18142718.22544  22967577.8984                   22967577.5474
 -37256525.05548 -29015715.79046  20609480.2734                   20609476.4534
 11  8  2  1 10  0.0000000  0  8G17G10G04G12G27G05G09G02
 -62006590.40047 -48301782.53245  22653197.1174                   22653195.6454
 -28116458.59747 -21893833.00846  20987873.9774                   20987871.9224
 -50311971.21348 -39165400.56346  20920758.0864                   20920755.9574
 -15220678.70947 -11846123.58146  21945384.8444                   21945382.3014
 -34600748.46646 -26947081.51044  23297470.5474                   23297470.0314
  -5073783.43947  -3937438.16845  22870131.3834                   22870130.4304
 -23308310.71547 -18147082.27045  22966511.6804                   22966512.2504
 -37346562.06948 -29085874.49146  20592346.9144                   20592342.2274
 11  8  2  1 10 30.0000000  0  8G17G10G04G12G27G05G09G02
 -62032479.35947 -48321955.75645  22648271.0474                   22648269.3834
 -28222991.45148 -21976845.60346  20967601.3674                   20967599.7074
 -50318895.63348 -39170796.22346  20919440.2974                   20919438.9924
 -15370478.35547 -11962850.55646  21916878.9534                   21916876.8484
 -34616461.72346 -26959325.71844  23294480.0864                   23294480.2034
  -5249234.16847  -4074152.96345  22836743.8594                   22836743.0394
 -23313510.73146 -18151134.31144  22965522.4144                   22965521.9264
 -37436182.90348 -29155708.89546  20575292.8134                   20575288.7504
 11  8  2  1 11  0.0000000  0  8G17G10G04G12G27G05G09G02
 -62058164.19747 -48341969.94045  22643383.3204                   22643380.9694
 -28328870.50148 -22059348.73846  20947453.3284                   20947451.4774
 -50325493.35048 -39175937.29646  20918184.6024                   20918183.1604
 -15519883.39847 -12079270.05946  21888448.3204                   21888445.4884
 -34631904.46246 -26971359.06844  23291541.7114                   23291540.4804
  -5424455.27347  -4210688.78545  22803400.6484                   22803399.3284
 -23318314.26646 -18154877.35444  22964608.5704                   22964608.2344
 -37525388.65648 -29225219.86646  20558317.2034                   20558313.1484
 11  8  2  1 11 30.0000000  0  8G17G10G04G12G27G05G09G02
 -62083644.94047 -48361825.12145  22638534.2584                   22638532.7154
 -28434094.89248 -22141341.74246  20927429.7194                   20927427.6644
 -50331767.63048 -39180826.36146  20916990.5864                   20916989.4414
 -15668892.27047 -12195380.84346  21860092.5944                   21860089.9494
 -34647080.09746 -26983184.31644  23288654.1414                   23288652.8874
  -5599444.60747  -4347044.02645  22770101.6724                   22770100.0274
 -23322725.55347 -18158314.77144  22963769.5784                   22963768.8594
 -37614181.10448 -29294408.77746  20541420.6484                   20541416.7344
 11  8  2  1 12  0.0000000  0  8G17G10G04G12G27G05G09G02
 -62108922.09247 -48381521.61045  22633724.0084                   22633722.8444
 -28538664.10547 -22222824.23146  20907530.8914                   20907529.6334
 -50337721.82648 -39185466.00646  20915857.8444                   20915856.2074
 -15817503.43247 -12311181.72746  21831812.4694                   21831810.7154
 -34661992.58546 -26994804.46444  23285816.5944                   23285815.4574
  -5774200.32247  -4483217.21645  22736846.4304                   22736844.8834
 -23326749.13047 -18161450.09144  22963003.5084                   22963002.2034
 -37702562.23348 -29363277.18146  20524602.3594                   20524598.1334
 11  8  2  1 12 30.0000000  0  8G17G10G04G12G27G05G09G02
 -62133992.28647 -48401056.83545  22628953.8204                   22628951.6524
 -28642573.43248 -22303792.52846  20887757.8054                   20887755.0434
 -50343355.08948 -39189855.57546  20914785.7344                   20914784.0164
 -15965711.23947 -12426668.32246  21803609.6954                   21803607.2274
 -34676641.61146 -27006219.35844  23283028.8444                   23283029.3874
  -5948716.27447  -4619203.60645  22703636.8754                   22703635.8444
 -23330385.29546 -18164283.54444  22962312.0634                   22962310.7704
 -37790529.92848 -29431823.43046  20507862.5704                   20507858.0634
 11  8  2  1 13  0.0000000  0  8G17G10G04G12G27G05G09G02
 -62158858.71647 -48420433.28145  22624221.5474                   22624219.8364
 -28745825.41848 -22384248.59546  20868108.9144                   20868107.5664
 -50348673.89448 -39194000.11746  20913773.6884                   20913771.6094
 -16113516.68648 -12541841.37646  21775483.4384                   21775480.2544
 -34691033.89046 -27017434.20944  23280290.0084                   23280290.0124
  -6122993.65947  -4755004.08345  22670472.7034                   22670471.7974
 -23333641.58646 -18166820.97444  22961692.0784                   22961691.6374
 -37878088.85348 -29500051.15646  20491200.4774                   20491196.3634
 11  8  2  1 13 30.0000000  0  8G17G10G04G12G27G05G09G02
 -60608105.10647 -47212053.86545  22919320.7274                   22919318.5554
 -27272999.64448 -21236592.12946  21148378.9614                   21148376.5554
 -48778265.08048 -37970304.95646  21212612.5784                   21212610.8954
 -14685498.36047 -11429099.80246  22047225.8754                   22047223.4224
 -33129756.58946 -25800854.51344  23577390.3834                   23577390.9144
  -4721608.59047  -3663015.64345  22937147.6254                   22937146.7814
 -21761105.93747 -16941468.57344  23260935.6174                   23260935.6294
 -36389821.66148 -28340362.42646  20774408.3284                   20774404.2154
 11  8  2  1 14  0.0000000  0  8G17G10G04G12G27G05G09G02
 -60632571.09247 -47231118.30645  22914664.0784                   22914663.4184
 -27374940.08748 -21316026.21646  21128980.2344                   21128978.2814
 -48782970.16248 -37973971.25946  21211717.4224                   21211715.6414
 -14832501.50848 -11543647.68646  22019252.4064                   22019250.2854
 -33143652.06946 -25811682.25344  23574747.2974                   23574746.9264
  -4895408.42447  -3798443.99445  22904075.0314                   22904073.4774
 -21763620.41347 -16943427.96344  23260457.7734                   23260456.9804
 -36476573.97848 -28407961.62146  20757900.1254                   20757895.6484
 11  8  2  1 14 30.0000000  0  8G17G10G04G12G27G05G09G02
 -60656834.32347 -47250024.74145  22910047.1724                   22910045.9414
 -27476220.97547 -21394946.35546  21109707.1804                   21109705.7544
 -48787370.14548 -37977399.83746  21210879.4614                   21210877.9224
 -14979097.82948 -11657878.57546  21991355.9924                   21991353.6134
 -33157301.82246 -25822318.51244  23572149.6254                   23572149.5704
  -5068963.32247  -3933681.51445  22871048.2194                   22871046.9064
 -21765767.49747 -16945101.06744  23260048.5234                   23260048.5314
 -36562922.72948 -28475246.35746  20741468.3754                   20741463.7734
 11  8  2  1 15  0.0000000  0  8G17G10G04G12G27G05G09G02
 -60680895.97947 -47268774.09645  22905468.4694                   22905467.5944
 -27576842.23748 -21473352.50446  21090559.3054                   21090557.9414
 -48791468.89748 -37980593.69346  21210099.9614                   21210098.2814
 -15125286.23547 -11771791.60146  21963537.4694                   21963534.7464
 -33170709.93747 -25832766.44544  23569598.1094                   23569598.0514
  -5242271.94347  -4068727.13245  22838068.8444                   22838067.6134
 -21767552.28047 -16946491.86644  23259709.0944                   23259709.5234
 -36648870.13648 -28542218.35646  20725113.1954                   20725108.9384
 11  8  2  1 15 30.0000000  0  8G17G10G04G12G27G05G09G02
 -60704753.95447 -47287364.74245  22900929.2734                   22900927.4184
 -27676800.81448 -21551242.28746  21071537.8524                   21071535.8014
 -48795267.02748 -37983553.27846  21209377.3134                   21209375.9734
 -15271062.49948 -11885383.48646  21935796.7894                   21935794.5704
 -33183877.45246 -25843026.93844  23567092.3204                   23567092.2234
  -5415329.31047  -4203576.94045  22805137.2504                   22805136.6844
 -21768976.45947 -16947601.68244  23259438.2344                   23259437.8834
 -36734415.38548 -28608876.98346  20708834.4384                   20708829.7344
 11  8  2  1 16  0.0000000  0  8G17G10G04G12G27G05G09G02
 -60728409.70147 -47305797.80245  22896427.4064                   22896425.7464
 -27776097.92448 -21628616.64346  21052642.2504                   21052640.6254
 -48798769.42948 -37986282.43746  21208711.1334                   21208708.8834
 -15416426.70847 -11998654.27946  21908135.0004                   21908132.4694
 -33196809.68847 -25853104.07644  23564631.7194                   23564631.7814
  -5588135.36247  -4338230.91445  22772252.9694                   22772251.4694
 -21770045.79947 -16948434.98944  23259234.5004                   23259234.6884
 -36819561.93648 -28675224.93446  20692631.7274                   20692627.6054
 11  8  2  1 16 30.0000000  0  8G17G10G04G12G27G05G09G02
 -60751861.19947 -47324071.72245  22891964.9144                   22891963.7544
 -27874730.03648 -21705472.82346  21033873.4384                   21033871.7854
 -48801976.54248 -37988781.50346  21208100.1724                   21208098.4264
 -15561374.67347 -12111600.72346  21880552.2194                   21880549.6524
 -33209507.72247 -25862998.70744  23562215.4694                   23562215.7464
  -5760685.34747  -4472685.38345  22739417.8444                   22739415.6134
 -21770762.03147 -16948993.15344  23259098.4694                   23259098.1644
 -36904309.08548 -28741261.66546  20676504.7274                   20676500.4104
 11  8  2  1 17  0.0000000  0  8G17G10G04G12G27G05G09G02
 -60775111.09747 -47342188.54345  22887540.3364                   22887539.0984
 -27972699.22748 -21781812.43146  21015230.6334                   21015228.2304
 -48804893.89848 -37991054.77946  21207545.4144                   21207543.9534
 -15705906.93547 -12224223.25346  21853049.1174                   21853046.2664
 -33221977.59846 -25872715.58944  23559842.1884                   23559842.6174
  -5932979.46547  -4606940.46945  22706631.1804                   22706630.6214
 -21771131.82847 -16949281.33344  23259028.3204                   23259027.7504
 -36988660.86548 -28806990.31146  20660453.5474                   20660449.0004
 11  8  2  1 17 30.0000000  0  8G17G10G04G12G27G05G09G02
 -60798160.50147 -47360149.12645  22883154.2344                   22883152.7974
 -28070005.33048 -21857635.34446  20996713.2664                   20996711.9224
 -48807525.28348 -37993105.21546  21207044.8834                   21207043.0394
 -15850022.42647 -12336521.01446  21825624.6024                   21825621.5474
 -33234223.36946 -25882257.83144  23557512.3364                   23557512.7814
  -6105016.15847  -4740994.94545  22673893.5234                   22673892.7934
 -21771160.07947 -16949303.42144  23259023.0164                   23259022.2854
 -37072619.61748 -28872412.71346  20644476.5004                   20644471.6174
 11  8  2  1 18  0.0000000  0  8G17G10G04G12G27G05G09G02
 -60821006.07047 -47377950.87045  22878806.5234                   22878805.5744
 -28166644.75548 -21932938.77346  20978323.7814                   20978321.7034
 -48809870.43048 -37994932.62246  21206598.3284                   21206596.5634
 -15993716.42048 -12448490.34246  21798280.2974                   21798277.9654
 -33246245.46946 -25891625.77244  23555224.5084                   23555224.9574
  -6276789.99547  -4874844.60845  22641205.7894                   22641205.4694
 -21770847.88447 -16949060.20344  23259081.9064                   23259082.2504
 -37156183.79448 -28937527.64546  20628574.6254                   20628569.9804
 11  8  2  1 18 30.0000000  0  8G17G10G04G12G27G05G09G02
 -60843649.11347 -47395594.82645  22874498.1334                   22874496.6884
 -28262617.60148 -22007722.78846  20960060.3914                   20960058.7194
 -48811933.41348 -37996540.15246  21206205.7424                   21206203.3164
 -16136987.93148 -12560130.47846  21771016.6644                   21771013.7704
 -33258048.50447 -25900823.01144  23552979.7424                   23552978.1644
  -6448299.92947  -5008488.64645  22608568.3284                   22608567.6844
 -21770200.46547 -16948555.75044  23259205.5474                   23259205.9494
 -37239356.05048 -29002337.18746  20612747.5164                   20612743.3524
 11  8  2  1 19  0.0000000  0  8G17G10G04G12G27G05G09G02
 -60866092.19247 -47413082.95145  22870226.9614                   22870226.3244
 -28357925.79748 -22081988.89846  20941923.7584                   20941921.8484
 -48813719.30148 -37997931.75746  21205866.1254                   21205863.7624
 -16279837.56447 -12671441.86246  21743833.5474                   21743830.4844
 -33269638.07446 -25909853.94644  23550773.1884                   23550773.8164
  -6619545.69447  -5141926.83445  22575981.7734                   22575980.8714
 -21769223.75347 -16947794.72244  23259391.7274                   23259392.0784
 -37322140.19448 -29066844.29746  20596994.3364                   20596989.6524
 11  8  2  1 19 30.0000000  0  8G17G10G04G12G27G05G09G02
 -60888332.03247 -47430412.72545  22865995.2344                   22865993.3444
 -28452565.40348 -22155734.03446  20923914.6884                   20923912.9184
 -48815227.68548 -37999107.12846  21205579.0234                   21205577.0164
 -16422259.93247 -12782420.31246  21716731.1564                   21716729.1564
 -33281014.31646 -25918718.59644  23548608.1254                   23548608.4144
  -6790521.84247  -5275154.92745  22543445.8984                   22543444.6954
 -21767918.60247 -16946777.78744  23259640.1414                   23259639.7074
 -37404534.67748 -29131047.78046  20581315.0784                   20581310.6254
 11  8  2  1 20  0.0000000  0  8G17G10G04G12G27G05G09G02
 -60910364.08847 -47447580.58245  22861802.1484                   22861800.9024
 -28546531.19448 -22228954.10346  20906033.5314                   20906031.8164
 -48816457.01148 -38000065.05846  21205345.0084                   21205343.2504
 -16564248.98648 -12893061.12046  21689711.1334                   21689709.0084
 -33292176.12846 -25927416.21543  23546485.0234                   23546484.4104
  -6961221.46547  -5408167.55145  22510962.7194                   22510961.6414
 -21766284.60747 -16945504.57444  23259950.6094                   23259950.0234
 -37486536.16048 -29194945.02546  20565710.6414                   20565706.0704
 11  8  2  1 20 30.0000000  0  9G17G10G04G12G25G27G05G09G02
 -60932194.20947 -47464591.07445  22857648.1804                   22857645.6914
 -28639828.34148 -22301653.17046  20888279.6174                   20888277.5514
 -48817415.83848 -38000812.19746  21205162.4924                   21205160.9494
 -16705808.29447 -13003367.05746  21662773.2894                   21662771.2624
  12344927.29856   9639643.08654  24580430.5314                   24580430.2934
 -33303132.38146 -25935953.64144  23544399.7814                   23544400.4494
  -7131647.96847  -5540967.35745  22478531.7584                   22478530.4184
 -21764331.68147 -16943982.88044  23260322.7274                   23260322.4454
 -37568151.95748 -29258541.73747  20550179.6484                   20550175.0084
 11  8  2  1 21  0.0000000  0  9G17G10G04G12G25G27G05G09G02
 -60953832.28646 -47481451.91245  22853531.1174                   22853528.6884
 -28732466.38048 -22373838.63546  20870651.2344                   20870648.9384
 -48818117.02648 -38001358.58846  21205028.9304                   21205027.0864
 -16846945.93947 -13113344.42546  21635916.1724                   21635913.9104
  12169588.79246   9503015.70143  24547063.9774                   24547065.4494
 -33313896.73346 -25944341.50344  23542350.7274                   23542351.2154
  -7301808.68147  -5673560.06045  22446151.1644                   22446149.6454
 -21762073.61847 -16942223.39644  23260752.0234                   23260752.1604
 -37649393.97448 -29321847.19546  20534719.9774                   20534715.1254
 11  8  2  1 21 30.0000000  0  9G17G10G04G12G25G27G05G09G02
 -60975282.17746 -47498166.13045  22849448.5084                   22849446.8984
 -28824447.98747 -22445512.60846  20853147.5474                   20853145.9494
 -48818566.73748 -38001709.03346  21204943.7424                   21204941.8874
 -16987663.58747 -13222994.53446  21609138.6334                   21609136.4184
  11994406.37646   9366509.97943  24513728.3054                   24513728.8054
 -33324475.79846 -25952585.01444  23540337.8054                   23540338.6374
  -7471705.08947  -5805946.82345  22413820.5864                   22413819.5864
 -21759518.03547 -16940232.09544  23261238.7584                   23261238.7894
 -37730266.92148 -29384865.06646  20519329.8754                   20519325.6374
 11  8  2  1 22  0.0000000  0  9G17G10G04G12G25G27G05G09G02
 -60996540.74046 -47514731.28045  22845403.4454                   22845401.7034
 -28915770.28248 -22516672.81946  20835769.8054                   20835767.1884
 -48818765.45248 -38001863.88646  21204905.4224                   21204903.7034
 -17127956.90648 -13332313.98446  21582441.4384                   21582438.9844
  11819384.25046   9230129.15643  24480421.9224                   24480423.0004
 -33334870.59747 -25960684.93044  23538360.8134                   23538360.9304
  -7641332.37247  -5938123.87345  22381541.6724                   22381540.7934
 -21756666.60447 -16938010.26344  23261781.2424                   23261780.1844
 -37810769.86948 -29447594.62447  20504010.7194                   20504006.0744
 11  8  2  1 22 30.0000000  0  9G17G10G04G12G25G27G05G09G02
 -61017606.25746 -47531145.96945  22841394.8674                   22841393.5394
 -29006430.54948 -22587317.16246  20818517.6174                   20818515.6374
 -48818713.31648 -38001823.26346  21204915.6174                   21204913.6134
 -17267821.62948 -13441299.46646  21555826.1884                   21555823.8524
  11644526.78946   9093876.69843  24447147.8444                   24447149.0084
 -33345082.04946 -25968641.95244  23536416.9304                   23536417.8634
  -7810685.56347  -6070087.31645  22349314.3674                   22349313.5594
 -21753520.91947 -16935559.13344  23262380.1724                   23262379.3554
 -37890902.28248 -29510035.45446  20488762.3204                   20488757.6914
 11  8  2  1 23  0.0000000  0  9G17G10G04G12G25G27G05G09G02
 -61038474.77846 -47547407.16945  22837424.0944                   22837421.9964
 -29096424.10248 -22657441.99246  20801392.1484                   20801390.5434
 -48818409.32448 -38001586.39446  21204973.6094                   21204972.2504
 -17407251.88048 -13549946.40546  21529293.5634                   21529290.7854
  11469839.85746   8957757.02543  24413905.4454                   24413906.8204
 -33355109.56846 -25976455.71744  23534508.7424                   23534509.0474
  -7979758.23347  -6201832.21045  22317141.1024                   22317140.1994
 -21750080.74947 -16932878.51544  23263033.7814                   23263034.6994
 -37970661.62048 -29572185.57446  20473584.8834                   20473579.8984
 11  8  2  1 23 30.0000000  0  9G17G10G04G12G25G27G05G09G02
 -61059145.00447 -47563513.86145  22833490.2034                   22833488.3284
 -29185748.88448 -22727045.70646  20784394.4844                   20784392.5944
 -48817854.87948 -38001154.38246  21205079.1564                   21205077.6024
 -17546244.49348 -13658252.32146  21502844.3364                   21502841.4614
  11295326.77846   8821772.91643  24380697.4924                   24380697.0474
 -33364955.14946 -25984127.62944  23532636.0554                   23532635.6804
  -8148546.62247  -6333355.58945  22285021.8134                   22285020.8364
 -21746348.99347 -16929970.75644  23263744.2424                   23263744.8634
 -38050047.61848 -29634044.79046  20458477.9924                   20458473.3014
 11  8  2  1 24  0.0000000  0  9G17G10G04G12G25G27G05G09G02
 -59504191.86547 -46351862.06445  23129387.9614                   23129386.1484
 -27698977.37848 -21568522.44446  21067317.6644                   21067315.5944
 -47241628.69447 -36772926.19546  21505025.0554                   21505023.2074
 -16109368.53348 -12538608.70846  21776272.5554                   21776270.0784
  12696419.35746   9913533.40243  24647316.4144                   24647317.3164
 -31799197.76747 -24764057.00144  23830589.3754                   23830590.1054
  -6741618.82447  -5237048.15945  22552751.4384                   22552750.9384
 -20166905.40447 -15699235.56144  23564303.3054                   23564302.7344
 -36553635.53948 -28468009.39246  20743236.0234                   20743230.9774
 11  8  2  1 24 30.0000000  0  9G17G10G04G12G25G27G05G09G02
 -59524455.17647 -46367651.67145  23125532.8284                   23125530.7934
 -27786953.58547 -21637075.32646  21050576.3284                   21050574.1644
 -47240571.56647 -36772102.47946  21505226.3444                   21505224.4414
 -16247469.63048 -12646219.94246  21749992.4064                   21749990.4494
  12522269.53247   9777832.34643  24614177.4774                   24614177.3244
 -31808679.63846 -24771445.54544  23828784.8134                   23828785.1094
  -6909821.84447  -5368115.38945  22520743.3204                   22520742.2734
 -20162592.18847 -15695874.65944  23565124.3524                   23565123.0634
 -36632270.54048 -28529283.40746  20728272.1174                   20728267.1884
 11  8  2  1 25  0.0000000  0  9G17G10G04G12G25G27G05G09G02
 -59544513.31347 -46383281.45045  23121715.3524                   23121713.7034
 -27874253.40848 -21705101.14146  21033963.5634                   21033961.3204
 -47239265.84648 -36771085.04146  21505474.7584                   21505472.9774
 -16385121.17047 -12753480.87046  21723798.5084                   21723795.9924
  12348305.60847   9642276.09343  24581072.6174                   24581074.2424
 -31817983.37947 -24778695.30044  23827014.7114                   23827015.5204
  -7077727.21747  -5498950.68045  22488792.4614                   22488789.8874
 -20157993.00646 -15692290.92044  23565998.9454                   23565998.5744
 -36710530.65948 -28590265.31846  20713379.5784                   20713374.8914
 11  8  2  1 25 30.0000000  0  9G17G10G04G12G25G27G05G09G02
 -59564370.62547 -46398754.68344  23117936.9224                   23117934.1954
 -27960880.34348 -21772602.64246  21017479.0554                   21017476.7424
 -47237717.86448 -36769878.84446  21505769.0784                   21505767.5004
 -16522325.09147 -12860393.01346  21697689.3444                   21697686.8674
  12174525.84647   9506863.37244  24548002.8834                   24548004.0234
 -31827115.71047 -24785811.48444  23825276.9534                   23825277.3874
  -7245336.08247  -5629554.94645  22456897.2194                   22456896.3014
 -20153115.45447 -15688490.31844  23566927.6644                   23566927.3444
 -36788421.41348 -28650959.40347  20698557.2344                   20698553.0164
 11  8  2  1 26  0.0000000  0  9G17G10G04G12G25G27G05G09G02
 -59584024.07747 -46414069.06745  23114196.6414                   23114195.1454
 -28046830.80248 -21839577.00246  21001123.5084                   21001121.4694
 -47235927.27048 -36768483.59446  21506109.7734                   21506108.3554
 -16659076.14347 -12966952.26446  21671666.4064                   21671664.0164
  12000935.33747   9371598.08343  24514970.0864                   24514970.8484
 -31836076.99446 -24792794.39243  23823571.5164                   23823572.2034
  -7412643.13847  -5759924.00245  22425059.1644                   22425058.3834
 -20147960.36846 -15684473.43044  23567908.0944                   23567908.2384
 -36865941.16548 -28711364.40346  20683805.9614                   20683801.3984
 11  8  2  1 26 30.0000000  0  9G17G10G04G12G25G27G05G09G02
 -59603470.24047 -46429221.93045  23110496.8444                   23110495.0664
 -28132101.30748 -21906021.54146  20984896.8364                   20984894.9454
 -47233893.75748 -36766899.06446  21506496.9224                   21506495.5634
 -16795369.19347 -13073154.62846  21645731.0554                   21645728.5824
  11827539.08947   9236484.20144  24481974.3134                   24481974.4104
 -31844867.45646 -24799644.17843  23821898.8754                   23821899.1844
  -7579642.96747  -5890053.65645  22393280.9064                   22393278.9964
 -20142528.58446 -15680240.94844  23568941.2344                   23568940.9694
 -36943088.30448 -28771479.04146  20669125.0864                   20669120.4104
 11  8  2  1 27  0.0000000  0  9G17G10G04G12G25G27G05G09G02
 -59622708.87347 -46444213.09845  23106835.6564                   23106833.8204
 -28216691.52648 -21971935.97246  20968799.6724                   20968797.9064
 -47231619.72548 -36765127.11046  21506929.7894                   21506928.1294
 -16931202.29047 -13178998.58546  21619882.6484                   21619880.2974
  11654339.31546   9101523.39144  24449015.1564                   24449015.7154
 -31853490.42847 -24806363.45044  23820257.7894                   23820258.9774
  -7746332.67347  -6019941.67446  22361560.4144                   22361559.2544
 -20136824.20247 -15675796.03644  23570028.2814                   23570027.1484
 -37019864.42648 -28831304.57546  20654515.1884                   20654510.5664
 11  8  2  1 27 30.0000000  0  9G17G10G04G12G25G27G05G09G02
 -59641743.14147 -46459045.01445  23103213.6174                   23103211.5984
 -28300603.81248 -22037322.16746  20952832.1254                   20952829.6914
 -47229110.72148 -36763172.06846  21507407.3754                   21507405.7584
 -17066576.29447 -13284484.82146  21594121.8674                   21594119.1884
  11481335.18947   8966715.03144  24416092.9774                   24416094.8164
 -31861951.86846 -24812956.85743  23818647.9614                   23818648.3984
  -7912712.89447  -6149588.53845  22329899.2664                   22329897.8834
 -20130853.75546 -15671143.80144  23571163.5634                   23571164.1414
 -37096273.80147 -28890844.35046  20639974.8364                   20639970.2034
 11  8  2  1 28  0.0000000  0  9G17G10G04G12G25G27G05G09G02
 -59660573.18647 -46473717.82845  23099630.3444                   23099628.5394
 -28383838.75348 -22102180.55246  20936992.8674                   20936990.5084
 -47226369.85048 -36761036.33246  21507928.8364                   21507927.5274
 -17201489.97447 -13389612.34646  21568448.6334                   21568445.6094
  11308528.18846   8832060.30544  24383209.0944                   24383210.9844
 -31870255.53046 -24819427.28843  23817067.5864                   23817068.9064
  -8078781.42747  -6278992.50545  22298297.6024                   22298296.0664
 -20124621.61546 -15666287.67944  23572350.3444                   23572350.0784
 -37172318.29648 -28950099.80347  20625504.3364                   20625499.8594
 11  8  2  1 28 30.0000000  0  9G17G10G04G12G25G27G05G09G02
 -59679198.21247 -46488230.87045  23096086.1254                   23096084.4454
 -28466394.91648 -22166509.99946  20921283.0704                   20921281.2384
 -47223398.80348 -36758721.24946  21508494.1724                   21508492.7344
 -17335940.44147 -13494378.93746  21542863.6564                   21542861.3134
  11135921.21046   8697561.43344  24350363.3674                   24350364.3594
 -31878403.74046 -24825776.67243  23815516.9844                   23815518.3444
  -8244535.18547  -6408151.20945  22266755.8674                   22266753.9224
 -20118130.98746 -15661230.09044  23573584.9384                   23573584.8014
 -37247998.51847 -29009071.40447  20611102.5864                   20611098.1484
 11  8  2  1 29  0.0000000  0  9G17G10G04G12G25G27G05G09G02
 -59697619.75947 -46502585.34145  23092580.3914                   23092578.8554
 -28548273.82748 -22230311.74346  20905702.2274                   20905699.5394
 -47220201.83448 -36756230.13846  21509102.8204                   21509101.0164
 -17469927.55747 -13598784.47646  21517366.4924                   21517363.6724
  10963514.68946   8563218.74844  24317555.4844                   24317556.3014
 -31886401.42046 -24832008.72843  23813995.6024                   23813996.3984
  -8409973.36547  -6537063.99645  22235273.8524                   22235272.0824
 -20111387.01247 -15655975.08044  23574868.0864                   23574868.9844
 -37323317.81348 -29067761.76046  20596769.9224                   20596765.2974
 11  8  2  1 29 30.0000000  0  9G17G10G04G12G25G27G05G09G02
 -59715832.27047 -46516776.93745  23089114.8054                   23089113.4024
 -28629469.36548 -22293580.98146  20890250.6564                   20890248.5514
 -47216776.15648 -36753560.78745  21509754.6094                   21509752.6844
 -17603443.82247 -13702823.10746  21491959.4224                   21491956.7384
  10791316.21046   8429038.17744  24284786.9384                   24284787.6954
 -31894246.50846 -24838121.93943  23812502.7114                   23812503.5474
  -8575087.94947  -6665724.64345  22203853.7664                   22203851.6914
 -20104388.71547 -15650521.94544  23576200.2504                   23576200.1524
 -37398272.09248 -29126167.69546  20582506.5234                   20582501.7814
 11  8  2  1 30  0.0000000  0  9G17G10G04G12G25G27G05G09G02
 -59733839.67447 -46530808.69845  23085688.3834                   23085686.9534
 -28709985.35248 -22356320.70146  20874929.2584                   20874927.3874
 -47213127.92148 -36750718.02645  21510448.6254                   21510447.1684
 -17736491.19447 -13806496.36746  21466641.3054                   21466638.5514
  10619324.04246   8295018.32344  24252057.4064                   24252059.0124
 -31901946.11446 -24844121.64844  23811038.3134                   23811038.1214
  -8739880.43947  -6794134.30045  22172493.9454                   22172492.9384
 -20097143.60346 -15644876.43844  23577578.9384                   23577578.2624
 -37472866.90248 -29184293.52047  20568311.7664                   20568307.4654
 11  8  2  1 30 30.0000000  0  9G17G10G04G12G25G27G05G09G02
 -59751643.00647 -46544681.45845  23082300.7504                   23082298.7424
 -28789822.62148 -22418531.54846  20859736.3594                   20859734.2664
 -47209260.94848 -36747704.81445  21511184.2814                   21511183.0164
 -17869068.63847 -13909803.45546  21441412.6414                   21441409.8594
  10447539.25446   8161160.14144  24219368.0554                   24219369.9024
 -31909504.38746 -24850011.34643  23809598.6804                   23809600.0354
  -8904349.22947  -6922291.73445  22141196.9844                   22141194.6764
 -20089656.60447 -15639042.49244  23579003.5554                   23579003.9184
 -37547104.53447 -29242141.03646  20554184.6024                   20554180.5824
 11  8  2  1 31  0.0000000  0  9G17G10G04G12G25G27G05G09G02
 -59769240.05647 -46558393.48845  23078951.7664                   23078950.1764
 -28868979.05848 -22480211.86546  20844673.8134                   20844671.8834
 -47205175.86448 -36744521.64745  21511962.0944                   21511960.1604
 -18001172.40847 -14012741.43046  21416274.1254                   21416271.1954
  10275965.80946   8027466.53843  24186718.4454                   24186719.1524
 -31916922.64546 -24855791.89743  23808188.3364                   23808188.3594
  -9068489.96747  -7050193.54545  22109961.9844                   22109960.0394
 -20081929.86247 -15633021.72644  23580474.5164                   23580473.5314
 -37620985.00848 -29299710.23547  20540125.6484                   20540121.4884
 11  8  2  1 31 30.0000000  0  9G17G10G04G12G25G27G05G09G02
 -59786629.80247 -46571944.00445  23075643.0474                   23075641.2854
 -28947453.64348 -22541360.87546  20829740.4844                   20829738.1094
 -47200873.86648 -36741169.46445  21512780.5474                   21512779.1214
 -18132799.88747 -14115308.28146  21391226.2034                   21391223.8014
  10104606.92646   7893940.20643  24154110.3754                   24154110.5514
 -31924203.14046 -24861465.06443  23806802.1094                   23806803.7504
  -9232299.28847  -7177837.10945  22078789.8754                   22078788.2424
 -20073965.98547 -15626816.19444  23581989.0164                   23581989.8794
 -37694508.18748 -29357001.02746  20526135.0704                   20526130.2154
 11  8  2  1 32  0.0000000  0  9G17G10G04G12G25G27G05G09G02
 -59803818.25447 -46585337.61845  23072372.3594                   23072370.9574
 -29025252.30748 -22601983.19346  20814935.5234                   20814933.2734
 -47196363.55848 -36737654.95145  21513638.8134                   21513636.7934
 -18263955.03347 -14217507.06746  21366268.1804                   21366265.1884
   9933458.84547   7760578.06144  24121542.2274                   24121543.4224
 -31931355.05846 -24867038.07243  23805441.6094                   23805441.5084
  -9395780.87047  -7305225.29745  22047680.4614                   22047679.1844
 -20065774.88047 -15620433.55544  23583548.3364                   23583548.1954
 -37767681.78848 -29414019.42247  20512210.4064                   20512205.8954
 11  8  2  1 32 30.0000000  0  9G17G10G04G12G25G27G05G09G02
 -59820802.53747 -46598572.14045  23069140.1024                   23069138.2504
 -29102372.02648 -22662076.46746  20800260.2424                   20800257.7974
 -47191644.76348 -36733977.98445  21514537.1564                   21514535.1454
 -18394633.17048 -14319334.17046  21341400.6414                   21341398.1804
   9762526.40247   7627383.96444  24089014.3204                   24089014.9614
 -31938378.61446 -24872511.14743  23804104.7734                   23804105.3164
  -9558928.99547  -7432353.67645  22016634.8834                   22016632.8364
 -20057357.53447 -15613874.64744  23585150.2664                   23585149.9964
 -37840504.76948 -29470764.59247  20498352.5944                   20498347.8874
 11  8  2  1 33  0.0000000  0  9G17G10G04G12G25G27G05G09G02
 -59837580.68747 -46611646.03845  23065947.4924                   23065945.2074
 -29178811.01248 -22721639.29946  20785714.5944                   20785712.2774
 -47186718.05948 -36730139.00245  21515474.6174                   21515473.0554
 -18524830.46948 -14420786.58346  21316625.0164                   21316622.2344
   9591813.50047   7494360.89944  24056528.8914                   24056529.5434
 -31945275.34646 -24877885.27443  23802793.2734                   23802793.9224
  -9721739.61047  -7559219.05746  21985652.5474                   21985650.9264
 -20048715.96146 -15607141.00043  23586794.6254                   23586793.4844
 -37912976.90348 -29527236.37746  20484561.5704                   20484557.1644
 11  8  2  1 33 30.0000000  0  9G17G10G04G12G25G27G05G09G02
 -59854152.70947 -46624559.32644  23062793.5234                   23062792.5824
 -29254569.38748 -22780671.77946  20771298.0634                   20771296.2154
 -47181586.43048 -36726140.35245  21516451.1024                   21516448.8484
 -18654545.34347 -14521863.08346  21291940.9844                   21291938.6054
   9421322.01747   7361510.42744  24024086.0004                   24024086.7704
 -31952048.61646 -24883163.20043  23801504.4064                   23801504.4104
  -9884210.44547  -7685819.67246  21954735.0084                   21954733.8634
 -20039854.35847 -15600235.91244  23588480.5084                   23588480.7154
 -37985099.56548 -29583435.86546  20470837.4844                   20470832.8914
 11  8  2  1 34  0.0000000  0  9G17G10G04G12G25G27G05G09G02
 -59870521.19447 -46637314.02544  23059678.7584                   23059677.4224
 -29329649.59347 -22839175.82146  20757010.7734                   20757008.4924
 -47176254.55748 -36721985.66945  21517465.1954                   21517463.8364
 -18783778.53647 -14622564.24946  21267349.0704                   21267346.6914
   9251051.76547   7228832.31044  23991684.9064                   23991684.7704
 -31958703.94946 -24888349.34244  23800237.7664                   23800238.8404
 -10046341.60347  -7812155.56146  21923882.8914                   21923881.0594
 -20030779.00147 -15593164.29544  23590207.6804                   23590206.9064
 -38056876.65148 -29639366.05847  20457178.5864                   20457174.0744
 11  8  2  1 34 30.0000000  0  9G17G10G04G12G25G27G05G09G02
 -59886683.22147 -46649907.84144  23056602.7274                   23056601.5124
 -29404049.00948 -22897149.37346  20742853.1484                   20742850.9224
 -47170722.02248 -36717674.61445  21518518.5474                   21518516.5234
 -18912525.11448 -14722886.22846  21242848.9534                   21242846.6684
   9081007.74847   7096330.50244  23959325.9924                   23959325.6994
 -31965241.90046 -24893443.88143  23798993.8754                   23798995.0204
 -10208127.55547  -7938222.49546  21893095.9924                   21893094.1644
 -20021490.89747 -15585926.84644  23591975.6174                   23591975.9614
 -38128307.51248 -29695026.47447  20443585.4844                   20443581.8164
 11  8  2  1 35  0.0000000  0  9G17G10G04G12G25G27G05G09G02
 -58327216.23647 -45434738.77844  23353359.7894                   23353358.0634
 -27902342.83348 -21726988.70446  21028618.1174                   21028616.4454
 -45589569.40348 -35485607.64145  21819401.3914                   21819399.9384
 -17465357.10548 -13595222.82746  21518236.0864                   21518233.3914
  10486619.85547   8191612.65144  24226804.9534                   24226805.5944
 -30396243.55646 -23670847.88943  24097564.1564                   24097565.4844
  -8794138.84847  -6836413.05346  22162168.9304                   22162167.0084
 -18436572.21347 -14350925.35644  23893575.3054                   23893575.2194
 -36623968.40448 -28522814.18346  20729851.8524                   20729847.2154
 11  8  2  1 35 30.0000000  0  9G17G10G04G12G25G27G05G09G02
 -58342966.06647 -45447011.39944  23350362.5704                   23350361.5274
 -27975381.05148 -21783901.57446  21014719.7114                   21014717.4654
 -45583643.91848 -35480990.39445  21820529.1254                   21820527.7154
 -17593125.89948 -13694782.90546  21493922.2034                   21493919.8054
  10317033.89747   8059467.77844  24194534.0864                   24194534.3444
 -30402557.35046 -23675767.85143  24096362.5784                   24096362.9774
  -8955228.51647  -6961937.41146  22131514.4064                   22131513.0354
 -18426870.99047 -14343366.01244  23895421.6484                   23895421.9614
 -36694711.09448 -28577938.34346  20716389.5634                   20716385.3164
 11  8  2  1 36  0.0000000  0  9G17G10G04G12G25G27G05G09G02
 -58358508.37247 -45459122.28444  23347404.7034                   23347403.7304
 -28047737.74447 -21840283.40046  21000950.6094                   21000948.4454
 -45577524.42948 -35476221.98445  21821693.8204                   21821691.6024
 -17720402.05348 -13793959.10446  21469702.4144                   21469699.5664
  10147681.47047   7927504.87644  24162306.8524                   24162307.3834
 -30408762.38446 -23680603.02843  24095182.5164                   24095182.9384
  -9115965.00547  -7087186.57946  22100926.9144                   22100925.6134
 -18416967.71547 -14335649.27544  23897306.0314                   23897306.1804
 -36765110.81948 -28632795.26847  20702993.3754                   20702988.5474
 11  8  2  1 36 30.0000000  0  9G17G10G04G12G25G27G05G09G02
 -58373849.51146 -45471076.43544  23344485.4774                   23344483.8984
 -28119419.20147 -21896139.06046  20987310.3204                   20987307.7384
 -45571219.47948 -35471309.05745  21822893.8754                   21822891.7934
 -17847190.11848 -13892754.96846  21445575.7894                   21445572.9964
   9978558.54247   7795720.83444  24130123.6094                   24130125.3594
 -30414868.43346 -23685361.11543  24094019.6094                   24094020.3874
  -9276352.11147  -7212163.49046  22070406.9614                   22070405.1914
 -18406872.67647 -14327783.09244  23899227.7584                   23899227.1484
 -36835175.65248 -28687391.24447  20689660.3754                   20689655.8594
 11  8  2  1 37  0.0000000  0  9G17G10G04G12G25G27G05G09G02
 -58388985.59147 -45482870.79344  23341605.1094                   23341603.6214
 -28190422.15247 -21951466.00346  20973798.5234                   20973796.3594
 -45564727.73148 -35466250.56545  21824129.1804                   21824127.6414
 -17973484.07248 -13991165.83346  21421542.4844                   21421540.1454
   9809670.95547   7664120.22444  24097985.6484                   24097985.9734
 -30420874.79846 -23690041.51443  24092876.8834                   24092877.5904
  -9436383.76647  -7336863.43546  22039953.8754                   22039952.3914
 -18396585.69947 -14319767.31144  23901185.4224                   23901185.3404
 -36904903.21948 -28741724.41747  20676391.7274                   20676387.4614
 11  8  2  1 37 30.0000000  0  9G17G10G04G12G25G27G05G09G02
 -58403916.67347 -45494505.39844  23338763.7194                   23338762.3714
 -28260746.80747 -22006264.43546  20960416.4844                   20960414.0824
 -45558052.07448 -35461048.76145  21825399.4384                   21825397.6564
 -18099282.85248 -14089190.84446  21397603.9454                   21397601.3554
   9641020.64046   7532704.45144  24065892.2734                   24065892.9224
 -30426785.07346 -23694647.00743  24091752.0084                   24091753.1914
  -9596057.89047  -7461284.76546  22009568.4224                   22009567.0044
 -18386111.06747 -14311605.35244  23903178.3984                   23903179.0784
 -36974295.28748 -28795796.14847  20663186.6804                   20663181.8874
 11  8  2  1 38  0.0000000  0  9G17G10G04G12G25G27G05G09G02
 -58418638.55947 -45505977.00344  23335962.7424                   23335960.8634
 -28330388.81947 -22060530.91046  20947163.6094                   20947161.5124
 -45551190.34748 -35455701.95745  21826704.8834                   21826702.9574
 -18224580.16348 -14186825.09246  21373760.8284                   21373758.2154
   9472614.24647   7401478.77544  24033845.5394                   24033845.7934
 -30432597.91146 -23699176.70343  24090646.6094                   24090647.4574
  -9755367.55747  -7585422.13346  21979253.3594                   21979251.7704
 -18375448.20047 -14303296.64744  23905206.8984                   23905207.4574
 -37043348.94948 -28849604.19346  20650046.4774                   20650041.9144
 11  8  2  1 38 30.0000000  0  9G17G10G04G12G25G27G05G09G02
 -58433156.74947 -45517289.88544  23333200.0704                   23333198.0514
 -28399354.31348 -22114270.23646  20934040.1254                   20934038.0124
 -45544150.50248 -35450216.37145  21828044.8594                   21828043.2854
 -18349379.73248 -14284071.51146  21350012.1094                   21350009.4844
   9304448.32947   7270440.46444  24001845.3444                   24001845.1214
 -30438322.17546 -23703637.21143  24089557.1644                   24089558.8134
  -9914315.83447  -7709277.88846  21949006.1024                   21949004.3524
 -18364606.42146 -14294848.61543  23907270.7034                   23907269.5864
 -37112071.33248 -28903154.10446  20636968.9144                   20636964.0704
 11  8  2  1 39  0.0000000  0  9G17G10G04G12G25G27G05G09G02
 -58447473.24147 -45528445.63544  23330475.5704                   23330473.8284
 -28467645.28947 -22167483.97346  20921044.8444                   20921042.4224
 -45536936.78548 -35444595.32745  21829417.0704                   21829415.7504
 -18473681.26548 -14380929.83446  21326358.4924                   21326355.9654
   9136523.27547   7139589.87144  23969888.8834                   23969890.5594
 -30443962.64046 -23708032.53843  24088484.2274                   24088485.0634
 -10072902.28847  -7832851.69846  21918827.9224                   21918826.3674
 -18353591.27847 -14286265.42944  23909366.5944                   23909366.4224
 -37180465.93348 -28956448.58946  20623953.7344                   20623949.2734
 11  8  2  1 39 30.0000000  0  9G17G10G04G12G25G27G05G09G02
 -58461585.09447 -45539441.87444  23327790.4614                   23327788.4384
 -28535259.49448 -22220170.34146  20908177.9694                   20908175.9534
 -45529549.13448 -35438838.73545  21830823.5004                   21830821.7974
 -18597481.08248 -14477397.21346  21302800.0784                   21302797.5204
   8968843.83247   7008930.64144  23937980.7894                   23937981.9844
 -30449520.09646 -23712363.14844  24087426.6174                   24087427.6684
 -10231121.85147  -7956139.62046  21888720.1954                   21888718.7194
 -18342404.25446 -14277548.35043  23911495.5004                   23911495.4384
 -37248531.71248 -29009486.85546  20611001.5634                   20610996.5354
 11  8  2  1 40  0.0000000  0  9G17G10G04G12G25G27G05G09G02
 -58475495.01747 -45550280.77645  23325143.9384                   23325141.9064
 -28602199.99348 -22272331.75246  20895439.6884                   20895437.2704
 -45521992.40848 -35432950.37545  21832260.7584                   21832259.9654
 -18720780.10748 -14573474.37246  21279337.0004                   21279334.0704
   8801409.49947   6878462.44444  23906119.1644                   23906120.3364
 -30455000.31546 -23716633.52843  24086383.0784                   24086384.8284
 -10388975.54847  -8079142.43346  21858681.2974                   21858679.4104
 -18331051.82547 -14268702.37844  23913656.0944                   23913656.1214
 -37316272.93448 -29062272.21547  20598110.6334                   20598106.8874
 11  8  2  1 40 30.0000000  0  9G17G10G04G12G25G27G05G09G02
 -58489200.75747 -45560960.58645  23322535.5554                   23322534.3244
 -28668464.74947 -22323966.61346  20882829.7584                   20882827.6374
 -45514266.41948 -35426930.12845  21833731.4144                   21833729.6604
 -18843573.97248 -14669157.90446  21255970.1804                   21255967.2624
   8634225.06947   6748188.89844  23874305.7344                   23874305.4384
 -30460403.88946 -23720844.26243  24085356.3364                   24085355.9804
 -10546457.59447  -8201855.66546  21828713.0394                   21828711.7584
 -18319535.29446 -14259728.57344  23915847.7734                   23915847.2704
 -37383688.57948 -29114803.88046  20585281.5004                   20585277.4494
 11  8  2  1 41  0.0000000  0  9G17G10G04G12G25G27G05G09G02
 -58502700.39147 -45571479.83344  23319966.4224                   23319964.8054
 -28734052.63647 -22375074.06246  20870349.1954                   20870347.1334
 -45506372.21748 -35420778.82045  21835234.0394                   21835231.7234
 -18965859.22448 -14764445.09846  21232700.0234                   21232697.0824
   8467294.26047   6618113.03244  23842540.0164                   23842540.1454
 -30465732.48446 -23724996.57343  24084341.8204                   24084342.4384
 -10703564.18147  -8324276.33846  21798816.6094                   21798814.9574
 -18307856.83146 -14250628.58743  23918070.2584                   23918070.2194
 -37450778.86348 -29167082.02847  20572514.7664                   20572510.3554
 11  8  2  1 41 30.0000000  0  9G17G10G04G12G25G27G05G09G02
 -58515999.13947 -45581842.52945  23317435.7664                   23317434.3244
 -28798969.00748 -22425658.23046  20857995.5634                   20857993.9844
 -45498317.07048 -35414502.08145  21836766.6644                   21836764.9454
 -19087638.76848 -14859338.26646  21209526.0704                   21209523.2934
   8300614.18247   6488232.51644  23810821.1564                   23810821.5314
 -30470994.47046 -23729096.90843  24083341.1334                   24083341.5314
 -10860298.06047  -8446406.59946  21768991.5164                   21768989.4384
 -18296025.36846 -14241409.32944  23920321.3754                   23920321.8954
 -37517550.38348 -29219111.77147  20559808.9144                   20559803.9184
 11  8  2  1 42  0.0000000  0  9G17G10G04G12G25G27G05G09G02
 -58529095.28447 -45592047.34744  23314943.7344                   23314942.3054
 -28863212.95148 -22475718.42646  20845770.4384                   20845768.6414
 -45490101.84848 -35408100.64645  21838330.0944                   21838328.4614
 -19208910.61548 -14953835.81146  21186449.0164                   21186446.3244
   8134188.57147   6358550.29044  23779151.0394                   23779150.9104
 -30476191.45946 -23733146.64343  24082352.2344                   24082352.5904
 -11016655.69147  -8568243.66646  21739237.2194                   21739235.7704
 -18284043.17046 -14232072.57743  23922601.4454                   23922601.6214
 -37584002.84548 -29270892.90346  20547163.2114                   20547158.4144
 11  8  2  1 42 30.0000000  0  9G17G10G04G12G25G27G05G09G02
 -58541991.94347 -45602096.70144  23312489.6804                   23312487.6094
 -28926787.67748 -22525257.15646  20833672.3834                   20833670.2624
 -45481731.76348 -35401578.52345  21839923.1414                   21839920.8484
 -19329675.58648 -15047938.38046  21163468.0704                   21163465.3054
   7968016.66747   6229065.72444  23747529.7734                   23747529.8404
 -30481329.51646 -23737150.43943  24081374.1884                   24081374.8984
 -11172637.38147  -8689787.80246  21709554.8674                   21709553.3404
 -18271916.97546 -14222623.64043  23924909.4064                   23924909.1564
 -37650141.15248 -29322429.23646  20534577.6954                   20534573.3054
 11  8  2  1 43  0.0000000  0  9G17G10G04G12G25G27G05G09G02
 -58554688.79147 -45611990.37044  23310073.3054                   23310071.7034
 -28989693.48248 -22574274.66246  20821702.2274                   20821700.0744
 -45473208.59148 -35394937.10845  21841544.9774                   21841543.1454
 -19449931.48648 -15141644.28446  21140584.1254                   21140581.5744
   7802101.11647   6099780.93444  23715956.8444                   23715957.3754
 -30486411.28046 -23741110.31643  24080407.0394                   24080408.7854
 -11328240.51747  -8811036.95046  21679944.5784                   21679942.7584
 -18259650.18646 -14213065.19344  23927243.5704                   23927244.6954
 -37715966.50148 -29373721.71747  20522051.5634                   20522046.5824
 11  8  2  1 43 30.0000000  0  9G17G10G04G12G25G27G05G09G02
 -58567185.74347 -45621728.30944  23307695.1644                   23307694.5784
 -29051930.90748 -22622771.34046  20809858.7894                   20809856.5314
 -45464534.84548 -35388178.35245  21843195.0164                   21843193.1604
 -19569676.69348 -15234952.23746  21117797.0634                   21117794.8054
   7636444.18947   5970697.67344  23684434.1564                   23684433.8204
 -30491439.91346 -23745028.88743  24079450.7034                   24079451.5554
 -11483462.66447  -8931989.23846  21650406.8594                   21650405.6954
 -18247246.48047 -14203400.06044  23929604.0704                   23929604.2704
 -37781480.36548 -29424771.46846  20509584.8754                   20509579.9064
 11  8  2  1 44  0.0000000  0  9G17G10G04G12G25G27G05G09G02
 -58579481.78447 -45631309.69844  23305355.7814                   23305354.5204
 -29113499.26748 -22670746.66346  20798142.7664                   20798140.4844
 -45455711.74848 -35381303.22045  21844873.8754                   21844872.7664
 -19688908.83548 -15327860.40046  21095108.0784                   21095105.3094
   7471048.91947   5841818.27044  23652959.7034                   23652959.9454
 -30496417.85546 -23748907.90343  24078502.8364                   24078503.7074
 -11638300.61747  -9052642.13446  21620942.2734                   21620940.6174
 -18234708.72046 -14193630.44943  23931989.5944                   23931990.1414
 -37846683.32148 -29475578.96346  20497176.7664                   20497172.3324
 11  8  2  1 44 30.0000000  0  9G17G10G04G12G25G27G05G09G02
 -58591578.95047 -45640736.08344  23303053.6724                   23303052.1134
 -29174401.46148 -22718202.91146  20786553.4064                   20786550.7034
 -45446743.59848 -35374315.07045  21846580.8204                   21846579.1484
 -19807627.91848 -15420368.77646  21072516.7584                   21072513.9924
   7305915.69347   5713143.10744  23621536.0634                   23621536.2664
 -30501350.05246 -23752751.23443  24077564.7504                   24077565.9024
 -11792754.08547  -9172995.43046  21591550.2974                   21591549.3714
 -18222042.67346 -14183760.90844  23934400.6174                   23934401.1294
 -37911578.74348 -29526146.80746  20484827.2344                   20484822.7544
 11  8  2  1 45  0.0000000  0  9G17G10G04G12G25G27G05G09G02
 -58603474.40947 -45650005.29744  23300789.9924                   23300789.1374
 -29234635.50048 -22765138.51246  20775091.4304                   20775089.4454
 -45437629.81547 -35367213.44745  21848314.6414                   21848313.6844
 -19925829.77548 -15512474.12646  21050023.6024                   21050020.7584
   7141049.57247   5584675.98944  23590163.0004                   23590164.3244
 -30506236.81246 -23756559.24943  24076634.4384                   24076636.8524
 -11946817.91048  -9293045.12146  21562233.5164                   21562231.6684
 -18209249.13947 -14173791.97844  23936834.8674                   23936835.5394
 -37976165.63548 -29576474.23946  20472537.0314                   20472532.5824
 11  8  2  1 45 30.0000000  0  9G17G10G04G12G25G27G05G09G02
 -58615169.11147 -45659118.11844  23298564.1644                   23298562.7424
 -29294202.77647 -22811554.56546  20763756.2584                   20763753.7894
 -45428373.74847 -35360000.96245  21850076.5554                   21850075.2304
 -20043513.71148 -15604175.88646  21027628.9924                   21027626.5044
   6976451.74047   5456417.98044  23558840.9694                   23558841.7814
 -30511082.26045 -23760335.13343  24075713.2274                   24075713.8874
 -12100490.68247  -9412790.08746  21532990.1804                   21532988.7854
 -18196333.03747 -14163727.60744  23939293.2344                   23939293.4884
 -38040446.54048 -29626563.25947  20460304.8364                   20460300.1054
 11  8  2  1 46  0.0000000  0  9G17G10G04G12G25G27G05G09G02
 -58626666.16847 -45668076.87444  23296376.8524                   23296374.9654
 -29353107.21047 -22857454.10346  20752547.1954                   20752544.3674
 -45418980.70147 -35352681.71445  21851863.5944                   21851862.2894
 -20160681.07448 -15695475.12746  21005332.8054                   21005330.3914
   6812121.37347   5328368.38544  23527570.4694                   23527570.5044
 -30515892.64846 -23764083.56543  24074798.4144                   24074799.8094
 -12253773.35547  -9532231.07246  21503821.6884                   21503819.8914
 -18183301.29147 -14153573.06344  23941772.7734                   23941773.5664
 -38104426.14548 -29676417.49947  20448129.7114                   20448125.1134
 11  8  2  1 46 30.0000000  0  9G17G10G04G12G25G27G05G09G02
 -57062544.76647 -44449281.00044  23594019.3674                   23594017.4614
 -27835927.17647 -21675235.88246  21041256.4774                   21041254.4734
 -43834032.51347 -34117657.18445  22153469.6024                   22153467.8444
 -18701906.12048 -14558767.36046  21282928.5234                   21282925.4844
   8223486.71347   6428133.60244  23796144.0474                   23796144.9144
 -28945250.27446 -22540206.46142  24373681.1254                   24373681.9144
 -10831237.91747  -8423761.85646  21774521.0234                   21774518.9614
 -16594737.53647 -12915731.27544  24244066.0474                   24244067.8054
 -36592683.40948 -28498436.14746  20735805.3364                   20735800.5044
 11  8  2  1 47  0.0000000  0  9G17G10G04G12G25G27G05G09G02
 -57073643.51447 -44457929.41344  23591906.5784                   23591905.2304
 -27893504.84548 -21720101.58046  21030299.7894                   21030297.6454
 -43824368.73547 -34110126.98145  22155308.4844                   22155306.9184
 -18818033.22348 -14649256.00346  21260830.4694                   21260827.6254
   8059701.08147   6300508.49144  23764976.2504                   23764977.4534
 -28949996.66646 -22543905.01843  24372777.9454                   24372778.9384
 -10983730.21847  -8542586.97746  21745502.9774                   21745501.3634
 -16581482.32846 -12905402.62743  24246589.3834                   24246589.3984
 -36656062.27348 -28547822.27946  20723744.4774                   20723739.9264
 11  8  2  1 47 30.0000000  0  9G17G10G04G12G25G27G05G09G02
 -57084544.79546 -44466423.94344  23589831.9064                   23589831.6644
 -27950422.14148 -21764452.69546  21019469.0704                   21019466.7704
 -43814575.05647 -34102495.56445  22157172.3054                   22157170.0824
 -18933639.56148 -14739338.86346  21238831.0784                   21238828.5554
   7896189.48647   6173096.86544  23733861.4144                   23733862.6334
 -28954717.46146 -22547583.69543  24371880.0084                   24371882.1454
 -11135825.69647  -8661102.89046  21716560.0784                   21716557.9384
 -16568122.75646 -12894992.69743  24249130.4614                   24249131.2384
 -36719144.86848 -28596977.52847  20711740.4144                   20711735.6054
 11  8  2  1 48  0.0000000  0  9G17G10G04G12G25G27G05G09G02
 -57095249.88147 -44474765.60344  23587796.4144                   23587794.5474
 -28006680.75847 -21808290.58146  21008763.1174                   21008760.9694
 -43804654.44747 -34094765.24745  22159060.1024                   22159058.4224
 -19048724.53847 -14829015.46546  21216931.2734                   21216928.6484
   7732952.90447   6045899.53444  23702799.1174                   23702798.9734
 -28959417.05145 -22551245.87743  24370984.3524                   24370986.8484
 -11287523.37647  -8779308.84746  21687692.6094                   21687690.7424
 -16554663.73847 -12884505.20943  24251692.7194                   24251693.3204
 -36781933.58248 -28645903.79546  20699792.0314                   20699787.3954
 11  8  2  1 48 30.0000000  0  9G17G10G04G12G25G27G05G09G02
 -57105756.20746 -44482952.34644  23585796.3364                   23585795.3714
 -28062279.09747 -21851613.94346  20998183.1094                   20998181.1724
 -43794606.93647 -34086936.03645  22160972.0704                   22160970.9104
 -19163284.33648 -14918282.82546  21195131.5394                   21195128.1454
   7569996.19947   5918920.30844  23671788.8364                   23671789.2504
 -28964096.00046 -22554891.93343  24370095.5864                   24370096.5824
 -11438818.04147  -8897200.74146  21658902.3594                   21658900.9844
 -16541106.54047 -12873941.26343  24254273.1564                   24254272.4614
 -36844427.60748 -28694600.42746  20687899.9924                   20687895.3954
 11  8  2  1 49  0.0000000  0  9G17G10G04G12G25G27G05G09G02
 -57116062.92047 -44490983.61044  23583835.4774                   23583833.8524
 -28117217.20847 -21894422.85346  20987729.0704                   20987726.5984
 -43784433.30747 -34079008.54845  22162908.4614                   22162906.7154
 -19277316.52647 -15007139.07346  21173431.4774                   21173428.6524
   7407322.58847   5792161.66845  23640833.3984                   23640833.7074
 -28968756.33146 -22558523.46843  24369208.6884                   24369210.5434
 -11589706.71947  -9014776.28146  21630189.1724                   21630186.9614
 -16527453.96346 -12863302.97843  24256869.8754                   24256871.3364
 -36906628.02448 -28743068.28647  20676063.4304                   20676058.9384
 11  8  2  1 49 30.0000000  0  9G17G10G04G12G25G27G05G09G02
 -57126174.63647 -44498862.91944  23581910.7344                   23581909.7854
 -28171500.49748 -21936721.50346  20977399.0234                   20977396.6094
 -43774140.61847 -34070988.27645  22164866.7974                   22164865.7664
 -19390824.41648 -15095586.76246  21151831.8284                   21151828.9734
   7244929.71947   5665621.78944  23609931.0784                   23609931.9064
 -28973405.70846 -22562146.46743  24368323.1644                   24368325.7034
 -11740191.86747  -9132037.38746  21601552.5704                   21601550.7894
 -16513714.07846 -12852596.69943  24259485.6804                   24259486.1844
 -36968540.68248 -28791311.91347  20664281.9844                   20664276.8794
 11  8  2  1 50  0.0000000  0  9G17G10G04G12G25G27G05G09G02
 -57136091.17847 -44506590.11844  23580024.4614                   23580022.4144
 -28225129.32847 -21978510.18246  20967193.9534                   20967191.6564
 -43763730.37147 -34062876.43445  22166847.4844                   22166846.5314
 -19503805.72748 -15183624.13746  21130332.1484                   21130329.0784
   7082820.28847   5539302.75944  23579082.8134                   23579083.7384
 -28978046.73446 -22565762.87143  24367439.7734                   24367441.8554
 -11890270.80648  -9248981.95446  21572993.2664                   21572991.4924
 -16499890.42646 -12841825.11144  24262115.7504                   24262116.3444
 -37030166.77848 -28839332.23246  20652554.6804                   20652549.9774
 11  8  2  1 50 30.0000000  0  9G17G10G04G12G25G27G05G09G02
 -57145810.51747 -44514163.64944  23578174.4694                   23578173.7774
 -28278102.92248 -22019788.30446  20957113.3054                   20957111.1294
 -43753203.17447 -34054673.43245  22168851.1484                   22168849.4224
 -19616257.39848 -15271248.79846  21108933.4694                   21108930.5084
   6920998.36747   5413207.80544  23548288.7274                   23548289.3984
 -28982680.81046 -22569374.03943  24366558.9304                   24366561.3244
 -12039939.55948  -9365606.90346  21544512.9694                   21544510.4224
 -16485984.80646 -12830989.67843  24264762.3984                   24264762.5594
 -37091506.19248 -28887129.18746  20640882.5474                   20640877.5354
 11  8  2  1 51  0.0000000  0  9G17G10G04G12G25G27G05G09G02
 -57155328.53647 -44521580.32644  23576362.9064                   23576361.9304
 -28330417.78848 -22060553.12146  20947157.9614                   20947156.3914
 -43742556.68047 -34046377.46845  22170877.2814                   22170875.3754
 -19728173.66848 -15358456.28046  21087636.5554                   21087633.1914
   6759470.53647   5287341.97044  23517550.7584                   23517550.6884
 -28987306.64846 -22572978.68543  24365679.7974                   24365681.0164
 -12189191.40447  -9481906.98546  21516110.7194                   21516108.7704
 -16471996.57046 -12820089.86443  24267424.3054                   24267423.8754
 -37152555.93048 -28934700.41647  20629264.8204                   20629259.9224
 11  8  2  1 51 30.0000000  0  9G17G10G04G12G25G27G05G09G02
 -57164647.51146 -44528841.89644  23574589.6884                   23574589.3554
 -28382077.65647 -22100807.56046  20937327.1094                   20937325.7974
 -43731795.71047 -34037992.29345  22172924.8054                   22172923.2234
 -19839555.90248 -15445247.61246  21066441.3134                   21066438.4774
   6598236.42447   5161705.05244  23486868.8754                   23486868.9344
 -28991929.87946 -22576581.33743  24364799.4064                   24364801.0984
 -12338026.82048  -9597882.57746  21487788.0394                   21487786.3404
 -16457931.68246 -12809130.31243  24270100.8284                   24270101.3054
 -37213320.42548 -28982049.36546  20617701.8134                   20617697.0744
 11  8  2  1 52  0.0000000  0  9G17G10G04G12G25G27G05G09G02
 -57173772.01346 -44535951.95944  23572854.1254                   23572852.3404
 -28433088.16948 -22140555.98746  20927620.5944                   20927618.0434
 -43720926.38247 -34029522.70945  22174993.1094                   22174990.8984
 -19950406.52148 -15531624.71246  21045346.6954                   21045344.5664
   6437294.08947   5036295.43344  23456242.7814                   23456242.2974
 -28996557.77446 -22580187.59943  24363917.8524                   24363920.9344
 -12486447.97948  -9713535.37746  21459544.6484                   21459543.0044
 -16443798.13546 -12798117.26543  24272789.2424                   24272791.0944
 -37273805.33448 -29029180.46246  20606191.9224                   20606187.0474
 11  8  2  1 52 30.0000000  0  9G17G10G04G12G25G27G05G09G02
 -57182700.21747 -44542908.98344  23571155.0234                   23571154.3094
 -28483448.27048 -22179797.61946  20918037.4384                   20918035.7584
 -43709949.18247 -34020969.06245  22177081.9144                   22177080.4574
 -20060722.64948 -15617585.32146  21024354.4144                   21024351.4064
   6276647.63647   4911116.41144  23425672.5784                   23425672.8794
 -29001191.58346 -22583798.41744  24363036.5704                   24363038.9184
 -12634450.70248  -9828862.12846  21431381.0234                   21431379.3134
 -16429597.85546 -12787052.20743  24275491.8984                   24275492.6414
 -37334010.49448 -29076093.56846  20594735.6254                   20594730.7544
 11  8  2  1 53  0.0000000  0  9G17G10G04G12G25G27G05G09G02
 -57191431.78347 -44549712.86044  23569493.7664                   23569492.2544
 -28533158.33248 -22218532.72346  20908578.0164                   20908575.4304
 -43698865.61447 -34012332.51945  22179191.1334                   22179189.4344
 -20170502.32348 -15703127.92146  21003463.4454                   21003460.8874
   6116299.83347   4786170.08644  23395159.1564                   23395159.5044
 -29005833.73146 -22587415.81043  24362153.9224                   24362155.1724
 -12782032.29348  -9943860.72046  21403296.6954                   21403294.8524
 -16415333.96246 -12775937.56943  24278206.1414                   24278207.6454
 -37393936.84548 -29122789.42247  20583331.7424                   20583326.8954
 11  8  2  1 53 30.0000000  0  9G17G10G04G12G25G27G05G09G02
 -57199968.92146 -44556365.23544  23567868.8204                   23567866.9304
 -28582221.84148 -22256764.02246  20899241.4534                   20899239.2464
 -43687679.85047 -34003616.34945  22181320.0474                   22181317.9184
 -20279746.03248 -15788252.87046  20982675.5864                   20982672.6054
   5956250.80047   4661456.57944  23364702.9614                   23364704.0004
 -29010489.55246 -22591043.88843  24361268.4844                   24361269.7234
 -12929192.87148 -10058531.25046  21375292.9064                   21375291.3794
 -16401012.16246 -12764777.79243  24280932.4384                   24280933.4614
 -37453588.19448 -29169270.98446  20571980.2114                   20571975.4884
 11  8  2  1 54  0.0000000  0  9G17G10G04G12G25G27G05G09G02
 -57208311.49047 -44562865.97444  23566281.4534                   23566279.9104
 -28630639.68648 -22294492.19746  20890027.8594                   20890025.7384
 -43676394.08047 -33994822.27345  22183467.8364                   22183465.6844
 -20388452.57548 -15872959.26646  20961989.2274                   20961986.8404
   5796502.87647   4536977.69644  23334303.7664                   23334304.5434
 -29015161.93246 -22594684.76943  24360378.3134                   24360380.8634
 -13075930.16448 -10172871.95646  21347369.4774                   21347367.9574
 -16386636.16046 -12753575.83743  24283667.5474                   24283668.9924
 -37512966.25148 -29215539.59846  20560681.1484                   20560676.5554
 11  8  2  1 54 30.0000000  0  9G17G10G04G12G25G27G05G09G02
 -57216456.83646 -44569213.02744  23564730.4774                   23564729.3204
 -28678410.50747 -22331716.20346  20880937.3204                   20880934.5634
 -43665007.50747 -33985949.59845  22185634.4454                   22185632.2114
 -20496618.40048 -15957244.32146  20941406.0004                   20941403.1994
   5637060.98647   4412737.27644  23303963.5704                   23303963.7464
 -29019851.37446 -22598338.94043  24359486.4304                   24359487.5824
 -13222239.35648 -10286879.07246  21319528.2034                   21319525.7344
 -16372206.97246 -12742332.44243  24286414.7344                   24286414.5824
 -37572069.89748 -29261594.37046  20549434.2194                   20549429.3954
 11  8  2  1 55  0.0000000  0  9G17G10G04G12G25G27G05G09G02
 -57224406.06446 -44575407.24744  23563218.9774                   23563216.9144
 -28725536.41847 -22368437.68746  20871969.3674                   20871966.9574
 -43653523.21747 -33977000.80045  22187819.2424                   22187817.4804
 -20604243.06747 -16041107.68946  20920925.7344                   20920923.1254
   5477926.35247   4288736.27244  23273680.9454                   23273680.8404
 -29024561.82946 -22602009.62843  24358590.1954                   24358592.0234
 -13368119.11548 -10400551.57746  21291768.1644                   21291765.8794
 -16357729.03546 -12731051.01044  24289169.4694                   24289169.8244
 -37630901.58648 -29307437.23846  20538238.3524                   20538233.7384
 11  8  2  1 55 30.0000000  0  9G17G10G04G12G25G27G05G09G02
 -57232157.70447 -44581447.50344  23561743.3134                   23561741.5864
 -28772016.91047 -22404656.23846  20863124.3754                   20863122.1134
 -43641941.65047 -33967976.21145  22190023.5634                   22190022.0164
 -20711323.28447 -16124546.83246  20900549.0234                   20900545.9694
   5319102.95147   4164977.81344  23243457.4064                   23243458.0234
 -29029294.66546 -22605697.63743  24357689.6484                   24357691.1954
 -13513565.76348 -10513886.57746  21264090.3594                   21264088.4384
 -16343204.62946 -12719733.36043  24291932.8054                   24291933.3954
 -37689461.21648 -29353068.10846  20527095.0784                   20527090.4804
 11  8  2  1 56  0.0000000  0  9G17G10G04G12G25G27G05G09G02
 -57239713.61246 -44587335.22444  23560305.5474                   23560303.6844
 -28817854.67447 -22440373.95446  20854401.5164                   20854399.3364
 -43630266.62747 -33958878.79145  22192245.2424                   22192243.4104
 -20817859.57947 -16207562.12746  20880275.9534                   20880273.2624
   5160591.33947   4041462.28044  23213293.8204                   23213294.3914
 -29034054.53846 -22609406.80143  24356783.1484                   24356785.8134
 -13658579.18948 -10626884.02546  21236495.1804                   21236493.0784
 -16328638.80646 -12708383.51743  24294703.8284                   24294705.5634
 -37747751.87248 -29398489.40246  20516003.0394                   20515998.3284
 11  8  2  1 56 30.0000000  0  9G17G10G04G12G25G27G05G09G02
 -57247073.66446 -44593070.35744  23558905.7114                   23558903.7734
 -28863051.01747 -22475591.87546  20845801.0084                   20845798.6764
 -43618499.88247 -33949709.90445  22194484.7424                   22194482.0314
 -20923850.62248 -16290152.52946  20860106.7504                   20860104.0664
   5002394.00247   3918191.64645  23183190.1644                   23183190.8364
 -29038844.11446 -22613139.02043  24355872.4774                   24355874.5634
 -13803157.04248 -10739542.05746  21208982.9694                   21208981.3794
 -16314035.00046 -12697004.05843  24297484.3594                   24297484.6094
 -37805775.31148 -29443702.46946  20504961.5314                   20504956.8324
 11  8  2  1 57  0.0000000  0  8G17G10G04G12G25G05G09G02
 -57254239.50346 -44598654.13744  23557541.6884                   23557539.1094
 -28907609.26147 -22510312.57046  20837321.9534                   20837319.7074
 -43606645.03347 -33940472.38245  22196739.8914                   22196738.5314
 -21029296.86547 -16372318.43246  20840040.9144                   20840037.9264
   4844511.47847   3795166.33444  23153145.5394                   23153146.3484
 -13947298.79648 -10851860.27146  21181553.8594                   21181551.2424
 -16299398.58646 -12685599.08543  24300269.3674                   24300270.2274
 -37863534.66148 -29488709.75446  20493969.8054                   20493965.4734
 11  8  2  1 57 30.0000000  0  8G17G10G04G12G25G05G09G02
 -57261209.61947 -44604085.43244  23556215.4384                   23556213.8204
 -28951528.97447 -22544535.72246  20828964.4454                   20828962.5164
 -43594702.50747 -33931166.53445  22199012.6094                   22199011.2934
 -21134195.62347 -16454057.72946  20820079.0164                   20820076.2504
   4686947.60647   3672389.33545  23123162.4614                   23123163.2384
 -14091000.77048 -10963835.79046  21154207.8834                   21154205.9964
 -16284731.44946 -12674170.26043  24303060.0234                   24303061.2734
 -37921030.07948 -29533511.36546  20483028.8984                   20483024.3754
 11  8  2  1 58  0.0000000  0  8G17G10G04G12G25G05G09G02
 -55692554.49847 -43381756.77244  23854719.8524                   23854719.4654
 -27419380.46947 -21350653.76246  21120522.3594                   21120520.7894
 -42007245.30947 -32694186.92445  22501095.8204                   22501094.4304
 -19663112.31447 -15307759.02746  21100017.0784                   21100014.4414
   6105139.49047   4777473.95245  23393035.4384                   23393036.1564
 -12658826.45948  -9847855.77346  21426741.4304                   21426739.2704
 -14694607.79846 -11435112.97543  24605649.3524                   24605651.8244
 -36402831.39048 -28350499.39546  20771932.6884                   20771928.0784
 11  8  2  1 58 30.0000000  0  8G17G10G04G12G25G05G09G02
 -55699115.77246 -43386869.47844  23853471.6094                   23853469.2934
 -27462008.94747 -21383870.74546  21112410.5234                   21112408.1564
 -41995115.56147 -32684735.17645  22503404.0314                   22503402.9264
 -19766893.94447 -15388627.82746  21080267.8754                   21080265.5784
   5948237.61847   4655212.78745  23363178.2894                   23363179.6954
 -12801624.87648  -9959127.21946  21399567.9384                   21399565.6174
 -14679871.65146 -11423630.40343  24608455.4144                   24608456.4454
 -36459785.37748 -28394879.11446  20761094.6174                   20761089.9964
 11  8  2  1 59  0.0000000  0  8G17G10G04G12G25G05G09G02
 -55705473.38247 -43391823.51344  23852261.8204                   23852260.7974
 -27503994.67447 -21416586.88746  21104420.8284                   21104418.3914
 -41982895.72947 -32675213.25245  22505729.7194                   22505727.9304
 -19870116.01747 -15469060.59946  21060625.4454                   21060622.6134
   5791669.63647   4533211.80944  23333384.3054                   23333384.9534
 -12943968.90648 -10070044.58846  21372480.9454                   21372478.4574
 -14665107.04946 -11412125.60843  24611264.6254                   24611266.5434
 -36516471.74648 -28439050.30146  20750307.4144                   20750303.1414
 11  8  2  1 59 30.0000000  0  8G17G10G04G12G25G05G09G02
 -55711629.32547 -43396620.34844  23851090.3914                   23851088.6804
 -27545340.79147 -21448804.62346  21096552.7424                   21096550.8754
 -41970589.55147 -32665624.03645  22508071.1174                   22508070.1564
 -19972779.33948 -15549057.99246  21041089.2664                   21041086.8714
   5635435.87647   4411471.23944  23303653.5164                   23303654.8094
 -13085858.58948 -10180607.92546  21345479.8754                   21345477.9804
 -14650319.71146 -11400603.08343  24614078.9144                   24614081.2464
 -36572893.98648 -28483015.66446  20739570.7664                   20739566.3134
 11  8  2  2  0  0.0000000  0  8G17G10G04G12G25G05G09G02
 -55717589.28247 -43401264.48844  23849956.4844                   23849955.3484
 -27586054.55847 -21480529.64046  21088805.6484                   21088802.9494
 -41958204.46447 -32655973.33945  22510427.8204                   22510426.9574
 -20074888.49648 -15628623.53546  21021658.5004                   21021656.0904
   5479533.01347   4289988.54745  23273986.6024                   23273987.0784
 -13227297.50048 -10290820.01846  21318565.2734                   21318563.0004
 -14635518.48046 -11389069.80743  24616895.2504                   24616896.5514
 -36629058.98248 -28526780.59246  20728882.8284                   20728878.3444
 11  8  2  2  0 30.0000000  0  8G17G10G04G12G25G05G09G02
 -55723352.93546 -43405755.71144  23848859.3754                   23848858.4534
 -27626136.65247 -21511762.43546  21081177.9694                   21081176.1884
 -41945742.31847 -32646262.58745  22512799.5554                   22512798.5554
 -20176441.58848 -15707755.80946  21002333.1884                   21002331.1914
   5323963.71647   4168765.76244  23244382.6334                   23244383.3524
 -13368283.12648 -10400678.90446  21291736.2664                   21291734.1294
 -14620706.41146 -11377528.04643  24619713.5314                   24619716.1684
 -36684967.97348 -28570346.03246  20718243.9924                   20718239.0234
 11  8  2  2  1  0.0000000  0  8G17G10G04G12G25G05G09G02
 -55728919.74746 -43410093.47744  23847799.7814                   23847799.1254
 -27665587.86947 -21542503.64146  21073670.4064                   21073668.6334
 -41933203.97947 -32636492.48245  22515185.4694                   22515183.9924
 -20277437.38748 -15786453.81746  20983114.7664                   20983111.8094
   5168730.97847   4047805.24845  23214842.4694                   23214843.3914
 -13508812.87148 -10510182.54846  21264994.6024                   21264992.0274
 -14605886.18946 -11365979.95843  24622534.6644                   24622536.4064
 -36740621.93148 -28613712.74546  20707653.1334                   20707648.8094
 11  8  2  2  1 30.0000000  0  8G17G10G04G12G25G05G09G02
 -55734292.14846 -43414279.82244  23846778.4304                   23846776.1604
 -27704412.51448 -21572756.62146  21066282.6024                   21066280.6094
 -41920593.94847 -32626666.49645  22517585.8134                   22517583.4224
 -20377876.80847 -15864718.29046  20964001.6804                   20963998.9884
   5013834.62447   3927106.83545  23185366.9304                   23185367.1524
 -13648886.75748 -10619330.98546  21238339.2814                   21238337.2974
 -14591063.71146 -11354430.10643  24625355.3674                   24625356.4264
 -36796024.75848 -28656883.76446  20697110.4924                   20697105.8954
 11  8  2  2  2  0.0000000  0  8G17G10G04G12G25G05G09G02
 -55739472.69746 -43418316.66944  23845791.7034                   23845791.0594
 -27742614.09947 -21602524.07746  21059013.3754                   21059010.8484
 -41907916.23447 -32616787.81245  22519997.3754                   22519996.0744
 -20477760.94048 -15942550.06346  20944994.5394                   20944991.7304
   4859274.67147   3806670.56945  23155955.1804                   23155955.5664
 -13788505.28948 -10728124.60246  21211770.4774                   21211768.4344
 -14576245.13946 -11342883.27243  24628174.7734                   24628176.7734
 -36851180.12048 -28699861.94346  20686614.6954                   20686610.1954
 11  8  2  2  2 30.0000000  0  8G17G10G04G12G25G05G09G02
 -55744460.82047 -43422203.50744  23844843.4454                   23844840.7854
 -27780193.86347 -21631806.98846  21051862.0234                   21051859.5514
 -41895172.24147 -32606857.44345  22522422.3284                   22522421.8834
 -20577088.26148 -16019947.96546  20926093.2274                   20926089.8054
   4705053.98547   3686498.65445  23126607.7274                   23126607.8674
 -13927666.16648 -10836561.60746  21185288.8674                   21185286.8874
 -14561432.93246 -11331341.47443  24630992.7424                   24630995.3954
 -36906089.20148 -28742648.22546  20676165.4224                   20676160.9844
 11  8  2  2  3  0.0000000  0  8G17G10G04G12G25G05G09G02
 -55749257.22246 -43425940.99044  23843930.6094                   23843928.7814
 -27817153.93247 -21660607.03446  21044828.8754                   21044826.6764
 -41882364.35147 -32596877.28745  22524859.7504                   22524858.8164
 -20675858.46048 -16096911.74046  20907297.6564                   20907295.1214
   4551174.15147   3566592.33245  23097325.5704                   23097325.9694
 -14066368.09948 -10944641.00246  21158894.9924                   21158893.0084
 -14546631.40746 -11319807.87843  24633810.3914                   24633812.1724
 -36960754.08448 -28785244.21446  20665763.0864                   20665759.0514
 11  8  2  2  3 30.0000000  0  8G17G10G04G12G25G05G09G02
 -55753861.58046 -43429528.84444  23843054.5944                   23843053.0274
 -27853495.11948 -21688924.83346  21037913.5634                   21037910.9224
 -41869493.63347 -32586848.16445  22527309.6094                   22527307.3874
 -20774069.78948 -16173440.02846  20888608.4534                   20888606.0234
   4397638.25147   3446954.00745  23068108.3674                   23068108.7894
 -14204608.09848 -11052360.44146  21132588.9224                   21132586.8094
 -14531843.03746 -11308284.55643  24636624.6094                   24636625.6954
 -37015175.62448 -28827650.59246  20655407.3444                   20655402.8754
 11  8  2  2  4  0.0000000  0  8G17G10G04G12G25G05G09G02
 -55758272.09046 -43432965.59144  23842214.6024                   23842213.5554
 -27889217.43148 -21716760.39946  21031115.5554                   21031112.8554
 -41856560.55147 -32576770.46145  22529770.7814                   22529769.5164
 -20871719.73548 -16249530.88346  20870026.1174                   20870023.7114
   4244450.02247   3327586.62645  23038957.7974                   23038957.7734
 -14342382.87148 -11159717.37946  21106371.1644                   21106369.0864
 -14517069.84146 -11296773.13843  24639436.3984                   24639437.5824
 -37069353.69548 -28869867.26246  20645097.4454                   20645092.7384
 11  8  2  2  4 30.0000000  0  8G17G10G04G12G25G05G09G02
 -55762489.90846 -43436252.23444  23841412.1094                   23841410.7974
 -27924323.32448 -21744115.61346  21024434.8204                   21024432.3674
 -41843567.29347 -32566645.85345  22532242.9614                   22532241.6644
 -20968807.95948 -16325184.02646  20851550.9304                   20851548.0664
   4091611.03547   3208491.34045  23009873.2034                   23009873.4454
 -14479691.06048 -11266710.72946  21080242.0084                   21080239.7974
 -14502316.22246 -11285276.90443  24642243.9064                   24642246.3954
 -37123290.69248 -28911896.07746  20634833.6884                   20634829.5704
 11  8  2  2  5  0.0000000  0  8G17G10G04G12G25G05G09G02
 -55766513.22346 -43439387.29344  23840647.3754                   23840645.2304
 -27958812.73047 -21770990.46446  21017871.8444                   21017869.0864
 -41830514.13647 -32556474.58245  22534726.5634                   22534726.3714
 -21065331.68148 -16400397.29446  20833183.3754                   20833180.6054
   3939125.36047   3089671.37545  22980856.1414                   22980857.2584
 -14616529.36248 -11373337.94246  21054203.1334                   21054200.4574
 -14487583.49946 -11273796.96443  24645047.3524                   24645048.9344
 -37176986.32648 -28953736.82246  20624615.7034                   20624611.3914
 11  8  2  2  5 30.0000000  0  8G17G10G04G12G25G05G09G02
 -55770345.83846 -43442373.76144  23839917.5944                   23839916.1134
 -27992690.95547 -21797389.06346  21011425.1954                   21011422.8204
 -41817406.38547 -32546260.76244  22537221.1804                   22537219.5904
 -21161293.70848 -16475172.89646  20814922.0704                   20814919.2814
   3786991.56647   2971125.60645  22951906.5164                   22951906.1954
 -14752899.57948 -11479600.41346  21028252.4144                   21028250.0204
 -14472878.73946 -11262338.85243  24647845.4144                   24647847.5704
 -37230445.81148 -28995393.54246  20614442.6174                   20614438.0314
 11  8  2  2  6  0.0000000  0  8G17G10G04G12G25G05G09G02
 -55773986.74346 -43445210.84244  23839224.1334                   23839223.1724
 -28025958.30547 -21823311.66946  21005094.7974                   21005092.6024
 -41804244.55747 -32536004.79445  22539725.7584                   22539724.5904
 -21256691.97248 -16549509.19446  20796769.2894                   20796765.8134
   3635213.25847   2852856.82345  22923024.0004                   22923023.9304
 -14888797.77648 -11585495.07846  21002391.7034                   21002389.4494
 -14458203.90046 -11250904.02343  24650638.1024                   24650640.1724
 -37283669.11048 -29036866.22346  20604314.4844                   20604310.2464
 11  8  2  2  6 30.0000000  0  8G17G10G04G12G25G05G09G02
 -55777436.89946 -43447899.28844  23838567.8364                   23838566.2624
 -28058617.39047 -21848760.30346  20998879.3444                   20998877.1644
 -41791031.14547 -32525708.63845  22542240.2274                   22542238.6954
 -21351526.11148 -16623405.90446  20778722.4844                   20778719.9024
   3483791.91947   2734866.19945  22894209.1024                   22894209.4884
 -15024223.42048 -11691021.52046  20976621.0634                   20976618.8524
 -14443563.38246 -11239495.92943  24653424.5084                   24653425.9884
 -37336658.70848 -29078156.81046  20594230.9924                   20594226.4614
 11  8  2  2  7  0.0000000  0  8G17G10G04G12G25G05G09G02
 -55780693.45346 -43450436.89143  23837948.1804                   23837946.4844
 -28090666.85548 -21873733.89846  20992780.7664                   20992778.0554
 -41777765.18147 -32515371.53844  22544764.5004                   22544763.1454
 -21445792.52148 -16696860.24146  20760784.2114                   20760781.1804
   3332732.68947   2617157.73645  22865463.4304                   22865463.8674
 -15159171.58848 -11796175.90146  20950941.4534                   20950939.0744
 -14428957.64846 -11228114.93343  24656203.4454                   24656205.3244
 -37389413.26848 -29119264.24446  20584192.2344                   20584187.7424
 11  8  2  2  7 30.0000000  0  8G17G10G04G12G25G05G09G02
 -55783761.25746 -43452827.35543  23837364.4304                   23837362.6094
 -28122113.40348 -21898237.68846  20986796.7504                   20986794.5434
 -41764452.79647 -32504998.27844  22547297.1254                   22547296.2384
 -21539494.74948 -16769874.95046  20742952.9924                   20742950.2504
   3182033.20647   2499729.58545  22836786.1484                   22836786.6604
 -15293645.07248 -11900960.38446  20925352.0864                   20925349.4844
 -14414394.46946 -11216767.10743  24658975.3204                   24658976.7234
 -37441938.85848 -29160193.26246  20574196.9064                   20574192.1054
 11  8  2  2  8  0.0000000  0  8G17G10G04G12G25G05G09G02
 -55786639.88746 -43455070.44543  23836815.9924                   23836814.4414
 -28152958.04848 -21922272.46646  20980927.2344                   20980925.0234
 -41751095.08547 -32494589.69144  22549839.3284                   22549838.8324
 -21632631.18848 -16842448.78746  20725230.2274                   20725227.5084
   3031696.34747   2382584.00445  22808178.2424                   22808178.9804
 -15427641.64548 -12005373.27246  20899852.9694                   20899850.4264
 -14399876.63046 -11205454.65443  24661737.3834                   24661739.5474
 -37494236.11048 -29200944.36546  20564244.7664                   20564240.5234
 11  8  2  2  8 30.0000000  0  8G17G10G04G12G25G05G09G02
 -55789328.29046 -43457165.32643  23836304.7274                   23836304.8914
 -28183201.82548 -21945839.03546  20975172.2814                   20975169.5784
 -41737692.69347 -32484146.27345  22552390.4454                   22552389.2114
 -21725200.39048 -16914580.62046  20707614.6724                   20707611.7154
   2881725.32647   2265723.48645  22779639.9454                   22779639.8404
 -15561158.35448 -12109412.23346  20874445.8754                   20874443.1844
 -14385406.73246 -11194179.50043  24664491.3754                   24664493.2584
 -37546305.99148 -29241518.28746  20554336.7114                   20554331.9964
 11  8  2  2  9  0.0000000  0  8G17G10G04G12G25G05G09G02
 -54216406.00646 -42231511.60943  24135622.5084                   24135621.0124
 -26637424.70248 -20741337.37246  21269323.6334                   21269321.0354
 -40148827.05647 -31246069.13944  22854741.2034                   22854740.3134
 -20241777.44048 -15758666.61746  20989900.8914                   20989897.7584
   4307548.24447   3376754.33745  23050964.8984                   23050965.3204
 -14118768.24448 -10985471.85446  21148923.4694                   21148921.0594
 -12795567.56646  -9955343.94243  24967028.1804                   24967029.5434
 -36022727.12948 -28054313.95946  20844263.6954                   20844259.2774
 11  8  2  2  9 30.0000000  0  8G17G10G04G12G25G05G09G02
 -54218713.09046 -42233309.37343  24135183.3674                   24135181.8244
 -26666470.26347 -20763970.26746  21263796.2664                   21263794.6724
 -40135338.90847 -31235558.92045  22857307.9144                   22857307.1054
 -20333207.78748 -15829911.03846  20972501.9304                   20972499.1334
   4158317.58247   3260470.70845  23022567.1564                   23022567.1804
 -14251318.18248 -11088757.48446  21123700.0474                   21123697.6414
 -12781201.10546  -9944149.36143  24969760.7504                   24969763.8324
 -36074344.21548 -28094535.05546  20834441.4064                   20834437.1994
 11  8  2  2 10  0.0000000  0  8G17G10G04G12G25G05G09G02
 -54220830.42446 -42234959.25743  24134780.5394                   24134779.2384
 -26694920.32148 -20786139.13046  21258383.1094                   21258380.5314
 -40121810.89747 -31225017.62544  22859882.0234                   22859881.2194
 -20424068.10748 -15900711.28546  20955211.9144                   20955208.9224
   4009459.64147   3144477.53645  22994240.1414                   22994240.5314
 -14383382.75848 -11191664.91846  21098568.8364                   21098566.5474
 -12766892.04345  -9932999.58843  24972485.2274                   24972487.0004
 -36125738.00948 -28134582.16246  20824661.5084                   20824656.6254
 11  8  2  2 10 30.0000000  0  7G17G10G04G12G25G05G02
 -54222757.50346 -42236460.86144  24134414.0004                   24134412.6604
 -26722776.08748 -20807844.90846  21253081.8134                   21253079.3324
 -40108244.33747 -31214446.30744  22862463.8444                   22862462.8164
 -20514357.05648 -15971066.30846  20938030.2814                   20938027.8794
   3860977.41247   3028777.09345  22965985.4694                   22965985.5434
 -14514959.50048 -11294192.22146  21073530.3834                   21073528.6804
 -36176909.39048 -28174455.94746  20814924.0634                   20814918.9344
 11  8  2  2 11  0.0000000  0  7G17G10G04G12G25G05G02
 -54224495.87846 -42237815.46944  24134082.7584                   24134082.1134
 -26750040.76748 -20829090.10946  21247893.3754                   21247891.0164
 -40094641.98147 -31203847.05644  22865052.4064                   22865051.1524
 -20604075.68648 -16040976.91746  20920957.3284                   20920954.1954
   3712871.73347   2913370.07645  22937802.2194                   22937801.4804
 -14646047.96348 -11396339.03946  21048585.5634                   21048583.0004
 -36227861.01748 -28214158.50046  20805228.0234                   20805223.5474
 11  8  2  2 11 30.0000000  0  7G17G10G04G12G25G05G02
 -54226036.37646 -42239015.85744  24133790.2274                   24133788.1884
 -26776706.66248 -20849868.73846  21242819.0474                   21242816.3674
 -40080995.79147 -31193213.69144  22867649.5944                   22867648.0784
 -20693213.55948 -16110434.99746  20903995.2344                   20903992.2774
   3565154.46047   2798265.71945  22909691.8054                   22909692.4184
 -14776636.86548 -11498096.58946  21023735.3054                   21023733.3674
 -36278584.88948 -28253683.59046  20795575.3914                   20795570.7194
 11  8  2  2 12  0.0000000  0  7G17G10G04G12G25G05G02
 -54227374.36547 -42240058.46944  24133535.1954                   24133533.6214
 -26802771.17648 -20870178.72346  21237859.3284                   21237856.5084
 -40067302.84547 -31182543.87044  22870254.5394                   22870253.6564
 -20781764.88148 -16179436.01746  20887144.2814                   20887141.7344
   3417832.47447   2683469.36445  22881657.6644                   22881658.3244
 -14906719.97548 -11599460.02446  20998981.2664                   20998979.4264
 -36329077.51748 -28293028.47546  20785967.0864                   20785962.7814
 11  8  2  2 12 30.0000000  0  7G17G10G04G12G25G05G02
 -54228513.46647 -42240946.08244  24133318.5704                   24133317.6174
 -26828239.79148 -20890024.37546  21233012.4224                   21233010.6454
 -40053568.07347 -31171841.45244  22872868.3914                   22872867.1414
 -20869732.41248 -16247982.13946  20870404.5704                   20870401.6294
   3270904.59247   2568980.12245  22853697.7814                   22853698.4734
 -15036299.15748 -11700430.78646  20974323.2034                   20974321.0704
 -36379343.90648 -28332197.08946  20776401.9844                   20776397.2854
 11  8  2  2 13  0.0000000  0  7G17G10G04G12G25G05G02
 -54229460.41847 -42241683.99144  24133138.7344                   24133137.1994
 -26853121.24647 -20909412.52946  21228278.0784                   21228276.0164
 -40039799.81047 -31161112.96444  22875488.5704                   22875487.5234
 -20957122.40248 -16316078.22946  20853774.8444                   20853771.5634
   3124366.53447   2454794.61845  22825812.8754                   22825813.5704
 -15165378.93948 -11801012.39846  20949759.8444                   20949758.0204
 -36429392.11148 -28371195.67846  20766877.9304                   20766873.1334
 11  8  2  2 13 30.0000000  0  7G17G10G04G12G25G05G02
 -54230216.43447 -42242273.09844  24132994.2114                   24132993.2624
 -26877418.41248 -20928345.36846  21223654.3914                   21223652.4654
 -40026000.40947 -31150360.20544  22878115.3834                   22878113.3984
 -21043935.15948 -16383724.53546  20837254.8444                   20837252.3984
   2978219.51347   2340913.84245  22798002.1564                   22798002.0084
 -15293958.78848 -11901204.45146  20925291.7504                   20925289.7624
 -36479224.66848 -28410026.23446  20757395.1724                   20757390.8524
 11  8  2  2 14  0.0000000  0  7G17G10G04G12G25G05G02
 -54230776.55547 -42242709.53944  24132887.8834                   24132887.0864
 -26901128.04447 -20946820.39646  21219142.3914                   21219140.3054
 -40012166.36847 -31139580.42644  22880747.2344                   22880745.9384
 -21130164.85048 -16450916.49046  20820846.1024                   20820843.2464
   2832470.77847   2227343.41845  22770266.8284                   22770267.1024
 -15422031.99448 -12001001.71846  20900920.3284                   20900917.8324
 -36528837.99448 -28448685.96646  20747954.0474                   20747949.7384
 11  8  2  2 14 30.0000000  0  7G17G10G04G12G25G05G02
 -54231143.14646 -42242995.21544  24132817.5704                   24132817.3094
 -26924254.21648 -20964840.80046  21214741.6724                   21214739.8284
 -39998301.32347 -31128776.51944  22883385.6174                   22883384.3594
 -21215813.29148 -16517655.52646  20804547.7584                   20804545.0904
   2687120.54047   2114083.51045  22742607.7894                   22742608.4344
 -15549598.87548 -12100404.45046  20876645.5314                   20876643.1254
 -36578235.08648 -28487177.18746  20738554.0944                   20738549.6134
 11  8  2  2 15  0.0000000  0  7G17G10G04G12G25G05G02
 -54231318.67947 -42243131.97744  24132785.3754                   24132783.3404
 -26946801.23648 -20982409.90846  21210450.8834                   21210449.1374
 -39984408.96447 -31117951.28944  22886029.1094                   22886027.8634
 -21300881.44648 -16583942.38846  20788359.6954                   20788356.9964
   2542168.90447   2001134.20545  22715023.7894                   22715024.1094
 -15676660.02648 -12199413.10646  20852466.2424                   20852464.1054
 -36627419.68548 -28525502.84246  20729194.5554                   20729190.0784
 11  8  2  2 15 30.0000000  0  7G17G10G04G12G25G05G02
 -54231307.88747 -42243123.57744  24132787.0234                   24132786.0274
 -26968775.89548 -20999533.00846  21206269.6334                   21206267.0634
 -39970495.21447 -31107109.40444  22888676.8204                   22888675.2194
 -21385373.15948 -16649780.08946  20772281.6254                   20772278.2734
   2397613.46847   1888493.63145  22687515.9384                   22687516.1294
 -15803218.31748 -12298029.92346  20828382.7894                   20828380.6804
 -36676397.87448 -28563667.64946  20719874.1884                   20719869.6764
 11  8  2  2 16  0.0000000  0  7G17G10G04G12G25G05G02
 -54231108.22347 -42242968.07044  24132824.6334                   24132823.1484
 -26990177.57448 -21016209.63046  21202197.0314                   21202194.2304
 -39956559.05847 -31096250.07844  22891329.0084                   22891327.2934
 -21469286.36748 -16715167.01246  20756312.9774                   20756310.4184
   2253458.97047   1776165.45645  22660084.8204                   22660084.8404
 -15929269.66348 -12396251.72746  20804395.9774                   20804394.1414
 -36725168.65648 -28601670.85046  20710593.2734                   20710589.1884
 11  8  2  2 16 30.0000000  0  7G17G10G04G12G25G05G02
 -54230719.21646 -42242664.92043  24132898.7584                   24132897.1684
 -27011008.00547 -21032441.14146  21198232.9924                   21198230.8714
 -39942601.34147 -31085373.94444  22893984.8284                   22893984.1914
 -21552619.49648 -16780101.90946  20740455.6644                   20740452.8164
   2109708.26947   1664151.96845  22632729.2664                   22632730.2114
 -16054811.94748 -12494076.84346  20780506.0554                   20780503.7424
 -36773732.56048 -28639512.85446  20701352.1094                   20701347.5084
 11  8  2  2 17  0.0000000  0  7G17G10G04G12G25G05G02
 -54230143.31446 -42242216.16744  24133007.1254                   24133006.5514
 -27031271.22447 -21048230.66246  21194376.6024                   21194375.2424
 -39928625.52347 -31074483.70644  22896644.7424                   22896643.6294
 -21635373.95248 -16844585.90046  20724707.7664                   20724705.2774
   1966361.58747   1552453.29445  22605451.4844                   22605451.6954
 -16179845.55948 -12591505.60446  20756713.2814                   20756710.5434
 -36822092.99548 -28677196.30746  20692149.6804                   20692144.8164
 11  8  2  2 17 30.0000000  0  7G17G10G04G12G25G05G02
 -54229381.45246 -42241622.57643  24133153.3834                   24133152.1174
 -27050969.84747 -21063580.23646  21190628.4614                   21190626.3874
 -39914633.70947 -31063580.99344  22899307.8054                   22899306.2424
 -21717549.84448 -16908619.05046  20709070.1954                   20709067.2504
   1823420.50047   1441070.67345  22578250.6174                   22578250.6644
 -16304369.38448 -12688537.13046  20733017.1644                   20733014.4694
 -36870251.97948 -28714722.77846  20682985.0634                   20682980.6024
 11  8  2  2 18  0.0000000  0  7G17G10G04G12G25G05G02
 -54228433.24246 -42240883.72243  24133333.9774                   24133332.9454
 -27070105.66347 -21078491.26946  21186986.8284                   21186984.1414
 -39900626.76247 -31052666.48944  22901971.8674                   22901971.5944
 -21799146.12448 -16972200.57546  20693543.0944                   20693540.4384
   1680887.67647   1330006.18945  22551127.5944                   22551127.4184
 -16428381.52348 -12785169.93446  20709418.2974                   20709415.8554
 -36918210.47548 -28752093.03646  20673858.7734                   20673853.6414
 11  8  2  2 18 30.0000000  0  7G17G10G04G12G25G05G02
 -54227296.76346 -42239998.22043  24133549.7814                   24133549.0314
 -27088678.87047 -21092963.89446  21183452.6334                   21183450.6024
 -39886603.88547 -31041739.54644  22904640.7504                   22904640.3674
 -21880160.33148 -17035328.51646  20678126.5784                   20678123.8054
   1538767.46747   1219263.19545  22524082.7734                   22524083.0904
 -16551878.33148 -12881401.18446  20685917.4844                   20685914.9064
 -36965967.60748 -28789306.38046  20664770.9694                   20664766.3134
 11  8  2  2 19  0.0000000  0  7G17G10G04G12G25G05G02
 -54225974.53546 -42238967.91543  24133802.0704                   24133800.3874
 -27106693.61247 -21107001.35846  21180024.6094                   21180022.3984
 -39872568.86646 -31030803.19044  22907312.2504                   22907310.8674
 -21960594.23248 -17098004.27446  20662820.2344                   20662817.4924
   1397059.93447   1108841.78945  22497116.7344                   22497117.2464
 -16674860.31948 -12977231.27946  20662514.8364                   20662512.2274
 -37013526.88548 -28826365.56246  20655720.8284                   20655715.8984
 11  8  2  2 19 30.0000000  0  7G17G10G04G12G25G05G02
 -54224467.35546 -42237793.46043  24134088.6174                   24134087.1214
 -27124152.99548 -21120606.07946  21176701.9844                   21176699.5474
 -39858523.86546 -31019859.00844  22909984.1884                   22909983.1524
 -22040448.40248 -17160228.30246  20647624.6954                   20647621.9924
   1255766.24947    998742.84345  22470229.7734                   22470229.4494
 -16797327.06048 -13072659.87846  20639210.3444                   20639207.3984
 -37060890.56148 -28863272.30846  20646707.6094                   20646702.9964
 11  8  2  2 20  0.0000000  0  8G17G10G04G12G25G29G05G02
 -54222775.21546 -42236474.97243  24134410.7114                   24134409.4264
 -27141058.79047 -21133779.42646  21173485.5164                   21173482.8794
 -39844469.68146 -31008907.70944  22912658.8914                   22912657.9064
 -22119721.80448 -17221999.78046  20632539.7424                   20632536.5314
   1114889.20847    888968.55745  22443421.3834                   22443421.5944
  20261715.06256  15805286.92553  24503627.2114                   24503627.1374
 -16919276.45748 -13167685.35746  20616003.7194                   20616001.1724
 -37108059.43648 -28900027.27346  20637731.7734                   20637727.1214
 11  8  2  2 20 30.0000000  0  8G17G10G04G12G25G29G05G02
 -52645485.78546 -41007418.27143  24434558.7274                   24434555.8244
 -25582000.05147 -19918928.45746  21470164.4844                   21470161.8524
 -38254995.15147 -29770356.10244  23215126.2344                   23215124.6054
 -20622998.11748 -16055721.56746  20917356.6254                   20917353.8754
   2549848.52647   2007118.71645  22716485.5864   22716485.5314   21688597.32146
  16917143.28143                  24775153.6954                   24775152.3554
 -15465290.23948 -12034709.04846  20892688.1174                   20892686.1954
 -35579620.26447 -27709035.70346  20928584.1724                   20928579.6294
 11  8  2  2 21  0.0000000  0  8G17G10G04G12G25G29G05G02
 -52643439.38046 -41005823.73143  24434947.7974                   24434946.7584
 -25597820.65447 -19931256.21345  21467153.4844                   21467151.2734
 -38240941.61447 -29759405.31444  23217800.0314                   23217798.4734
 -20701123.81247 -16116598.72546  20902489.4924                   20902486.7704
   2409796.31747   1897987.16045  22689833.9224   22689834.1764   21539977.40346
  16801335.58043                  24746873.1884                   24746871.6294
 -15586215.64448 -12128936.60946  20869677.0944                   20869674.1724
 -35626418.22647 -27745501.64946  20919678.8134                   20919673.8794
 11  8  2  2 21 30.0000000  0  8G17G10G04G12G25G29G05G02
 -52641219.97546 -41004094.31343  24435370.4774                   24435370.1644
 -25613105.85447 -19943166.75945  21464244.8984                   21464242.5744
 -38226894.25446 -29748459.31244  23220473.2584                   23220472.1644
 -20778679.59148 -16177031.79246  20887731.5554                   20887728.3874
   2270155.69247   1789176.31645  22663261.1334   22663261.7194   21391276.89846
  16685465.08343                  24718574.1564                   24718575.3094
 -15706630.99548 -12222766.72946  20846762.5084                   20846759.7234
 -35673036.98247 -27781827.94346  20910807.4844                   20910802.1884
 11  8  2  2 22  0.0000000  0  8G17G10G04G12G25G29G05G02
 -52638821.47446 -41002225.33044  24435826.8914                   24435825.8054
 -25627851.32847 -19954656.74145  21461438.8444                   21461436.2974
 -38212847.64346 -29737513.89644  23223146.1484                   23223144.8284
 -20855657.69048 -16237014.71946  20873082.9224                   20873080.2424
   2130935.69247   1680693.22645  22636768.8134   22636768.8794   21242502.72446
  16569537.21443                  24690264.4144                   24690263.3324
 -15826527.83048 -12316192.81246  20823947.2504                   20823944.5274
 -35719470.83848 -27818010.16946  20901971.3444                   20901966.6684
 11  8  2  2 22 30.0000000  0  8G17G10G04G12G25G29G05G02
 -52636239.53246 -41000213.46743  24436318.6484                   24436317.4344
 -25642055.29747 -19965724.77445  21458736.2194                   21458733.9384
 -38198799.05646 -29726566.94244  23225819.4694                   23225818.2504
 -20932054.09948 -16296544.37346  20858545.5704                   20858542.2584
   1992142.46647   1572542.69245  22610357.0634   22610357.6414   21093659.46446
  16453555.40443                  24661941.6094                   24661940.3054
 -15945900.74048 -12409210.63846  20801230.9534                   20801228.7854
 -35765716.98348 -27854046.11946  20893170.8834                   20893166.6294
 11  8  2  2 23  0.0000000  0  8G17G10G04G12G25G29G05G02
 -52633477.05546 -40998060.89643  24436844.0314                   24436843.9264
 -25655722.24647 -19976374.35045  21456135.4304                   21456132.5594
 -38184752.34246 -29715621.45844  23228492.4144                   23228490.8204
 -21007870.93148 -16355622.41846  20844117.6644                   20844114.6884
   1853775.77247   1464724.51045  22584026.8444   22584027.0084   20944744.96146
  16337518.13643                  24633604.1334                   24633601.6644
 -16064750.92148 -12501821.13846  20778614.5554                   20778612.3754
 -35811778.94048 -27889938.53546  20884405.7114                   20884401.2544
 11  8  2  2 23 30.0000000  0  8G17G10G04G12G25G29G05G02
 -52630534.04046 -40995767.64443  24437403.7974                   24437402.1804
 -25668854.14347 -19986606.99645  21453636.1644                   21453633.8754
 -38170708.13446 -29704677.91644  23231164.8984                   23231164.2504
 -21083107.50647 -16414248.31146  20829800.7974                   20829797.6994
   1715838.30547   1357240.78645  22557778.1804   22557777.7424   20795759.95846
  16221425.95943                  24605252.3204                   24605250.2074
 -16183076.47448 -12594022.83146  20756097.7194                   20756095.5164
 -35857657.67548 -27925688.19546  20875674.8134                   20875671.1254
 11  8  2  2 24  0.0000000  0  8G17G10G04G12G25G29G05G02
 -52627407.54046 -40993331.40344  24437998.9774                   24437998.4344
 -25681450.37447 -19996422.24146  21451239.4454                   21451237.1414
 -38156664.66246 -29693734.96244  23233837.4774                   23233835.9774
 -21157760.59847 -16472419.54546  20815594.5784                   20815591.6454
   1578335.12247   1250095.46245  22531612.1414   22531612.5164   20646707.82646
  16105281.48043                  24576889.1724                   24576887.9304
 -16300872.84048 -12685812.18646  20733682.1484                   20733679.3554
 -35903351.49647 -27961293.76146  20866980.0314                   20866975.6684
 11  8  2  2 24 30.0000000  0  8G17G10G04G12G25G29G05G02
 -52624098.52746 -40990752.96243  24438628.9924                   24438627.2074
 -25693514.20447 -20005822.63045  21448943.7114                   21448941.0354
 -38142623.93346 -29682794.14744  23236509.1884                   23236507.9184
 -21231830.50947 -16530136.34646  20801499.4614                   20801496.5554
   1441267.69847   1143289.70345  22505529.2734   22505529.5474   20497588.31546
  15989084.45043                  24548511.9614                   24548511.0704
 -16418139.56448 -12777188.82046  20711366.5944                   20711364.8054
 -35948862.38047 -27996756.77746  20858319.6334                   20858314.8244
 11  8  2  2 25  0.0000000  0  8G17G10G04G12G25G29G05G02
 -52620606.16047 -40988031.61944  24439293.9924                   24439292.4384
 -25705046.96147 -20014809.20045  21446749.2504                   21446746.5004
 -38128585.82746 -29671855.40444  23239180.3444                   23239178.7854
 -21305316.34248 -16587398.02146  20787515.6724                   20787512.7664
   1304639.15347   1036825.91945  22479529.7734   22479530.2934   20348402.74747
  15872835.92943                  24520123.3054                   24520122.0204
 -16534874.39448 -12868150.99246  20689152.8134                   20689150.3674
 -35994190.60348 -28032077.46546  20849693.9064                   20849689.1804
 11  8  2  2 25 30.0000000  0  8G17G10G04G12G25G29G05G02
 -52616929.58746 -40985166.77944  24439993.7034                   24439991.4384
 -25716049.60447 -20023382.68245  21444655.5394                   21444653.5044
 -38114550.59747 -29660918.83444  23241851.6954                   23241850.1764
 -21378216.68248 -16644203.47646  20773643.2664                   20773640.5554
   1168452.81847    930706.70145  22453614.1564   22453614.4774   20199152.87246
  15756537.37343                  24491721.6174                   24491720.5354
 -16651074.57748 -12958696.55746  20667040.5554                   20667037.9304
 -36039336.07748 -28067255.75346  20841102.9144                   20841098.7734
 11  8  2  2 26  0.0000000  0  8G17G10G04G12G25G29G05G02
 -52613070.17046 -40982159.44244  24440726.7814                   24440726.3444
 -25726525.55547 -20031545.76145  21442662.0164                   21442659.2854
 -38100520.52746 -29649986.34944  23244521.2974                   23244520.2774
 -21450532.30248 -16700553.29746  20759881.9924                   20759878.9104
   1032709.67047    824932.83345  22427783.1644   22427783.2504   20049837.90747
  15640188.07343                  24463308.0084                   24463306.3874
 -16766740.13748 -13048825.54046  20645030.0704                   20645028.1024
 -36084301.34048 -28102293.61046  20832546.4534                   20832541.9774
 11  8  2  2 26 30.0000000  0  8G17G10G04G12G25G29G05G02
 -52609024.44046 -40979006.98144  24441497.3204                   24441496.4534
 -25736473.48347 -20039297.41145  21440769.1094                   21440767.0084
 -38086492.95146 -29639055.77344  23247190.4534                   23247188.8794
 -21522259.66048 -16756444.73246  20746232.6254                   20746229.9024
    897415.66247    719508.94545  22402037.8364   22402037.8444   19900462.09147
  15523791.32744                  24434883.0634                   24434883.1054
 -16881866.05348 -13138534.01446  20623122.4454                   20623119.9774
 -36129083.45848 -28137188.76346  20824024.6414                   20824019.8204
 11  8  2  2 27  0.0000000  0  8G17G10G04G12G25G29G05G02
 -52604798.20546 -40975713.77443  24442301.3444                   24442299.9494
 -25745901.20547 -20046643.68945  21438975.2344                   21438972.8484
 -38072474.61046 -29628132.41144  23249858.3834                   23249857.0594
 -21593403.60847 -16811881.56946  20732694.5944                   20732691.4024
    762567.46447    614432.44745  22376376.7424   22376377.1804   19751020.37947
  15407343.23644                  24406444.6024                   24406444.6524
 -16996456.16848 -13227824.98446  20601316.6094                   20601314.6214
 -36173688.99948 -28171946.31746  20815536.5864                   20815531.6914
 11  8  2  2 27 30.0000000  0  8G17G10G04G12G25G29G05G02
 -52600395.42446 -40972283.05843  24443139.0944                   24443138.4574
 -25754814.92047 -20053589.43245  21437278.6024                   21437276.1844
 -38058470.15046 -29617219.83344  23252523.6724                   23252521.3244
 -21663968.07647 -16866866.86146  20719266.5084                   20719264.0864
    628163.33347    509701.96845  22350799.9304   22350800.2774   19601509.77747
  15290841.50744                  24377994.5394                   24377993.2704
 -17110513.37848 -13316700.70647  20579612.5084                   20579610.2704
 -36218123.21948 -28206570.37846  20807081.1334                   20807076.3634
 11  8  2  2 28  0.0000000  0  8G17G10G04G12G25G29G05G02
 -52595807.82146 -40968708.39543  24444012.3364                   24444010.5204
 -25763208.82347 -20060130.15345  21435681.1564                   21435678.5784
 -38044472.29147 -29606312.42744  23255186.9614                   23255185.8164
 -21733944.79448 -16921394.15946  20705950.3524                   20705947.1994
    494213.66647    405325.62345  22325310.9614   22325310.6644   19451938.71947
  15174292.62144                  24349532.2034                   24349531.3874
 -17224028.16348 -13405153.74747  20558011.1414                   20558009.0594
 -36262378.88848 -28241055.29946  20798659.5314                   20798654.9024
 11  8  2  2 28 30.0000000  0  8G17G10G04G12G25G29G05G02
 -52591035.51246 -40964989.70643  24444920.0474                   24444919.2194
 -25771085.04847 -20066267.46345  21434182.4384                   21434180.1604
 -38030481.96447 -29595410.90344  23257849.2194                   23257847.8984
 -21803333.25147 -16975463.08346  20692746.2274                   20692743.2584
    360721.06447    301305.43645  22299908.0474   22299908.1214   19302308.31647
  15057697.48544                  24321059.0084                   24321057.8634
 -17336998.48048 -13493182.54647  20536513.2344                   20536511.5394
 -36306456.82948 -28275401.73246  20790271.4304                   20790267.3364
 11  8  2  2 29  0.0000000  0  7G10G04G12G25G29G05G02
 -25778449.37247 -20072005.90345  21432781.3204                   21432779.2154
 -38016503.75147 -29584518.81744  23260509.5164                   23260507.6374
 -21872136.64348 -17029076.11046  20679653.1804                   20679650.3554
    227683.98447    197640.21145  22274591.9614   22274591.6294   19152615.35846
  14941053.61344                  24292572.2114                   24292571.6844
 -17449427.20148 -13580789.31146  20515119.1024                   20515116.7664
 -36350361.68948 -28309613.30446  20781916.8204                   20781912.6844
 11  8  2  2 29 30.0000000  0  7G10G04G12G25G29G05G02
 -25785303.60047 -20077346.85845  21431476.9844                   21431474.8244
 -38002537.70247 -29573636.19444  23263167.0004                   23263165.7584
 -21940354.54748 -17082232.91046  20666671.9774                   20666669.1024
     95105.47447     94332.29745  22249362.8594   22249362.8244   19002861.52246
  14824362.34044                  24264075.3284                   24264075.0944
 -17561311.72248 -13667972.03546  20493827.9694                   20493825.5354
 -36394093.68248 -28343690.17146  20773594.9614                   20773590.4774
 11  8  2  2 30  0.0000000  0  7G10G04G12G25G29G05G02
 -25791644.47747 -20082287.80145  21430270.2664                   21430268.2114
 -37988578.97047 -29562759.29944  23265823.5084                   23265821.9774
 -22007980.88448 -17134928.75246  20653803.0634                   20653800.4534
    -37006.57547     -8612.12045  22224222.5784   22224222.9224   18853053.32246
  14707628.66744                  24235567.6484                   24235567.2814
 -17672645.27348 -13754725.42846  20472641.7974                   20472639.5554
 -36437647.88848 -28377628.50546  20765307.0474                   20765302.5864
 11  8  2  2 30 30.0000000  0  7G10G04G12G25G29G05G02
 -25797471.34247 -20086828.21345  21429161.6564                   21429159.5864
 -37974626.06447 -29551886.89944  23268477.8834                   23268476.6174
 -22075013.00647 -17187161.57046  20641047.2424                   20641044.1094
   -168647.41147   -111189.37346  22199172.3444   22199172.3954   18703193.86846
  14590855.08744                  24207051.1254                   24207050.2114
 -17783423.83948 -13841046.36547  20451561.3754                   20451559.3244
 -36481023.04848 -28411427.32846  20757053.0634                   20757047.9574
 11  8  2  2 31  0.0000000  0  7G10G04G12G25G29G05G02
 -25802788.92847 -20090971.77945  21428149.4844                   21428147.1954
 -37960681.89347 -29541021.34644  23271132.3754                   23271130.6994
 -22141453.04747 -17238933.02746  20628404.1094                   20628401.1954
   -299817.05047   -213399.44545  22174211.1254   22174211.4574   18553281.73546
  14474040.49643                  24178522.9844                   24178522.1644
 -17893648.43548 -13926935.63146  20430586.4064                   20430583.9104
 -36524222.15948 -28445088.96846  20748832.2734                   20748828.0124
 11  8  2  2 31 30.0000000  0  7G10G04G12G25G29G05G02
 -25807601.82247 -20094722.09045  21427233.3134                   21427230.9884
 -37946749.90147 -29530165.27244  23273782.6644                   23273781.5474
 -22207303.20848 -17290244.83646  20615873.1954                   20615870.4454
   -430515.71747   -315242.54045  22149340.4384   22149340.5514   18403315.09346
  14357183.34844                  24149985.3204                   24149985.0664
 -18003320.62548 -14012394.45546  20409716.7894                   20409713.7974
 -36567248.49948 -28478615.97946  20740644.6724                   20740639.8134
 11  8  2  2 32  0.0000000  0  7G10G04G12G25G29G05G02
 -24236496.33147 -18870484.04245  21726205.0234                   21726202.7274
 -36357414.95647 -28291722.51644  23576224.0474                   23576221.7464
 -20697144.96848 -16113498.16346  20903246.8204                   20903243.9574
   1014679.36047    810883.52545  22424351.7584   22424352.1994   19828716.04146
  15467885.42744                  24421229.9454                   24421229.5434
 -16537018.86848 -12869821.63347  20688744.2974                   20688742.2114
 -35034685.47448 -27284411.01046  21032281.6884                   21032277.3524
 11  8  2  2 32 30.0000000  0  7G10G04G12G25G29G05G02
 -24240316.37647 -18873460.68945  21725478.2114                   21725475.5554
 -36343518.35347 -28280894.01044  23578868.0234                   23578866.7934
 -20761824.66148 -16163897.92246  20890938.3914                   20890935.5044
    884920.19247    709772.52046  22399659.4224   22399659.7974   19678633.75946
  15350938.24843                  24392670.9144                   24392669.7114
 -16645591.01448 -12954423.27347  20668083.8594                   20668081.4924
 -35077378.25548 -27317678.10746  21024157.4924                   21024153.0234
 11  8  2  2 33  0.0000000  0  7G10G04G12G25G29G05G02
 -24243644.66047 -18876054.14745  21724844.5784                   21724842.3134
 -36329642.26347 -28270081.52244  23581508.1884                   23581507.0594
 -20825920.11748 -16213842.43046  20878741.8524                   20878739.0984
    755632.67247    609029.04345  22375056.5634   22375057.0634   19528493.80646
  15233946.11743                  24364099.7894                   24364098.5594
 -16753612.51248 -13038595.83947  20647527.8834                   20647525.4844
 -35119907.12648 -27350817.46946  21016064.6564                   21016060.0314
 11  8  2  2 33 30.0000000  0  7G10G04G12G25G29G05G02
 -24246486.06547 -18878268.22445  21724304.3594                   21724302.2894
 -36315789.51246 -28259287.19444  23584144.9774                   23584142.9844
 -20889433.78248 -16263333.59746  20866655.3054                   20866652.3524
    626816.70747    508652.99245  22350544.1484   22350544.6024   19378294.56147
  15116907.79643                  24335517.6094                   24335516.2734
 -16861084.39648 -13122340.13247  20627076.7814                   20627074.3984
 -35162275.17548 -27383831.52746  21008002.0314                   21007997.3244
 11  8  2  2 34  0.0000000  0  7G10G04G12G25G29G05G02
 -24248841.44547 -18880103.57845  21723856.1334                   21723853.6804
 -36301959.35446 -28248510.48144  23586776.5634                   23586774.8714
 -20952364.13648 -16312370.23446  20854680.0634                   20854677.4654
    498476.09547    408647.35245  22326121.3054   22326121.9224   19228038.35746
  14999825.06744                  24306924.2814                   24306923.3484
 -16968003.80548 -13205653.93846  20606730.7344                   20606728.8164
 -35204481.57748 -27416719.62346  20999970.7344                   20999965.7584
 11  8  2  2 34 30.0000000  0  7G10G04G12G25G29G05G02
 -24250714.74947 -18881563.27845  21723499.3754                   21723497.4694
 -36288154.08946 -28237753.21843  23589403.5944                   23589402.0474
 -21014712.80448 -16360953.61046  20842815.6724                   20842812.6374
    370611.35247    309012.53246  22301789.7194   22301789.5044   19077724.63446
  14882697.56843                  24278320.6174                   24278320.0084
 -17074371.53548 -13288537.85046  20586489.9454                   20586486.9964
 -35246528.60848 -27449483.53346  20991969.1954                   20991964.7704
 11  8  2  2 35  0.0000000  0  7G10G04G12G25G29G05G02
 -24252105.31447 -18882646.84545  21723234.5704                   21723232.7624
 -36274371.46146 -28227013.50143  23592026.4614                   23592024.7154
 -21076476.99148 -16409081.54546  20831062.0004                   20831059.5004
    243227.37247    209752.30946  22277548.9774   22277550.1374   18927356.71546
  14765527.83143                  24249707.0704                   24249706.4494
 -17180183.53248 -13370988.74147  20566354.4224                   20566351.4534
 -35288414.68448 -27482122.02046  20983998.5234                   20983993.4614
 11  8  2  2 35 30.0000000  0  7G10G04G12G25G29G05G02
 -24253017.05347 -18883357.27545  21723061.4534                   21723059.0394
 -36260613.89646 -28216293.40443  23594643.8444                   23594643.2034
 -21137658.09448 -16456755.12946  20819420.2034                   20819417.0434
    116324.91748    110867.31046  22253400.5944   22253400.6334   18776934.37246
  14648315.65143                  24221082.2664                   24221081.2304
 -17285439.91248 -13453006.67047  20546324.6414                   20546322.0394
 -35330141.96448 -27514636.77646  20976058.4224                   20976053.5204
 11  8  2  2 36  0.0000000  0  7G10G04G12G25G29G05G02
 -24253452.11747 -18883696.29845  21722977.9924                   21722976.5554
 -36246881.67246 -28205592.95643  23597257.7194                   23597256.0554
 -21198256.25648 -16503974.47146  20807888.3754                   20807885.6054
    -10093.69048     12359.34345  22229343.8444   22229343.6564   18626458.57046
  14531061.88043                  24192448.2274                   24192445.6374
 -17390139.53748 -13534590.76047  20526400.2974                   20526398.3834
 -35371711.16048 -27547028.35846  20968147.8364                   20968143.1524
 11  8  2  2 36 30.0000000  0  7G10G04G12G25G29G05G02
 -24253414.17747 -18883666.72745  21722986.0474                   21722984.0124
 -36233176.69946 -28194913.75843  23599865.7274                   23599863.9414
 -21258272.79648 -16550740.60546  20796467.6024                   20796464.5944
   -136027.62748    -85770.95245  22205379.4144   22205379.4454   18475929.09646
  14413766.20544                  24163802.3984                   24163801.3634
 -17494282.36848 -13615740.98847  20506582.9384                   20506580.7194
 -35413124.33348 -27579298.35246  20960267.2974                   20960262.1914
 11  8  2  2 37  0.0000000  0  7G10G04G12G25G29G05G02
 -24252906.33347 -18883271.00045  21723082.3284                   21723080.3554
 -36219500.07047 -28184256.69643  23602467.6484                   23602466.5164
 -21317708.09048 -16597053.81246  20785157.3204                   20785154.6454
   -261475.09448   -183522.19046  22181507.5474   22181507.2704   18325346.47046
  14296429.13344                  24135148.5314                   24135147.0514
 -17597867.76848 -13696456.86047  20486871.5314                   20486868.9534
 -35454382.49348 -27611447.56246  20952416.2344                   20952411.0904
 11  8  2  2 37 30.0000000  0  7G10G04G12G25G29G05G02
 -24251930.81447 -18882510.86545  21723267.7114                   21723265.5664
 -36205852.78447 -28173622.48643  23605065.3204                   23605063.3444
 -21376562.50248 -16642914.38546  20773957.6094                   20773954.6724
   -386434.14448   -280892.85146  22157728.7194   22157728.5514   18174711.51746
  14179051.33144                  24106483.3134                   24106481.8634
 -17700895.16148 -13776737.92147  20467266.0314                   20467263.4734
 -35495486.74048 -27643476.84946  20944593.9844                   20944589.3874
 11  8  2  2 38  0.0000000  0  7G10G04G12G25G29G05G02
 -24250491.04947 -18881388.94345  21723541.6884                   21723539.6254
 -36192235.94147 -28163011.93744  23607657.2274                   23607655.4654
 -21434836.72248 -16688322.86146  20762868.6334                   20762865.3284
   -510903.46848   -377881.88045  22134042.5864   22134042.9774   18024024.19047
  14061632.70944                  24077808.0234                   24077807.6684
 -17803363.67447 -13856583.48947  20447766.7114                   20447764.5204
 -35536438.62948 -27675387.40246  20936801.4144                   20936796.4414
 11  8  2  2 38 30.0000000  0  7G10G04G12G25G29G05G02
 -24248588.32247 -18879906.30345  21723903.8754                   21723901.2464
 -36178649.19247 -28152424.85043  23610241.8524                   23610240.8164
 -21492530.16748 -16733278.78546  20751889.7814                   20751887.1374
   -634879.95548   -474486.91346  22110450.8134   22110450.7074   17873286.72547
  13944175.00144                  24049123.6174                   24049123.1524
 -17905271.52047 -13935992.16447  20428374.5864                   20428371.8444
 -35577237.83548 -27707178.97846  20929037.2814                   20929032.5634
 11  8  2  2 39  0.0000000  0  7G10G04G12G25G29G05G02
 -24246228.93647 -18878067.82845  21724352.9694                   21724350.7194
 -36165097.08147 -28141864.76544  23612820.8524                   23612819.4454
 -21549646.74748 -16777785.20846  20741020.9144                   20741018.1174
   -758365.41448   -570709.31846  22086952.7344   22086952.6604   17722496.17347
  13826675.91744                  24020429.1174                   24020428.8914
 -18006621.67248 -14014966.28447  20409088.0944                   20409085.9804
 -35617888.87348 -27738855.10746  20921301.7114                   20921296.6724
 11  8  2  2 39 30.0000000  0  7G10G04G12G25G29G05G02
 -24243411.44847 -18875872.38145  21724889.3054                   21724886.5314
 -36151576.46647 -28131329.27144  23615394.1724                   23615392.3754
 -21606183.30548 -16821839.65646  20730262.3524                   20730259.8554
   -881354.09448   -666544.61946  22063548.1644   22063548.2894   17571657.29346
  13709139.17944                  23991725.5634                   23991724.6954
 -18107409.30748 -14093502.07247  20389908.6644                   20389906.4304
 -35658389.06548 -27770413.69446  20913594.5474                   20913589.8444
 11  8  2  2 40  0.0000000  0  7G10G04G12G25G29G05G02
 -24240139.07747 -18873322.48245  21725511.7814                   21725509.1454
 -36138088.35247 -28120819.02444  23617960.4774                   23617959.1604
 -21662140.45548 -16865442.62446  20719614.1024                   20719610.7734
  -1003844.49848   -761991.65446  22040238.7584   22040238.9534   17420770.74146
  13591565.32544                  23963012.8444                   23963011.7584
 -18207634.20248 -14171599.36947  20370836.3204                   20370833.9924
 -35698739.30848 -27801855.42846  20905916.4534                   20905911.6454
 11  8  2  2 40 30.0000000  0  7G10G04G12G25G29G05G02
 -24236413.97547 -18870419.79845  21726220.5944                   21726217.6024
 -36124633.39947 -28110334.64043  23620520.8364                   23620519.1844
 -21717518.18948 -16908594.10046  20709076.1644                   20709073.1294
  -1125834.47148   -857048.74846  22017025.1334   22017024.9104   17269837.31446
  13473954.89544                  23934290.9774                   23934289.7584
 -18307295.08147 -14249257.17347  20351871.7504                   20351869.4384
 -35738940.78447 -27833181.24046  20898266.1484                   20898261.6844
 11  8  2  2 41  0.0000000  0  7G10G04G12G25G29G05G02
 -24232243.53447 -18867170.09645  21727014.3284                   21727011.4734
 -36111216.75346 -28099880.14143  23623073.6254                   23623072.7704
 -21772322.00148 -16951298.36646  20698647.4144                   20698644.4534
  -1247326.89148   -951718.13346  21993905.6954   21993905.9774   17118853.59946
  13356305.31944                  23905559.2274                   23905558.0554
 -18406395.98747 -14326478.63147  20333013.2894                   20333010.9734
 -35778998.49648 -27864395.03246  20890643.4694                   20890638.5004
 11  8  2  2 41 30.0000000  0  7G10G04G12G25G29G05G02
 -24227627.23547 -18863572.98145  21727892.1724                   21727890.3984
 -36097836.25147 -28089453.76243  23625620.0084                   23625618.6884
 -21826549.20948 -16993553.31746  20688328.2114                   20688325.5864
  -1368316.81148  -1045995.96646  21970882.2424   21970882.0204   16967823.49346
  13238619.53844                  23876819.8594                   23876818.9384
 -18504932.92647 -14403260.63847  20314262.7114                   20314259.8794
 -35818910.43947 -27895495.22746  20883048.5234                   20883044.0664
 11  8  2  2 42  0.0000000  0  7G10G04G12G25G29G05G02
 -24222571.03147 -18859633.07345  21728855.2814                   21728852.8914
 -36084495.47846 -28079058.34744  23628158.6414                   23628157.8164
 -21880203.28248 -17035361.68446  20678118.1884                   20678115.6954
  -1488805.41148  -1139883.14246  21947954.0004   21947954.0744   16816744.74146
  13120895.91644                  23848070.6564                   23848069.3484
 -18602908.34648 -14479605.09447  20295618.3914                   20295615.5514
 -35858680.51048 -27926484.88946  20875480.7114                   20875475.9384
 11  8  2  2 42 30.0000000  0  7G10G04G12G25G29G05G02
 -24217075.04447 -18855350.47445  21729900.4224                   21729898.6254
 -36071192.66847 -28068692.56443  23630690.0554                   23630689.4104
 -21933282.36848 -17076721.99846  20668017.7274                   20668014.7704
  -1608788.50648  -1233376.42846  21925122.0864   21925121.9734   16665620.50246
  13003136.84644                  23819312.2114                   23819311.3164
 -18700319.12348 -14555509.56847  20277081.8524                   20277079.6484
 -35898307.30748 -27957362.90846  20867939.6644                   20867934.9344
 11  8  2  2 43  0.0000000  0  7G10G04G12G25G29G05G02
 -24211141.18947 -18850726.69845  21731029.9064                   21731027.8014
 -36057927.66046 -28058356.19643  23633214.3984                   23633213.0274
 -21985786.19448 -17117634.06646  20658026.0784                   20658022.8914
  -1728263.49148  -1326473.78046  21902386.4694   21902386.4844   16514452.66646
  12885343.78444                  23790546.0234                   23790545.3324
 -18797163.74048 -14630972.88347  20258652.6804                   20258650.4534
 -35937790.83548 -27988129.28146  20860426.3984                   20860421.4384
 11  8  2  2 43 30.0000000  0  7G10G04G12G25G29G05G02
 -22629351.13747 -17618163.02445  22032034.7114                   22032032.2154
 -34469280.47346 -26820449.31044  23935524.3674                   23935522.8484
 -20462292.57448 -15930496.17746  20947937.4454                   20947934.9964
   -271803.48348   -191569.85446  22179541.7274   22179541.6254   17938668.82347
  13995122.63244                  24061565.4064                   24061564.3674
 -17318017.33448 -13478391.23747  20540124.9694                   20540122.2034
 -34401709.53048 -26791182.81246  21152732.8984                   21152728.0084
 11  8  2  2 44  0.0000000  0  7G10G04G12G25G29G05G02
 -22622548.94547 -17612862.61745  22033329.2814                   22033327.1174
 -34456092.71546 -26810173.19843  23938034.0634                   23938032.3834
 -20513647.45348 -15970512.96246  20938165.1254                   20938162.5744
   -390256.69948   -283871.02046  22157001.1094   22157000.4654   17787417.68147
  13877264.70044                  24032783.4694                   24032781.9804
 -17413727.96148 -13552970.92347  20521911.5784                   20521909.4414
 -34440908.38648 -26821727.36046  21145273.4064                   21145268.3794
 11  8  2  2 44 30.0000000  0  7G10G04G12G25G29G05G02
 -22615318.29847 -17607228.33945  22034705.1094                   22034702.6414
 -34442946.27446 -26799929.23443  23940534.7424                   23940535.0904
 -20564429.81748 -16010083.63346  20928501.4844                   20928498.8834
   -508197.90048   -375773.21946  22134557.1094   22134557.0354   17636124.34147
  13759373.84044                  24003993.3134                   24003991.8404
 -17508871.68948 -13627108.86147  20503806.4454                   20503803.7384
 -34479967.90548 -26852163.33946  21137840.3054                   21137835.8054
 11  8  2  2 45  0.0000000  0  7G10G04G12G25G29G05G02
 -22607662.57847 -17601262.85045  22036161.6884                   22036159.2734
 -34429842.30146 -26789718.41943  23943028.7734                   23943026.9104
 -20614642.13448 -16049210.11146  20918946.4384                   20918943.5004
   -625626.25748   -467275.79446  22112211.0394   22112211.4064   17484789.12347
  13641450.33344                  23975194.3134                   23975193.2814
 -17603448.97448 -13700805.41347  20485808.7274                   20485806.0984
 -34518889.82548 -26882492.09646  21130433.7894                   21130429.2384
 11  8  2  2 45 30.0000000  0  7G10G04G12G25G29G05G02
 -22599584.80847 -17594968.46545  22037699.3754                   22037696.8444
 -34416781.80646 -26779541.41543  23945513.1804                   23945512.9064
 -20664284.58848 -16087892.53146  20909499.7114                   20909497.0634
   -742540.43448   -558377.70846  22089963.5944   22089962.8554   17333412.62647
  13523494.71944                  23946388.6094                   23946387.8634
 -17697459.70048 -13774060.49647  20467919.4144                   20467916.4184
 -34557675.15848 -26912714.42246  21123053.1254                   21123048.2274
 11  8  2  2 46  0.0000000  0  7G10G04G12G25G29G05G02
 -22591084.81347 -17588345.08945  22039316.9924                   22039314.6844
 -34403762.72146 -26769396.71243  23947991.8054                   23947990.0664
 -20713355.28048 -16126129.43646  20900162.1954                   20900159.2934
   -858935.93448   -649075.46346  22067813.9774   22067813.7584   17181998.75947
  13405509.90444                  23917575.6564                   23917574.8164
 -17790900.48948 -13846871.48047  20450138.3204                   20450135.2034
 -34596321.98148 -26942828.82546  21115698.8444                   21115694.0744
 11  8  2  2 46 30.0000000  0  7G10G04G12G25G29G05G02
 -22582166.31947 -17581395.61645  22041013.7504                   22041011.1604
 -34390786.70246 -26759285.57043  23950461.1094                   23950459.5314
 -20761856.38048 -16163922.50646  20890932.3284                   20890929.5434
   -974812.05348   -739368.50146  22045763.5314   22045764.0314   17030547.71446
  13287496.13844                  23888755.0084                   23888753.0944
 -17883771.89948 -13919238.78147  20432465.3754                   20432462.9184
 -34634831.83348 -26972836.50046  21108370.4694                   21108366.4774
 11  8  2  2 47  0.0000000  0  7G10G04G12G25G29G05G02
 -22572831.32247 -17574121.57445  22042789.9384                   22042787.7074
 -34377853.05546 -26749207.43843  23952922.6954                   23952920.7814
 -20809787.00248 -16201271.03946  20881811.6094                   20881808.5944
  -1090166.02248   -829254.66046  22023812.3364   22023812.5274   16879061.34347
  13169454.85544                  23859927.8984                   23859926.7384
 -17976072.47748 -13991161.27947  20414901.1564                   20414898.5044
 -34673204.53948 -27002737.29746  21101068.7974                   21101064.0314
 11  8  2  2 47 30.0000000  0  7G10G04G12G25G29G05G02
 -22563083.00647 -17566525.48645  22044645.0084                   22044642.5434
 -34364962.80746 -26739163.08443  23955375.3444                   23955373.2344
 -20857148.82948 -16238176.36746  20872799.1954                   20872796.0944
  -1204996.79548   -918733.13846  22001960.6174   22001960.0234   16727540.18247
  13051386.46544                  23831094.6644                   23831093.1604
 -18067802.00748 -14062638.82047  20397445.4384                   20397442.9614
 -34711441.37348 -27032532.23346  21093792.3754                   21093787.8484
 11  8  2  2 48  0.0000000  0  7G10G04G12G25G29G05G02
 -22552924.94647 -17558610.12345  22046577.8524                   22046575.8674
 -34352117.95347 -26729154.18443  23957819.9064                   23957818.0744
 -20903943.75948 -16274639.93946  20863893.9844                   20863891.2734
  -1319303.95048  -1007803.61546  21980208.6024   21980208.8364   16575984.20846
  12933290.97344                  23802254.8914                   23802253.5124
 -18158961.61748 -14133672.25747  20380098.4454                   20380095.8524
 -34749544.52848 -27062222.98646  21086541.6564                   21086536.8594
 11  8  2  2 48 30.0000000  0  7G10G04G12G25G29G05G02
 -22542360.38747 -17550377.97345  22048588.2034                   22048585.9064
 -34339319.28047 -26719181.15043  23960255.2194                   23960252.7584
 -20950172.91348 -16310662.66546  20855096.7034                   20855093.9734
  -1433086.22748  -1096465.08946  21958556.3834   21958556.4804   16424394.07746
  12815168.82144                  23773407.6804                   23773406.4534
 -18249551.40448 -14204261.68047  20362859.7034                   20362856.9414
 -34787514.99948 -27091810.35146  21079316.3984                   21079311.8444
 11  8  2  2 49  0.0000000  0  7G10G04G12G25G29G05G02
 -22531392.05747 -17541831.21245  22050675.4384                   22050673.7194
 -34326567.15846 -26709244.42743  23962682.1724                   23962679.7584
 -20995837.13048 -16346245.17646  20846407.3134                   20846404.3794
  -1546342.00248  -1184716.31146  21937004.6334   21937004.5784   16272771.01547
  12697021.06344                  23744555.1094                   23744553.6094
 -18339570.12348 -14274406.11147  20345729.6484                   20345727.1644
 -34825353.64948 -27121295.01046  21072115.9614                   21072110.7074
 11  8  2  2 49 30.0000000  0  7G10G04G12G25G29G05G02
 -22520023.72847 -17532972.77245  22052838.8204                   22052837.2304
 -34313863.04047 -26699345.09143  23965099.4924                   23965096.6844
 -21040938.26648 -16381388.93046  20837825.0944                   20837822.3484
  -1659070.67048  -1272556.80546  21915553.4924   21915553.1134   16121114.99747
  12578847.62344                  23715695.7504                   23715694.5124
 -18429018.89648 -14344106.42747  20328707.9924                   20328705.5594
 -34863062.01648 -27150678.14646  21064940.3054                   21064935.2154
 11  8  2  2 50  0.0000000  0  7G10G04G12G25G29G05G02
 -22508256.97247 -17523803.87945  22055077.7194                   22055076.3954
 -34301206.58647 -26689482.92643  23967507.0164                   23967506.6094
 -21085476.12748 -16416093.75046  20829349.5634                   20829346.6374
  -1771269.71348  -1359984.60246  21894201.8204   21894202.4654   15969427.87647
  12460649.91844                  23686830.3674                   23686829.2114
 -18517896.03548 -14413361.33047  20311795.5314                   20311793.2624
 -34900639.75048 -27179959.49346  21057789.4224                   21057785.1564
 11  8  2  2 50 30.0000000  0  7G10G04G12G25G29G05G02
 -22496095.67847 -17514327.53445  22057392.0864                   22057390.0554
 -34288599.53346 -26679659.30043  23969906.0394                   23969905.3094
 -21129452.86548 -16450361.34146  20820981.1724                   20820978.3594
  -1882938.84048  -1446999.46846  21872952.5084   21872952.1174   15817710.15347
  12342428.36644                  23657959.3834                   23657958.2544
 -18606202.82548 -14482171.78747  20294990.7114                   20294988.6804
 -34938089.14048 -27209140.81346  21050663.2194                   21050658.6684
 11  8  2  2 51  0.0000000  0  7G10G04G12G25G29G05G02
 -22483544.02547 -17504547.01845  22059780.5864                   22059778.2034
 -34276043.41046 -26669875.29843  23972295.4694                   23972294.9344
 -21172870.76248 -16484193.46746  20812719.2504                   20812716.0084
  -1994077.78148  -1533601.21046  21851803.5784   21851803.5474   15665961.61047
  12224182.82144                  23629082.0394                   23629081.8204
 -18693940.09248 -14550538.46247  20278295.1334                   20278292.3754
 -34975411.75148 -27238223.36046  21043561.0084                   21043556.3524
 11  8  2  2 51 30.0000000  0  7G10G04G12G25G29G05G02
 -22470605.49647 -17494465.04645  22062242.3984                   22062240.2504
 -34263539.59946 -26660132.12343  23974674.4534                   23974674.2424
 -21215731.27848 -16517591.27946  20804562.7814                   20804560.1214
  -2104685.71448  -1619789.18746  21830755.3054   21830755.2934   15514182.32647
  12105913.32044                  23600199.6024                   23600199.3204
 -18781108.35148 -14618461.76747  20261707.3204                   20261705.0594
 -35012609.15048 -27267208.33746  21036482.4224                   21036477.7894
 11  8  2  2 52  0.0000000  0  7G10G04G12G25G29G05G02
 -22457286.22647 -17484086.38345  22064777.7504                   22064774.3364
 -34251091.68546 -26650432.47743  23977044.6334                   23977042.7774
 -21258038.72348 -16550558.12846  20796511.5784                   20796509.1414
  -2214764.55248  -1705564.86946  21809807.9454   21809808.0554   15362370.31747
  11987618.32744                  23571310.9844                   23571310.0124
 -18867710.72448 -14685944.11347  20245227.5554                   20245225.2544
 -35049685.26848 -27296098.79846  21029427.3754                   21029422.4104
 11  8  2  2 52 30.0000000  0  7G10G04G12G25G29G05G02
 -22443585.52647 -17473410.53245  22067384.5704                   22067382.5354
 -34238696.74946 -26640774.17243  23979402.2194                   23979402.3164
 -21299790.43648 -16583091.93046  20788567.0474                   20788564.4574
  -2324309.15148  -1790924.28146  21788962.3284   21788962.5044   15210530.38447
  11869301.56244                  23542416.6884                   23542415.5904
 -18953743.06748 -14752982.28547  20228856.1644                   20228853.1024
 -35086637.55048 -27324892.77946  21022395.2344                   21022390.6804
 11  8  2  2 53  0.0000000  0  7G10G04G12G25G29G05G02
 -22429504.58647 -17462438.34145  22070064.3204                   22070061.4414
 -34226353.43746 -26631156.09843  23981752.2504                   23981751.3714
 -21340986.57348 -16615192.82846  20780727.7424                   20780725.3204
  -2433316.62048  -1875865.14746  21768218.8984   21768218.4774   15058665.06647
  11750965.04044                  23513517.8594                   23513516.6564
 -19039203.81548 -14819575.06047  20212593.7584                   20212591.2464
 -35123464.83348 -27353589.34046  21015386.9384                   21015382.2584
 11  8  2  2 53 30.0000000  0  7G10G04G12G25G29G05G02
 -22415045.96047 -17451171.89045  22072815.5234                   22072812.5864
 -34214062.61446 -26621578.81843  23984090.1024                   23984090.0204
 -21381627.90548 -16646861.39846  20772993.8594                   20772991.0554
  -2541785.74648  -1960386.51846  21747577.9454   21747577.6604   14906775.39747
  11632609.51644                  23484613.0164                   23484612.2074
 -19124092.91448 -14885722.39447  20196439.5084                   20196437.3554
 -35160168.03348 -27382189.21846  21008402.7114                   21008398.1994
 11  8  2  2 54  0.0000000  0  7G10G04G12G25G29G05G02
 -22400215.57847 -17439615.75945  22075637.5864                   22075635.2114
 -34201827.49746 -26612045.01743  23986419.1024                   23986418.1484
 -21421718.31048 -16678100.67846  20765365.0084                   20765362.2734
  -2649717.90348  -2044489.47646  21727039.1174   21727038.8324   14754860.07547
  11514234.04544                  23455705.1564                   23455703.7934
 -19208413.12248 -14951426.43047  20180393.9144                   20180391.0234
 -35196750.75348 -27410695.20846  21001441.4844                   21001436.5784
 11  8  2  2 54 30.0000000  0  7G10G04G12G25G29G05G02
 -22385013.00247 -17427769.61145  22078531.1094                   22078528.4184
 -34189645.67047 -26602552.75544  23988737.1804                   23988736.4024
 -21461256.08148 -16708909.32246  20757841.3524                   20757837.9884
  -2757108.96248  -2128170.78946  21706603.4924   21706603.2704   14602922.86847
  11395841.48644                  23426792.7814                   23426790.9144
 -19292161.67548 -15016685.01847  20164457.2504                   20164454.9064
 -35233210.86148 -27439105.67746  20994503.4224                   20994498.3094
 11  8  2  2 55  0.0000000  0  7G10G04G12G25G29G05G02
 -20794023.43147 -16188037.45345  22381285.6484                   22381282.9344
 -32602099.56147 -25365503.86444  24290837.5394                   24290835.8324
 -19924822.86848 -15511688.63746  21050214.3984                   21050212.0594
  -1288535.83548   -983828.09246  21986064.0164   21986063.2384   16026388.24547
  12505035.37744                  23697668.9534                   23697667.5004
 -17799917.21648 -13853897.11247  20448422.0864                   20448418.8594
 -33694129.51048 -26239821.49546  21287381.0784                   21287376.0044
 11  8  2  2 55 30.0000000  0  7G10G04G12G25G29G05G02
 -20778088.70747 -16175620.78445  22384318.2194                   22384315.4614
 -32590028.43947 -25356097.82244  24293134.4224                   24293132.2194
 -19963261.86448 -15541641.09446  21042900.0784                   21042896.4694
  -1394843.92948  -1066665.54946  21965833.8364   21965833.8674   15874407.84747
  12386609.16944                  23668748.1414                   23668746.9964
 -17882524.91848 -13918266.71747  20432702.5234                   20432700.0164
 -33730349.20448 -26268044.61746  21280488.3054                   21280483.3714
 11  8  2  2 56  0.0000000  0  7G10G04G12G25G29G05G02
 -20761789.75947 -16162920.32145  22387419.6024                   22387417.3524
 -32578010.98047 -25346733.58544  24295421.7344                   24295420.2194
 -20001151.00348 -15571165.09446  21035689.9924                   21035687.1414
  -1500606.20448  -1149077.68846  21945707.7114   21945707.2974   15722410.04847
  12268169.38744                  23639823.4144                   23639822.1054
 -17964559.76348 -13982189.95447  20417091.7344                   20417089.2814
 -33766447.51548 -26296173.15946  21273618.8524                   21273614.0784
 11  8  2  2 56 30.0000000  0  7G10G04G12G25G29G05G02
 -20745129.87847 -16149938.59245  22390589.8984                   22390587.4414
 -32566048.26447 -25337412.03243  24297698.1334                   24297695.9534
 -20038492.05448 -15600262.01446  21028584.0084                   21028581.2664
  -1605821.94448  -1231063.96546  21925685.8134   21925685.6214   15570395.73147
  12149716.76944                  23610897.0234                   23610894.9804
 -18046022.11348 -14045667.09047  20401589.3204                   20401586.9884
 -33802425.51948 -26324207.94546  21266772.4384                   21266767.5704
 11  8  2  2 57  0.0000000  0  7G10G04G12G25G29G05G02
 -20728111.71947 -16136677.71345  22393828.5474                   22393826.8874
 -32554140.40346 -25328133.20443  24299964.0864                   24299962.1804
 -20075285.97848 -15628932.60346  21021582.6644                   21021579.7114
  -1710489.71848  -1312623.24946  21905768.1954   21905768.3484   15418366.20347
  12031252.23844                  23581966.6024                   23581965.0904
 -18126911.99648 -14108698.14147  20386196.9924                   20386194.3714
 -33838283.81448 -26352149.46546  21259948.7584                   21259944.5394
 11  8  2  2 57 30.0000000  0  7G10G04G12G25G29G05G02
 -20710742.34647 -16123143.13545  22397133.7974                   22397130.8554
 -32542291.60546 -25318900.34943  24302217.8754                   24302217.4384
 -20111538.04448 -15657180.96146  21014684.1564                   21014681.0234
  -1814612.34248  -1393757.76546  21885954.3594   21885953.9184   15266318.58747
  11912773.63144                  23553032.5314                   23553030.6564
 -18207233.51448 -14171286.31247  20370912.2894                   20370909.5434
 -33874027.02348 -26380001.29946  21253147.1954                   21253142.5704
 11  8  2  2 58  0.0000000  0  7G10G04G12G25G29G05G02
 -20693020.21947 -16109333.68745  22400505.8594                   22400503.9384
 -32530498.51946 -25309710.93443  24304462.3834                   24304461.1374
 -20147245.38448 -15685004.86446  21007889.1174                   21007886.4104
  -1918184.67548  -1474463.44146  21866245.3054   21866244.9414   15114257.96547
  11794284.91244                  23524096.2194                   23524094.7734
 -18286982.52348 -14233428.37447  20355736.2114                   20355733.6644
 -33909651.74048 -26407760.79846  21246367.6484                   21246363.5084
 11  8  2  2 58 30.0000000  0  7G10G04G12G25G29G05G02
 -20674949.20347 -16095252.40145  22403944.6804                   22403942.0664
 -32518762.30346 -25300565.90242  24306695.3754                   24306693.7154
 -20182410.63547 -15712406.35746  21001197.3284                   21001194.4614
  -2021206.29748  -1554740.01946  21846640.4774   21846640.1914   14962184.96547
  11675786.50644                  23495157.6804                   23495155.8054
 -18366160.38948 -14295125.38547  20340669.6174                   20340666.6684
 -33945159.41047 -26435429.10046  21239611.1024                   21239606.2424
 11  8  2  2 59  0.0000000  0  7G10G04G12G25G29G05G02
 -20656532.65547 -16080901.85545  22407449.3914                   22407447.0664
 -32507083.51946 -25291465.59442  24308917.7664                   24308917.6954
 -20217035.40548 -15739386.69746  20994608.5704                   20994605.4734
  -2123676.63048  -1634587.00746  21827141.2814   21827140.7034   14810100.36747
  11557279.07044                  23466216.3134                   23466215.2584
 -18444767.40548 -14356377.58747  20325710.7734                   20325708.4264
 -33980551.14848 -26463007.06346  21232875.9144                   21232871.4654
 11  8  2  2 59 30.0000000  0  7G10G04G12G25G29G05G02
 -20637774.19847 -16066284.84444  22411019.0554                   22411016.4924
 -32495463.62146 -25282411.12542  24311130.0554                   24311128.1024
 -20251121.64648 -15765947.40246  20988121.8054                   20988119.1724
  -2225595.26048  -1714004.09746  21807746.8444   21807746.8874   14658004.79947
  11438763.11444                  23437273.6724                   23437271.9184
 -18522804.47448 -14417185.67447  20310860.8364                   20310858.2504
 -34015828.39948 -26490495.82646  21226163.6174                   21226158.7424
 11  8  2  3  0  0.0000000  0  7G10G04G12G25G29G05G02
 -20618676.95447 -16051403.90344  22414653.4064                   22414650.7344
 -32483902.99146 -25273402.97743  24313328.9454                   24313328.1994
 -20284671.15847 -15792089.87046  20981737.6254                   20981734.7504
  -2326961.37048  -1792990.65546  21788457.5704   21788457.4344   14505899.16446
  11320239.26844                  23408328.6884                   23408327.7584
 -18600272.11148 -14477550.03147  20296119.0634                   20296116.6994
 -34050991.89847 -26517895.93946  21219472.0084                   21219467.5274
 11  8  2  3  0 30.0000000  0  7G10G04G12G25G29G05G02
 -20599243.79647 -16036261.17044  22418351.6254                   22418348.7194
 -32472402.25646 -25264441.34943  24315517.7504                   24315517.2974
 -20317685.11248 -15817815.03146  20975455.1254                   20975452.7814
  -2427773.88448  -1871545.85146  21769273.2974   21769273.4344   14353784.97347
  11201708.76744                  23379383.3444                   23379381.2424
 -18677170.48748 -14537470.82347  20281486.0314                   20281483.3524
 -34086042.32148 -26545207.95146  21212801.2734                   21212797.0084
 11  8  2  3  1  0.0000000  0  8G26G10G04G12G25G29G05G02
  26542278.15856  20700916.12453  24788196.9144                   24788196.7504
 -20579477.95647 -16020859.21744  22422111.9614                   22422110.0594
 -32460962.07446 -25255526.99943  24317695.6564                   24317694.0234
 -20350165.66048 -15843124.55546  20969274.8364                   20969271.6884
  -2528032.42448  -1949669.36446  21750195.3834   21750194.5904   14201662.72747
  11083171.99844                  23350435.5164                   23350433.2304
 -18753500.36348 -14596948.62847  20266961.3594                   20266958.5354
 -34120980.89848 -26572432.79746  21206153.0704                   21206148.3834
 11  8  2  3  1 30.0000000  0  8G26G10G04G12G25G29G05G02
  26379280.54846  20573905.09143  24757179.2114                   24757178.8754
 -20559388.39347 -16005205.04244  22425935.3284                   22425932.9024
 -32449588.79946 -25246664.70243  24319859.1484                   24319857.6524
 -20382120.36148 -15868024.32746  20963193.5554                   20963190.9654
  -2627741.78648  -2027364.94546  21731220.9614   21731220.5554   14049528.10747
  10964625.58944                  23321484.7114                   23321483.4924
 -18829268.09648 -14655988.39847  20252542.5474                   20252540.3674
 -34155814.31748 -26599575.71846  21199524.6484                   21199520.1414
 11  8  2  3  2  0.0000000  0  8G26G10G04G12G25G29G05G02
  26216147.09646  20446788.16243  24726136.0784                   24726135.4494
 -20538977.06047 -15989300.14144  22429819.8054                   22429817.0274
 -32438281.93347 -25237854.16743  24322011.8594                   24322010.0274
 -20413550.04748 -15892514.98246  20957212.9454                   20957209.9534
  -2726900.17648  -2104631.20646  21712351.5864   21712350.9414   13897383.10247
  10846071.08944                  23292532.6094                   23292530.8094
 -18904472.70148 -14714589.36147  20238231.5944                   20238229.3984
 -34190541.99748 -26626636.24246  21192916.2584                   21192911.6134
 11  8  2  3  2 30.0000000  0  8G26G10G04G12G25G29G05G02
  26052879.26946  20319566.63843  24695067.6954                   24695066.0744
 -20518248.33347 -15973147.88544  22433764.8834                   22433762.2464
 -32427043.11746 -25229096.66743  24324149.6644                   24324148.9774
 -20444457.03948 -15916598.36646  20951331.6644                   20951328.7734
  -2825507.98948  -2181468.44546  21693587.0944   21693586.5044   13745227.72047
  10727508.53244                  23263578.1724                   23263576.6174
 -18979116.04648 -14772752.99747  20224027.5394                   20224025.0784
 -34225166.10748 -26653616.06946  21186327.3674                   21186323.0124
 11  8  2  3  3  0.0000000  0  8G26G10G04G12G25G29G05G02
  25889482.44746  20192244.54643  24663974.2034                   24663971.7544
 -20497202.27147 -15956748.36945  22437769.0394                   22437766.5984
 -32415870.15346 -25220390.48443  24326276.3674                   24326275.0274
 -20474840.72348 -15940273.96246  20945549.4534                   20945546.9104
  -2923561.84547  -2257874.03646  21674928.2344   21674927.7584   13593065.71047
  10608940.78744                  23234622.5554                   23234621.0124
 -19053196.28948 -14830477.83947  20209930.6724                   20209928.0744
 -34259684.82148 -26680513.75546  21179758.9304                   21179754.2504
 11  8  2  3  3 30.0000000  0  8G26G10G04G12G25G29G05G02
  25725963.62046  20064827.41843  24632856.5234                   24632856.0514
 -20475838.05047 -15940100.90244  22441834.9224                   22441832.3244
 -32404759.23346 -25211732.62843  24328390.1414                   24328389.6094
 -20504698.50748 -15963539.77046  20939868.0704                   20939864.9304
  -3021056.71148  -2333844.03046  21656375.7194   21656375.1954   13440902.64747
  10490372.24744                  23205667.0084                   23205664.6174
 -19126709.53848 -14887760.86947  20195941.2274                   20195938.9574
 -34294094.47748 -26707326.46646  21173210.5554                   21173206.4734
 11  8  2  3  4  0.0000000  0  8G26G10G04G12G25G29G05G02
  25562325.25946  19937317.02043  24601717.9924                   24601717.1094
 -20454158.83546 -15923208.02944  22445960.2034                   22445957.3484
 -32393711.10446 -25203123.74943  24330492.6254                   24330490.8594
 -20534032.10148 -15986397.11946  20934285.8984                   20934282.6214
  -3117992.01548  -2409378.01946  21637929.1804   21637928.7624   13288739.35147
  10371803.54844                  23176710.6174                   23176708.7304
 -19199656.25148 -14944602.44147  20182060.0004                   20182057.7814
 -34328395.91548 -26734054.85946  21166683.6644                   21166678.8984
 11  8  2  3  4 30.0000000  0  8G26G10G04G12G25G29G05G02
  25398576.77446  19809720.92943  24570556.5474                   24570556.5234
 -20432161.12846 -15906066.95544  22450145.8204                   22450143.3954
 -32382719.74346 -25194559.02143  24332584.3204                   24332582.9694
 -20562837.10948 -16008842.58846  20928804.7114                   20928802.1564
  -3214360.75048  -2484470.53046  21619591.0784   21619590.8524   13136583.70947
  10253240.79744                  23147756.2344                   23147755.2734
 -19272031.04948 -15000998.37147  20168288.0474                   20168285.2934
 -34362583.59848 -26760694.62446  21160177.6804                   21160173.2034
 11  8  2  3  5  0.0000000  0  8G26G10G04G12G25G29G05G02
  25234719.77846  19682040.25943  24539376.0554                   24539374.8364
 -20409849.20547 -15888681.07844  22454391.4384                   22454389.3404
 -32371786.79046 -25186039.85643  24334664.2664                   24334663.8244
 -20591116.49948 -16030878.49246  20923423.1884                   20923420.0554
  -3310163.31548  -2559121.84846  21601360.0554   21601359.6054   12984435.63647
  10134683.93045                  23118803.3674                   23118802.3134
 -19343835.34548 -15056949.75147  20154623.9694                   20154621.2854
 -34396659.46647 -26787247.24346  21153693.1724                   21153688.3284
 11  8  2  3  5 30.0000000  0  8G26G10G04G12G25G29G05G02
  25070753.42146  19554274.35542  24508173.5704                   24508172.9844
 -20387229.27247 -15871055.18444  22458696.2504                   22458694.0704
 -32360915.99946 -25177569.13143  24336732.9844                   24336732.3954
 -20618875.49848 -16052508.88846  20918140.8364                   20918137.7664
  -3405402.48448  -2633334.17246  21583236.8444   21583236.3324   12832292.92547
  10016131.25745                  23089851.8754                   23089850.1884
 -19415073.12148 -15112459.68447  20141067.8284                   20141065.2384
 -34430627.48447 -26813715.82446  21147229.2974                   21147225.0044
 11  8  2  3  6  0.0000000  0  8G26G10G04G12G25G29G05G02
  24906680.61846  19426425.50442  24476951.3914                   24476950.6454
 -20364304.79547 -15853191.97444  22463059.0234                   22463056.5864
 -32350107.89146 -25169147.27043  24338790.2274                   24338788.5744
 -20646116.12248 -16073735.34346  20912957.4224                   20912954.4304
  -3500077.72448  -2707107.07346  21565220.6724   21565220.7974   12680156.90447
   9897583.82644                  23060900.7814                   23060899.4884
 -19485745.30447 -15167528.89847  20127619.6804                   20127616.7934
 -34464488.48647 -26840101.00546  21140785.9694                   21140781.4224
 11  8  2  3  6 30.0000000  0  8G26G10G04G12G25G29G05G02
  26317932.71346  20526102.47843  24745504.1334                   24745503.1374
 -18765656.36647 -14607491.89045  22767271.6174                   22767268.9924
 -30763940.29046 -23933172.47742  24640627.6884                   24640625.5044
 -19097416.21848 -14866956.20846  21207664.8984                   21207662.1254
  -2018762.15948  -1552835.19246  21847105.6644   21847105.4494   14103456.82347
  11006648.79144                  23331746.2894                   23331744.5274
 -17980427.20848 -13994553.73947  20414071.6884                   20414069.5274
 -32922818.99448 -25638800.09746  21434155.4454                   21434151.8594
 11  8  2  3  7  0.0000000  0  8G26G10G04G12G25G29G05G02
  26153660.87446  20398098.56943  24714244.5084                   24714244.1724
 -18742126.14847 -14589156.70844  22771749.0164                   22771746.9454
 -30753253.27546 -23924844.95943  24642661.4304                   24642661.2894
 -19123619.90548 -14887374.67246  21202678.6564                   21202675.8364
  -2112302.18748  -1625723.51246  21829305.1024   21829304.8914   13951343.30547
  10888118.84345                  23302800.1644                   23302798.3094
 -18049964.69048 -14048738.76147  20400839.3524                   20400836.4024
 -32956462.84648 -25665016.08946  21427753.8134                   21427749.3674
 11  8  2  3  7 30.0000000  0  8G26G10G04G12G25G29G05G02
  25989292.48846  20270019.37643  24682965.2894                   24682966.2734
 -18718299.05147 -14570590.14944  22776283.0474                   22776281.2854
 -30742629.10646 -23916566.33943  24644683.2504                   24644681.8594
 -19149309.33748 -14907392.42146  21197790.0784                   21197786.9264
  -2205275.17648  -1698169.98446  21811613.2274   21811613.4494   13799241.39947
  10769597.98645                  23273856.0634                   23273854.8484
 -18118937.40948 -14102483.71047  20387714.1804                   20387711.0634
 -32990000.36147 -25691149.19246  21421371.9844                   21421366.6454
 11  8  2  3  8  0.0000000  0  8G26G10G04G12G25G29G05G02
  25824830.07046  20141866.89843  24651670.6254                   24651669.0664
 -18694178.37947 -14551794.84444  22780873.6024                   22780870.6764
 -30732068.25546 -23908337.13043  24646693.0474                   24646692.2074
 -19174486.56848 -14927011.04746  21192999.0234                   21192996.2584
  -2297681.05048  -1770174.55846  21794028.9144   21794029.6764   13647151.95247
  10651086.81345                  23244913.8204                   23244912.1604
 -18187346.10948 -14155789.17047  20374696.3754                   20374693.3164
 -33023432.60247 -25717200.27646  21415009.4774                   21415004.8054
 11  8  2  3  8 30.0000000  0  8G26G10G04G12G25G29G05G02
  25660278.86446  20013645.28243  24620356.3754                   24620356.3524
 -18669764.95247 -14532771.40944  22785519.0394                   22785517.0434
 -30721568.69546 -23900155.62743  24648690.9384                   24648690.0204
 -19199151.30348 -14946230.32446  21188305.5084                   21188302.6844
  -2389516.72548  -1841734.80646  21776553.5634   21776552.4804   13495078.96447
  10532588.46144                  23215975.5164                   23215973.6054
 -18255189.31548 -14208653.99247  20361786.2034                   20361782.9884
 -33056757.74547 -25743167.92646  21408667.8134                   21408663.3834
 11  8  2  3  9  0.0000000  0  8G26G10G04G12G25G29G05G02
  25495640.12747  19885355.42743  24589027.2424                   24589025.9924
 -18645063.62347 -14513523.65544  22790219.2114                   22790217.4384
 -30711132.57646 -23892023.65443  24650676.3444                   24650674.9144
 -19223307.45148 -14965053.31846  21183708.6884                   21183706.1994
  -2480783.42948  -1912851.70446  21759185.7424   21759185.4184   13343021.92047
  10414102.50445                  23187039.9384                   23187038.2734
 -18322469.41248 -14261080.02247  20348983.5474                   20348980.5744
 -33089978.19348 -25769053.98446  21402346.4064                   21402341.6724
 11  8  2  3  9 30.0000000  0  8G26G10G04G12G25G29G05G02
  25330918.03546  19757000.56243  24557681.8834                   24557681.0664
 -18620075.90047 -14494052.71044  22794974.2504                   22794971.8674
 -30700758.88347 -23883940.09643  24652650.3834                   24652649.0944
 -19246955.17548 -14983480.11846  21179208.8524                   21179206.0354
  -2571479.37148  -1983523.85146  21741927.2344   21741926.3914   13190983.62147
  10295631.19045                  23158108.5004                   23158106.3164
 -18389186.19448 -14313067.09447  20336287.5554                   20336284.4024
 -33123093.54648 -25794858.14446  21396044.6804                   21396039.7934
 11  8  2  3 10  0.0000000  0  8G26G10G04G12G25G29G05G02
  25166115.69847  19628583.22843  24526320.4224                   24526319.8524
 -18594804.36246 -14474360.60544  22799783.6174                   22799781.2934
 -30690447.95047 -23875905.56743  24654613.2424                   24654611.8794
 -19270096.72148 -15001512.50146  21174805.2504                   21174802.5554
  -2661603.98648  -2053750.81046  21724777.0704   21724776.5474   13038965.47947
  10177175.57445                  23129180.2424                   23129178.0004
 -18455340.10248 -14364615.57647  20323698.8674                   20323695.9964
 -33156103.97348 -25820580.55846  21389763.3594                   21389758.4344
 11  8  2  3 10 30.0000000  0  8G26G10G04G12G25G29G05G02
  25001233.73247  19500103.86444  24494944.6094                   24494943.8634
 -18569254.32847 -14454451.53144  22804645.4224                   22804643.0904
 -30680202.32246 -23867921.98243  24656562.7894                   24656560.4184
 -19292736.15048 -15019153.61246  21170496.6644                   21170494.2814
  -2751159.12448  -2123534.02046  21707735.1564   21707734.5554   12886966.52047
  10058734.89645                  23100255.6954                   23100253.3634
 -18520934.19248 -14415727.83147  20311216.9144                   20311214.2274
 -33189012.28648 -25846223.39046  21383501.0634                   21383496.4064
 11  8  2  3 11  0.0000000  0  8G26G10G04G12G25G29G05G02
  24836277.34547  19371566.41243  24463554.2194                   24463552.9964
 -18543426.84747 -14434326.21544  22809559.9774                   22809557.7584
 -30670019.88646 -23859987.56443  24658499.9534                   24658498.4304
 -19314873.12448 -15036403.21146  21166284.2814                   21166281.4844
  -2840141.97748  -2192871.28946  21690802.0864   21690801.7624   12734990.28447
   9940311.93345                  23071334.8134                   23071332.8164
 -18585967.00248 -14466402.73047  20298841.2584                   20298838.4694
 -33221817.05447 -25871785.55346  21377258.3444                   21377253.5784
 11  8  2  3 11 30.0000000  0  8G26G10G04G12G25G29G05G02
  24671246.43447  19242970.99543  24432149.9304                   24432148.6804
 -18517328.00246 -14413989.48244  22814526.2974                   22814524.2544
 -30659904.24646 -23852105.26343  24660425.0944                   24660424.2894
 -19336513.11148 -15053265.54846  21162166.3984                   21162163.5124
  -2928555.51148  -2261764.93546  21673977.8444   21673977.5164   12583035.12147
   9821905.38344                  23042419.0314                   23042417.2894
 -18650442.73648 -14516643.54247  20286571.8594                   20286569.0744
 -33254521.93747 -25897269.86646  21371034.6644                   21371029.9804
 11  8  2  3 12  0.0000000  0  8G26G10G04G12G25G29G05G02
  24506145.09747  19114320.66543  24400732.4144                   24400730.9734
 -18490959.49846 -14393442.61444  22819544.3834                   22819541.8984
 -30649854.55146 -23844274.30943  24662337.4384                   24662336.7194
 -19357656.62348 -15069741.01946  21158142.7114                   21158139.3484
  -3016398.07748  -2330213.66646  21657261.8134   21657261.3364   12431103.85847
   9703517.45645                  23013507.1174                   23013505.6214
 -18714361.00748 -14566449.96447  20274408.8134                   20274405.7934
 -33287126.44747 -25922675.96046  21364830.4224                   21364825.5594
 11  8  2  3 12 30.0000000  0  8G26G10G04G12G25G29G05G02
  24340976.75647  18985618.09843  24369301.8524                   24369300.1484
 -18464324.05746 -14372687.78144  22824612.7034                   22824610.9774
 -30639870.60946 -23836494.62043  24664237.2814                   24664236.8484
 -19378305.42548 -15085831.00046  21154213.4144                   21154211.0204
  -3103668.95948  -2398216.93046  21640654.7424   21640653.8444   12279197.96047
   9585149.28545                  22984600.5784                   22984599.0474
 -18777722.29748 -14615822.38947  20262351.4924                   20262348.3364
 -33319630.76347 -25948003.99346  21358645.1334                   21358640.0824
 11  8  2  3 13  0.0000000  0  7G26G10G12G25G29G05G02
  24175743.48146  18856864.96343  24337857.9694                   24337857.2894
 -18437425.63146 -14351727.94844  22829731.7664                   22829729.7934
 -19398462.71648 -15101537.98546  21150377.6254                   21150374.9184
  -3190368.76248  -2465775.19946  21624156.2734   21624155.9924   12127318.21547
   9466801.50245                  22955698.8834                   22955697.2584
 -18840528.45048 -14664762.23247  20250400.0554                   20250396.9184
 -33352036.33548 -25973255.08946  21352478.4144                   21352473.3094
 11  8  2  3 13 30.0000000  0  7G26G10G12G25G29G05G02
  24010450.66846  18728065.43943  24306404.6644                   24306402.3714
 -18410264.73646 -14330563.63844  22834900.7194                   22834898.1094
 -19418128.13248 -15116861.69446  21146635.8754                   21146632.9734
  -3276494.77148  -2532886.34746  21607766.7194   21607766.3244   11975468.35047
   9348476.99545                  22926802.8444                   22926800.9494
 -18902778.15548 -14713268.48047  20238553.9224                   20238551.3094
 -33384341.19047 -25998427.70346  21346331.2114                   21346325.9224
 11  8  2  3 14  0.0000000  0  7G26G10G12G25G29G05G02
  23845106.00046  18599225.51543  24274940.0004                   24274938.5704
 -18382839.79046 -14309193.57944  22840119.2584                   22840116.7074
 -19437299.09448 -15131800.11846  21142987.2974                   21142984.5784
  -3362042.16348  -2599546.64146  21591487.4844   21591487.7544   11823654.39247
   9230180.46545                  22897913.5394                   22897911.5004
 -18964467.59448 -14761338.16047  20226815.1724                   20226812.4964
 -33416541.32747 -26023518.71146  21340203.5314                   21340198.5204
 11  8  2  3 14 30.0000000  0  7G26G10G12G25G29G05G02
  23679715.84146  18470350.17242  24243466.6884                   24243464.7274
 -18355150.64947 -14287617.63544  22845388.7584                   22845386.3554
 -19455974.61648 -15146352.48246  21139433.5554                   21139431.0704
  -3447007.47548  -2665753.35046  21575319.5314   21575319.7934   11671880.77247
   9111915.35745                  22869032.0394                   22869029.4494
 -19025595.17648 -14808970.03047  20215183.0084                   20215179.8204
 -33448634.03047 -26048526.00546  21334096.8054                   21334091.6374
 11  8  2  3 15  0.0000000  0  7G26G10G12G25G29G05G02
  23514280.85346  18341439.91143  24211985.0554                   24211982.3244
 -18327202.33647 -14265839.77944  22850706.5314                   22850704.4384
 -19474158.82348 -15160521.99646  21135973.2814                   21135970.5124
  -3531392.71148  -2731508.05646  21559261.5944   21559260.8834   11520146.87147
   8993681.18545                  22840157.7274                   22840155.6054
 -19086163.60948 -14856166.19747  20203656.9064                   20203653.8404
 -33480622.02648 -26073451.70946  21328009.4614                   21328004.7504
 11  8  2  3 15 30.0000000  0  7G26G10G12G25G29G05G02
  23348801.54046  18212494.99642  24180496.3134                   24180493.8954
 -18299000.73147 -14243864.51944  22856073.5634                   22856071.3484
 -19491857.18648 -15174312.92646  21132605.6094                   21132602.9384
  -3615200.47648  -2796812.78646  21543313.2584   21543313.2544   11368451.41747
   8875476.98645                  22811291.6094                   22811289.3594
 -19146176.75048 -14902929.66647  20192236.5944                   20192233.9534
 -33512508.83748 -26098298.56046  21321941.9384                   21321936.9924
 11  8  2  3 16  0.0000000  0  7G26G10G12G25G29G05G02
  23183277.06846  18083514.98343  24148998.0864                   24148996.4574
 -18270552.61047 -14221697.15444  22861486.9064                   22861484.7114
 -19509075.54748 -15187729.84646  21129328.9224                   21129326.2974
  -3698434.19548  -2861670.21646  21527474.7734   21527474.0514   11216792.40747
   8757301.18645                  22782432.0314                   22782428.9024
 -19205639.25948 -14949264.08147  20180921.7424                   20180918.8524
 -33544298.31048 -26123069.57546  21315892.1334                   21315887.8714
 11  8  2  3 16 30.0000000  0  7G26G10G12G25G29G05G02
  23017709.64946  17954501.44343  24117491.7344                   24117489.9844
 -18241861.69647 -14199340.61144  22866946.2734                   22866944.2894
 -19525816.66548 -15200774.88146  21126143.4454                   21126140.6134
  -3781094.76648  -2926081.04846  21511744.6024   21511744.1454   11065170.32547
   8639154.14345                  22753578.1884                   22753576.7304
 -19264553.12948 -14995170.98047  20169710.3444                   20169707.0044
 -33575992.18248 -26147766.10246  21309861.3134                   21309856.3054
 11  8  2  3 17  0.0000000  0  7G26G10G12G25G29G05G02
  22852098.71846  17825454.15643  24085976.2424                   24085975.4694
 -18212934.51547 -14176799.97144  22872450.8284                   22872448.7624
 -19542086.07048 -15213452.33646  21123047.5394                   21123044.4654
  -3863185.55448  -2990047.87346  21496123.1564   21496122.3714   10913583.03747
   8521034.19145                  22724732.6564                   22724730.8164
 -19322923.20948 -15040654.15247  20158602.8134                   20158600.2424
 -33607594.50848 -26172391.28646  21303847.7344                   21303842.1764
 11  8  2  3 17 30.0000000  0  7G26G10G12G25G29G05G02
  22686450.76746  17696377.86143  24054454.6884                   24054454.0824
 -18183770.95747 -14154075.11144  22878001.2894                   22877998.5784
 -19557883.46048 -15225761.99246  21120041.6174                   21120038.5944
  -3944703.37848  -3053568.23746  21480611.1094   21480610.8444   10762035.21747
   8402945.04945                  22695894.1024                   22695891.7704
 -19380747.24248 -15085711.83747  20147599.6094                   20147596.5354
 -33639102.67048 -26196943.09746  21297851.6024                   21297846.9024
 11  8  2  3 18  0.0000000  0  7G26G10G12G25G29G05G02
  24096193.78746  18794879.02943  24322720.2424                   24322719.3984
 -16578955.36946 -12903569.47544  23183386.2424                   23183384.5044
 -17997790.58748 -14010105.21646  21416916.9454                   21416914.1484
  -2450225.84748  -1889040.28146  21765000.5474   21764999.9264   12185953.09247
   9512491.48245                  22966856.4844                   22966854.5354
 -17862605.22848 -13902744.01447  20436492.1884                   20436489.5314
 -32095096.59348 -24993821.46946  21591666.4614                   21591662.1914
 11  8  2  3 18 30.0000000  0  7G26G10G12G25G29G05G02
  23930478.61346  18665750.37043  24291185.7734                   24291184.6884
 -16549330.08046 -12880484.87544  23189024.3364                   23189022.7034
 -18012652.40648 -14021685.85446  21414088.8594                   21414085.6604
  -2530599.72448  -1951669.27046  21749706.0944   21749705.4024   12034486.66947
   9394465.75645                  22938033.2344                   22938031.7344
 -17919343.49648 -13946955.64647  20425695.2344                   20425692.2734
 -32126419.96348 -25018229.29246  21585705.5004                   21585700.8164
 11  8  2  3 19  0.0000000  0  7G26G10G12G25G29G05G02
  23764735.30146  18536599.84243  24259646.2584                   24259644.9064
 -16519477.67746 -12857223.26644  23194705.1094                   23194703.4384
 -18027049.35248 -14032904.27146  21411349.4144                   21411346.3484
  -2610401.06948  -2013852.12146  21734520.1414   21734519.7194   11883063.87347
   9276473.98945                  22909218.5704                   22909216.5744
 -17975540.11848 -13990745.21247  20415001.7504                   20414998.3874
 -32157650.93348 -25042565.10546  21579762.5864                   21579757.9384
 11  8  2  3 19 30.0000000  0  7G26G10G12G25G29G05G02
  23598966.47147  18407429.44443  24228100.7424                   24228099.7584
 -16489401.75447 -12833787.49544  23200428.5944                   23200426.9144
 -18040984.19548 -14043762.59546  21408697.5234                   21408694.8324
  -2689630.29748  -2075589.17146  21719443.5634   21719443.1134   11731685.70847
   9158517.01245                  22880412.4144                   22880410.1994
 -18031196.63548 -14034113.91047  20404410.1884                   20404407.9304
 -32188790.45948 -25066829.66146  21573836.9454                   21573831.9184
 11  8  2  3 20  0.0000000  0  7G26G10G12G25G29G05G02
  23433174.29547  18278240.80943  24196551.4304                   24196551.3284
 -16459105.75246 -12810180.22144  23206193.5634                   23206191.6254
 -18054459.91348 -14054263.15446  21406133.1564                   21406129.8794
  -2768288.40248  -2136881.19546  21704475.1414   21704475.2344   11580353.08147
   9040595.54345                  22851614.4304                   22851612.2424
 -18086315.11848 -14077063.36947  20393921.4844                   20393919.0594
 -32219840.07648 -25091024.15946  21567928.3524                   21567923.3134
 11  8  2  3 20 30.0000000  0  7G26G10G12G25G29G05G02
  23267361.49946  18149036.12844  24164998.2274                   24164997.4184
 -16428593.50246 -12786404.44544  23211999.6174                   23211997.6844
 -18067479.52948 -14064408.32046  21403655.5944                   21403652.5904
  -2846375.77348  -2197728.48446  21689616.0314   21689615.4574   11429066.92647
   8922710.28245                  22822825.8754                   22822822.9064
 -18140897.44348 -14119595.03747  20383534.7274                   20383531.9844
 -32250800.51148 -25115149.16446  21562036.8594                   21562032.2704
 11  8  2  3 21  0.0000000  0  7G26G10G12G25G29G05G02
  23101533.13646  18019819.28543  24133442.6414                   24133441.0314
 -16397865.92946 -12762460.89144  23217847.2664                   23217845.4024
 -18080043.80648 -14074198.67546  21401264.3524                   21401261.1954
  -2923890.74648  -2258129.76046  21674865.1414   21674864.5044   11277830.75847
   8804863.96045                  22794045.9144                   22794043.8244
 -18194942.75748 -14161708.26047  20373250.3754                   20373247.7544
 -32281670.34248 -25139203.56346  21556162.3134                   21556157.2274
 11  8  2  3 21 30.0000000  0  7G26G10G12G25G29G05G02
  22935693.17846  17890593.36043  24101883.2734                   24101882.6994
 -16366925.20647 -12738351.27844  23223735.1024                   23223732.1914
 -18092154.33048 -14083635.45846  21398960.1954                   21398957.5634
  -3000832.78448  -2318084.59446  21660223.4304   21660223.4184   11126646.63047
   8687058.20045                  22765276.8674                   22765274.4494
 -18248451.96448 -14203403.73047  20363067.7974                   20363065.3204
 -32312449.49048 -25163187.31346  21550305.2584                   21550300.7344
 11  8  2  3 22  0.0000000  0  7G26G10G12G25G29G05G02
  22769844.95546  17761361.13943  24070324.0314                   24070322.3984
 -16335773.87246 -12714077.49943  23229662.7664                   23229660.3834
 -18103812.64548 -14092719.87346  21396741.4304                   21396738.4224
  -3077201.47148  -2377592.65846  21645691.0004   21645690.6724   10975516.90347
   8569294.83445                  22736517.3364                   22736515.0984
 -18301425.83648 -14244682.06447  20352987.3594                   20352984.8134
 -32343137.91648 -25187100.37046  21544465.3524                   21544460.9694
 11  8  2  3 22 30.0000000  0  7G26G10G12G25G29G05G02
  22603993.72746  17632126.49143  24038762.5704                   24038761.4384
 -16304413.30247 -12689640.71744  23235630.9144                   23235628.4924
 -18115019.59348 -14101452.56246  21394609.0704                   21394606.2074
  -3152995.30848  -2436652.78246  21631267.9384   21631267.6134   10824444.86747
   8451576.42145                  22707769.9614                   22707767.2854
 -18353864.02448 -14285542.98047  20343008.6804                   20343005.8484
 -32373733.99648 -25210941.46146  21538643.4454                   21538638.1524
 11  8  2  3 23  0.0000000  0  7G26G10G12G25G29G05G02
  22438140.19446  17502890.06943  24007202.3754                   24007200.6644
 -16272848.82447 -12665045.02844  23241636.9224                   23241635.2544
 -18125780.35247 -14109837.57846  21392561.2114                   21392559.0434
  -3228216.99148  -2495267.06746  21616953.8284   21616952.8054   10673429.54247
   8333902.21045                  22679032.6024                   22679029.8834
 -18405770.17148 -14325989.31447  20333131.5634                   20333128.1454
 -32404240.70848 -25234712.92846  21532838.0474                   21532833.2034
 11  8  2  3 23 30.0000000  0  7G26G10G12G25G29G05G02
  22272286.93246  17373653.83943  23975642.5634                   23975638.8914
 -16241084.03947 -12640293.25644  23247681.7424                   23247679.3244
 -18136097.84048 -14117877.17846  21390598.3204                   21390594.8554
  -3302867.29648  -2553436.13146  21602748.3444   21602748.0594   10522472.12247
   8216273.12045                  22650305.9144                   22650303.3014
 -18457146.42248 -14366022.73847  20323354.5554                   20323351.7584
 -32434659.28448 -25258415.71046  21527049.4064                   21527044.1134
 11  8  2  3 24  0.0000000  0  7G26G10G12G25G29G05G02
  22106439.03446  17244421.79943  23944082.2034                   23944080.3554
 -16209119.58747 -12615385.87944  23253764.5084                   23253763.0864
 -18145972.57048 -14125571.77946  21388718.6414                   21388715.9734
  -3376944.59648  -2611158.69746  21588651.7034   21588651.5984   10371576.24847
   8098691.96745                  22621591.6884                   22621589.3524
 -18507992.09548 -14405642.73447  20313679.3054                   20313676.1684
 -32464988.28248 -25282048.69546  21521278.0314                   21521273.2624
 11  8  2  3 24 30.0000000  0  7G26G10G12G25G29G05G02
  21940599.55846  17115196.29343  23912523.2974                   23912521.3524
 -16176959.05847 -12590325.78144  23259884.8204                   23259882.6804
 -18155407.58248 -14132923.74646  21386923.4384                   21386920.5784
  -3450449.55348  -2668435.27546  21574664.3204   21574663.7544   10220742.94447
   7981159.59445                  22592888.7504                   22592886.0704
 -18558309.17548 -14444850.83747  20304104.1414                   20304101.3554
 -32495228.25948 -25305612.31546  21515523.2974                   21515519.3404
 11  8  2  3 25  0.0000000  0  7G26G10G12G25G29G05G02
  21774769.94247  16985978.50943  23880967.3054                   23880965.4104
 -16144607.14847 -12565116.49444  23266041.2194                   23266038.0704
 -18164406.88448 -14139936.20046  21385211.0164                   21385208.4454
  -3523384.24248  -2725267.49646  21560785.6174   21560784.6294   10069972.16747
   7863675.93745                  22564198.2344                   22564196.3054
 -18608100.85748 -14483649.54147  20294628.9844                   20294626.0944
 -32525381.27848 -25329108.19746  21509785.6414                   21509781.0354
 11  8  2  3 25 30.0000000  0  7G26G10G12G25G29G05G02
  21608954.70447  16856771.85343  23849413.2974                   23849410.9384
 -16112065.19847 -12539759.13044  23272233.5704                   23272231.9694
 -18172971.52148 -14146609.95446  21383581.0784                   21383578.1094
  -3595747.59548  -2781654.51346  21547014.8134   21547014.5824
   9919266.81247   7746243.25145  22535519.5314                   22535517.3014
 -18657367.21648 -14522038.89747  20285253.8674                   20285251.1914
 -32555446.42848 -25352535.56146  21504064.5554                   21504059.4304
 11  8  2  3 26  0.0000000  0  7G26G10G12G25G29G05G02
  21443159.58247  16727580.89743  23817863.5394                   23817862.2704
 -16079333.51447 -12514253.92744  23278461.9064                   23278460.1564
 -18181101.84848 -14152945.28446  21382033.7894                   21382031.2384
  -3667537.42548  -2837594.62046  21533353.9454   21533353.5594
   9768631.52347   7628865.16645  22506854.9224                   22506852.6914
 -18706107.34548 -14560018.20347  20275979.0234                   20275975.7894
 -32585421.72348 -25375892.94546  21498360.5704                   21498355.2934
 11  8  2  3 26 30.0000000  0  7G26G10G12G25G29G05G02
  21277382.07747  16598403.67943  23786316.7584                   23786315.7584
 -16046421.17747 -12488607.97944  23284725.3524                   23284723.7304
 -18188805.98148 -14158948.51246  21380567.8444                   21380565.1374
  -3738760.06647  -2893092.77146  21519800.3054   21519799.7034
   9618061.76147   7511538.13045  22478201.8674                   22478200.2074
 -18754328.58748 -14597593.19147  20266803.1334                   20266799.8164
 -32615313.19648 -25399185.00446  21492671.8834                   21492667.7464
 11  8  2  3 27  0.0000000  0  7G26G10G12G25G29G05G02
  21111634.71447  16469249.96743  23754776.5234                   23754774.9144
 -16013321.53947 -12462816.08644  23291024.6804                   23291021.6214
 -18196077.35948 -14164614.52446  21379184.1024                   21379181.1524
  -3809406.67147  -2948142.05646  21506356.6024   21506356.5354
   9467568.58647   7394270.77345  22449564.2894                   22449561.9384
 -18802023.30348 -14634757.89147  20257726.6484                   20257723.6374
 -32645112.04048 -25422404.87846  21487001.5944                   21486996.9344
 11  8  2  3 27 30.0000000  0  7G26G10G12G25G29G05G02
  20945919.12346  16340121.02244  23723242.2734                   23723240.2344
 -15980038.90847 -12436881.58244  23297356.7734                   23297355.4734
 -18202920.00348 -14169946.47546  21377881.9844                   21377879.1564
  -3879479.15348  -3002743.97146  21493022.5164   21493022.2344
   9317152.24647   7277063.29345  22420941.4304                   22420938.8674
 -18849194.34748 -14671514.52847  20248750.6174                   20248747.5944
 -32674820.06148 -25445554.00146  21481348.5944                   21481343.3244
 11  8  2  3 28  0.0000000  0  7G26G10G12G25G29G05G02
  20780234.94646  16211016.54344  23691712.8834                   23691711.8484
 -15946580.37347 -12410810.02243  23303724.2894                   23303722.6914
 -18209340.18048 -14174949.22146  21376660.3364                   21376657.6294
  -3948981.94948  -3056901.97546  21479796.7034   21479796.0864
   9166810.38947   7159913.84145  22392331.7034                   22392330.0314
 -18895847.34448 -14707867.49747  20239872.5164                   20239869.8714
 -32704441.29048 -25468635.47846  21475711.7664                   21475707.2274
 11  8  2  3 28 30.0000000  0  7G26G10G12G25G29G05G02
  20614589.00646  16081941.90143  23660191.5164                   23660189.9964
 -15912945.08447 -12384600.74243  23310124.7584                   23310123.1214
 -18215337.47848 -14179622.45046  21375519.0784                   21375516.3444
  -4017911.84248  -3110613.56846  21466679.2734   21466679.1954
   9016548.48447   7042826.68945  22363737.7664                   22363735.7344
 -18941979.94148 -14743814.96747  20231094.1024                   20231090.8244
 -32733972.76648 -25491647.01246  21470092.1564                   21470087.2664
 11  8  2  3 29  0.0000000  0  7G26G10G12G25G29G05G02
  20448979.97546  15952895.91643  23628677.1484                   23628675.5554
 -15879140.89747 -12358259.80943  23316557.8674                   23316556.0204
 -18220919.06548 -14183971.74846  21374457.0704                   21374454.3014
  -4086274.35848  -3163883.05946  21453670.6024   21453670.0744
   8866363.22747   6925799.25145  22335158.9534                   22335156.6884
 -18987598.94248 -14779362.22347  20222413.0164                   20222409.9964
 -32763420.08948 -25514592.98546  21464488.6334                   21464483.8444
 11  8  2  3 29 30.0000000  0  7G26G10G12G25G29G05G02
  21858836.84246  17051485.75743  23896963.4224                   23896962.0234
 -14269750.90147 -11104189.70943  23622814.5474                   23622812.6804
 -16650666.43648 -12960398.27946  21673266.1724                   21673263.1684
  -2578646.99047  -1989108.46146  21740562.4224   21740562.0394
  10291682.32547   8036437.56845  22606387.5394                   22606385.3444
 -17457283.49248 -13586908.60547  20513622.1724                   20513619.1994
 -31217361.45848 -24309871.96446  21758693.5864                   21758688.9734
 11  8  2  3 30  0.0000000  0  7G26G10G12G25G29G05G02
  21693314.96946  16922507.78844  23865465.5634                   23865464.5234
 -14235613.20747 -11077588.89843  23629311.1564                   23629308.5084
 -16655420.32248 -12964102.63246  21672361.5864                   21672358.9224
  -2645872.27848  -2041491.80246  21727769.9844   21727769.7424
  10141659.95547   7919537.06545  22577839.3284                   22577836.7624
 -17501875.81748 -13621655.86147  20505136.6024                   20505133.5314
 -31246636.44248 -24332683.64746  21753122.8134                   21753118.0474
 11  8  2  3 30 30.0000000  0  7G26G10G12G25G29G05G02
  21527843.22946  16793568.87044  23833977.2974                   23833975.5124
 -14201311.60747 -11050860.42543  23635837.8754                   23635835.4414
 -16659763.04748 -12967486.58346  21671535.1024                   21671532.8404
  -2712528.41948  -2093431.64746  21715085.7194   21715085.7544
   9991722.96547   7802703.10845  22549307.0864                   22549305.0474
 -17545956.13748 -13656004.14747  20496748.3204                   20496745.1294
 -31275824.32748 -24355427.46346  21747568.5084                   21747563.6334
 11  8  2  3 31  0.0000000  0  7G26G10G12G25G29G05G02
  21362422.97647  16664670.02044  23802499.4454                   23802497.5124
 -14166851.07147 -11024008.04743  23642395.6024                   23642393.3204
 -16663699.76748 -12970554.18046  21670786.1334                   21670783.6724
  -2778618.15348  -2144930.12746  21702509.0944   21702508.8554
   9841871.01147   7685935.40345  22520791.7034                   22520788.8634
 -17589528.09548 -13689956.31347  20488456.4924                   20488453.9064
 -31304927.40548 -24378105.18446  21742030.3204                   21742025.6024
 11  8  2  3 31 30.0000000  0  7G26G10G12G25G29G05G02
  21197058.19147  16535814.45044  23771031.4774                   23771029.6374
 -14132233.61647 -10997033.38644  23648983.0164                   23648981.5474
 -16667231.77348 -12973306.40246  21670113.9224                   21670111.2424
  -2844141.33347  -2195987.15046  21690040.6414   21690040.5394
   9692107.04047   7569236.27545  22492292.4454                   22492289.7504
 -17632592.55748 -13723513.02047  20480261.7974                   20480259.2774
 -31333945.38448 -24400716.58546  21736508.4694                   21736503.7934
 11  8  2  3 32  0.0000000  0  7G26G10G12G25G29G05G02
  21031754.26747  16407006.20043  23739574.8834                   23739573.5984
 -14097460.21447 -10969937.25943  23655600.1484                   23655598.0514
 -16670359.99348 -12975743.98946  21669518.7894                   21669515.4534
  -2909096.70048  -2246601.73046  21677680.0784   21677679.5634
   9542434.44847   7452608.34145  22463810.1024                   22463807.7974
 -17675149.15148 -13756673.98747  20472163.5554                   20472160.7384
 -31362876.63348 -24423260.42446  21731003.1724                   21730998.4494
 11  8  2  3 32 30.0000000  0  8G26G10G15G12G25G29G05G02
  20866509.36447  16278244.03044  23708130.1724                   23708128.3554
 -14062538.84047 -10942725.83144  23662245.4144                   23662242.9144
  31267099.95956  24382734.71253  24663943.6724                   24663940.5204
 -16673092.22347 -12977873.02546  21668998.8284                   21668996.3324
  -2973490.04148  -2296778.35046  21665426.2504   21665425.9384
   9392849.86447   7336048.97945  22435344.8204                   22435343.1604
 -17717204.89848 -13789444.68047  20464160.4924                   20464157.5704
 -31391726.56547 -24445740.89746  21725513.1094                   21725507.8634
